[[{"header":{"parameterUnit":"m.s-1","parameterCategory":1,"la1":30.6,"la2":29.2853,"lo1":-89.7004,"lo2":-87.6739,"dy":0.0162,"dx":0.0183,"nx":112,"ny":82,"refTime":"2023-07-12T12:00:00:Z","depth":0,"parameterNumber":2,"parameterNumberName":"U-component_of_WINDS"},"data":[0.0,0.0,0.0,0.0,0.0,0.0,0.0,0.0,0.0,0.0,0.0,0.0,0.0,0.0,0.0,0.0,0.0,0.0,0.0,0.0,0.0,0.0,0.0,0.0,0.0,0.0,0.0,0.0,0.0,0.0,0.0,0.0,0.0,0.0,0.0,0.0,0.0,0.0,0.0,0.0,0.0,0.0,0.0,0.0,0.0,0.0,0.0,0.0,0.0,0.0,0.0,0.0,0.0,0.0,0.0,0.0,0.0,0.0,0.0,0.0,0.0,0.0,0.0,0.0,0.0,0.0,0.0,0.0,0.0,0.0,0.0,0.0,0.0,0.0,0.0,0.0,0.0,0.0,0.0,0.0,0.0,0.0,0.0,0.0,0.0,0.0,0.0,0.0,0.0,0.0,0.0,-2.83,-2.8268,-2.8268,-2.8268,-2.8425,-2.8522,-2.8522,0.0,0.0,0.0,0.0,0.0,0.0,0.0,0.0,0.0,0.0,0.0,0.0,0.0,0.0,0.0,0.0,0.0,0.0,0.0,0.0,0.0,0.0,0.0,0.0,0.0,0.0,0.0,0.0,0.0,0.0,0.0,0.0,0.0,0.0,0.0,0.0,0.0,0.0,0.0,0.0,0.0,0.0,0.0,0.0,0.0,0.0,0.0,0.0,0.0,0.0,0.0,0.0,0.0,0.0,0.0,0.0,0.0,0.0,0.0,0.0,0.0,0.0,0.0,0.0,0.0,0.0,0.0,0.0,0.0,0.0,0.0,0.0,0.0,0.0,0.0,0.0,0.0,0.0,0.0,0.0,0.0,0.0,0.0,0.0,0.0,0.0,0.0,0.0,0.0,0.0,0.0,0.0,0.0,0.0,0.0,0.0,0.0,0.0,0.0,0.0,0.0,0.0,0.0,0.0,-2.83,-2.8131,-2.8131,-2.8131,-2.8131,-2.8145,-2.8177,-2.8177,0.0,0.0,0.0,0.0,0.0,0.0,0.0,0.0,0.0,0.0,0.0,0.0,0.0,0.0,0.0,0.0,0.0,0.0,0.0,0.0,0.0,0.0,0.0,0.0,0.0,0.0,0.0,0.0,0.0,0.0,0.0,0.0,0.0,0.0,0.0,0.0,0.0,0.0,0.0,0.0,0.0,0.0,0.0,0.0,0.0,0.0,0.0,0.0,0.0,0.0,0.0,0.0,0.0,0.0,0.0,0.0,0.0,0.0,0.0,0.0,0.0,0.0,0.0,0.0,0.0,0.0,0.0,0.0,0.0,0.0,0.0,0.0,0.0,0.0,0.0,0.0,0.0,0.0,0.0,0.0,0.0,0.0,0.0,0.0,0.0,0.0,0.0,0.0,0.0,0.0,0.0,0.0,0.0,0.0,0.0,0.0,0.0,0.0,0.0,0.0,0.0,0.0,0.0,-2.8151,-2.802,-2.7921,-2.7934,-2.7934,-2.7934,-2.8046,-2.8112,-2.8112,-2.8052,0.0,0.0,0.0,0.0,0.0,0.0,0.0,0.0,0.0,0.0,0.0,0.0,0.0,0.0,0.0,0.0,0.0,0.0,0.0,0.0,0.0,0.0,0.0,0.0,0.0,0.0,0.0,0.0,0.0,0.0,0.0,0.0,0.0,0.0,0.0,0.0,0.0,0.0,0.0,0.0,0.0,0.0,0.0,0.0,0.0,0.0,0.0,0.0,0.0,0.0,0.0,0.0,0.0,0.0,0.0,0.0,0.0,0.0,0.0,0.0,0.0,0.0,0.0,0.0,0.0,0.0,0.0,0.0,0.0,0.0,0.0,0.0,0.0,0.0,0.0,0.0,0.0,0.0,0.0,0.0,0.0,0.0,0.0,0.0,0.0,0.0,0.0,0.0,0.0,0.0,0.0,0.0,0.0,0.0,0.0,0.0,0.0,0.0,0.0,0.0,0.0,0.0,-2.7901,-2.7776,-2.7723,-2.7723,-2.7723,-2.7723,-2.7868,-2.7947,-2.7947,-2.7822,0.0,0.0,0.0,0.0,0.0,0.0,0.0,0.0,0.0,0.0,0.0,0.0,0.0,0.0,0.0,0.0,0.0,0.0,0.0,0.0,0.0,0.0,0.0,0.0,0.0,0.0,0.0,0.0,0.0,0.0,0.0,0.0,0.0,0.0,0.0,0.0,0.0,0.0,0.0,0.0,0.0,0.0,0.0,0.0,0.0,0.0,0.0,0.0,0.0,0.0,0.0,0.0,0.0,0.0,0.0,0.0,0.0,0.0,0.0,0.0,0.0,0.0,0.0,0.0,0.0,0.0,0.0,0.0,0.0,0.0,0.0,0.0,0.0,0.0,0.0,0.0,0.0,0.0,0.0,0.0,0.0,0.0,0.0,0.0,0.0,0.0,0.0,0.0,0.0,0.0,0.0,0.0,0.0,0.0,0.0,0.0,0.0,0.0,0.0,0.0,0.0,0.0,-2.7809,-2.7723,-2.7523,-2.7523,-2.7523,-2.7523,-2.7523,-2.7523,-2.7523,-2.7523,0.0,0.0,0.0,0.0,0.0,0.0,0.0,0.0,0.0,0.0,0.0,0.0,0.0,0.0,0.0,0.0,0.0,0.0,0.0,0.0,0.0,0.0,0.0,0.0,0.0,0.0,0.0,0.0,0.0,0.0,0.0,0.0,0.0,0.0,0.0,0.0,0.0,0.0,0.0,0.0,0.0,0.0,0.0,0.0,0.0,0.0,0.0,0.0,0.0,0.0,0.0,0.0,0.0,0.0,0.0,0.0,0.0,0.0,0.0,0.0,0.0,0.0,0.0,0.0,0.0,0.0,0.0,0.0,0.0,0.0,0.0,0.0,0.0,0.0,0.0,0.0,0.0,0.0,0.0,0.0,0.0,0.0,0.0,0.0,0.0,0.0,0.0,0.0,0.0,0.0,0.0,0.0,0.0,0.0,0.0,0.0,0.0,0.0,0.0,0.0,0.0,0.0,-2.7623,-2.759,0.0,-2.749,-2.749,-2.749,-2.749,-2.749,-2.749,0.0,0.0,0.0,0.0,0.0,0.0,0.0,0.0,0.0,0.0,0.0,0.0,0.0,0.0,0.0,0.0,0.0,0.0,0.0,0.0,0.0,0.0,0.0,0.0,0.0,0.0,0.0,0.0,0.0,0.0,0.0,0.0,0.0,0.0,0.0,0.0,0.0,0.0,0.0,0.0,0.0,0.0,0.0,0.0,0.0,0.0,0.0,0.0,0.0,0.0,0.0,0.0,0.0,0.0,0.0,0.0,0.0,0.0,0.0,0.0,0.0,0.0,0.0,0.0,0.0,0.0,0.0,0.0,0.0,0.0,0.0,0.0,0.0,0.0,0.0,0.0,0.0,0.0,0.0,0.0,0.0,0.0,0.0,0.0,0.0,0.0,0.0,0.0,0.0,0.0,0.0,0.0,0.0,0.0,0.0,0.0,0.0,0.0,0.0,0.0,0.0,0.0,-2.8085,-2.8085,-2.8085,0.0,-2.8085,-2.8007,-2.7811,-2.7798,-2.7686,-2.7503,0.0,0.0,0.0,0.0,0.0,0.0,0.0,0.0,0.0,0.0,0.0,0.0,0.0,0.0,0.0,0.0,0.0,0.0,0.0,0.0,0.0,0.0,0.0,0.0,0.0,0.0,0.0,0.0,0.0,0.0,0.0,0.0,0.0,0.0,0.0,0.0,0.0,0.0,0.0,0.0,0.0,0.0,0.0,0.0,0.0,0.0,0.0,0.0,0.0,0.0,0.0,0.0,0.0,0.0,0.0,0.0,0.0,0.0,0.0,0.0,0.0,0.0,0.0,0.0,0.0,0.0,0.0,0.0,0.0,0.0,0.0,0.0,0.0,0.0,0.0,0.0,0.0,0.0,0.0,0.0,0.0,0.0,0.0,0.0,0.0,0.0,0.0,0.0,0.0,0.0,0.0,0.0,0.0,0.0,0.0,0.0,0.0,0.0,0.0,0.0,0.0,0.0,-2.931,-2.931,-2.931,-2.931,-2.931,-2.9074,-2.8472,-2.842,-2.815,0.0,0.0,0.0,0.0,0.0,0.0,0.0,0.0,0.0,0.0,0.0,0.0,0.0,0.0,0.0,0.0,0.0,0.0,0.0,0.0,0.0,0.0,0.0,0.0,0.0,0.0,0.0,0.0,0.0,0.0,0.0,0.0,0.0,0.0,0.0,0.0,0.0,0.0,0.0,0.0,0.0,0.0,0.0,0.0,0.0,0.0,0.0,0.0,0.0,0.0,0.0,0.0,0.0,0.0,0.0,0.0,0.0,0.0,0.0,0.0,0.0,0.0,0.0,0.0,0.0,0.0,0.0,0.0,0.0,0.0,0.0,0.0,0.0,0.0,0.0,0.0,0.0,0.0,0.0,0.0,0.0,0.0,0.0,0.0,0.0,0.0,0.0,0.0,0.0,0.0,0.0,0.0,0.0,0.0,0.0,0.0,0.0,0.0,0.0,0.0,0.0,0.0,0.0,-2.931,-2.931,-2.931,-2.931,-2.931,-2.9244,-2.9061,-2.9013,-2.8948,-2.8778,0.0,0.0,0.0,0.0,0.0,0.0,0.0,0.0,0.0,0.0,0.0,0.0,0.0,0.0,0.0,0.0,0.0,0.0,0.0,0.0,0.0,0.0,0.0,0.0,0.0,0.0,0.0,0.0,0.0,0.0,0.0,0.0,0.0,0.0,0.0,0.0,0.0,0.0,0.0,0.0,0.0,0.0,0.0,0.0,0.0,0.0,0.0,0.0,0.0,0.0,0.0,0.0,0.0,0.0,0.0,0.0,0.0,0.0,0.0,0.0,0.0,0.0,0.0,0.0,0.0,0.0,0.0,0.0,0.0,0.0,0.0,0.0,0.0,0.0,0.0,0.0,0.0,0.0,0.0,0.0,0.0,0.0,0.0,0.0,0.0,0.0,0.0,0.0,0.0,0.0,0.0,0.0,0.0,0.0,0.0,0.0,0.0,0.0,0.0,0.0,0.0,0.0,-2.9967,-2.9967,-2.9967,-2.9967,-2.9967,-2.9862,-2.964,-2.9627,-2.9523,-2.9287,0.0,0.0,0.0,0.0,0.0,0.0,0.0,0.0,0.0,0.0,0.0,0.0,0.0,0.0,0.0,0.0,0.0,0.0,0.0,0.0,0.0,0.0,0.0,0.0,0.0,0.0,0.0,0.0,0.0,0.0,0.0,0.0,0.0,0.0,0.0,0.0,0.0,0.0,0.0,0.0,0.0,0.0,0.0,0.0,0.0,0.0,0.0,0.0,0.0,0.0,0.0,0.0,0.0,0.0,0.0,0.0,0.0,0.0,0.0,0.0,0.0,0.0,0.0,0.0,0.0,0.0,0.0,0.0,0.0,0.0,0.0,0.0,0.0,0.0,0.0,0.0,0.0,0.0,0.0,0.0,0.0,0.0,0.0,0.0,0.0,0.0,0.0,0.0,0.0,0.0,0.0,0.0,0.0,0.0,0.0,0.0,0.0,0.0,0.0,0.0,0.0,0.0,-3.0986,-3.0986,-3.0986,-3.0986,-3.0986,-3.0777,-3.0218,-3.0179,-2.9993,-2.9506,0.0,0.0,0.0,0.0,0.0,0.0,0.0,0.0,0.0,0.0,0.0,0.0,0.0,0.0,0.0,0.0,0.0,0.0,0.0,0.0,0.0,0.0,0.0,0.0,0.0,0.0,0.0,0.0,0.0,0.0,0.0,0.0,0.0,0.0,0.0,0.0,0.0,0.0,0.0,0.0,0.0,0.0,0.0,0.0,0.0,0.0,0.0,0.0,0.0,0.0,0.0,0.0,0.0,0.0,0.0,0.0,0.0,0.0,0.0,0.0,-3.0025,0.0,0.0,0.0,0.0,0.0,0.0,0.0,0.0,0.0,0.0,0.0,0.0,0.0,0.0,0.0,0.0,0.0,0.0,0.0,0.0,0.0,0.0,0.0,0.0,0.0,0.0,0.0,0.0,0.0,0.0,0.0,0.0,0.0,0.0,0.0,0.0,0.0,0.0,0.0,0.0,0.0,-3.0986,-3.0986,-3.0986,-3.0986,-3.0986,-3.0934,-3.0817,-3.0803,-3.0751,-3.062,0.0,0.0,0.0,0.0,0.0,0.0,0.0,0.0,0.0,0.0,0.0,0.0,0.0,0.0,0.0,0.0,0.0,0.0,0.0,0.0,0.0,0.0,0.0,0.0,0.0,0.0,0.0,0.0,0.0,0.0,0.0,0.0,0.0,0.0,0.0,0.0,0.0,0.0,0.0,0.0,0.0,0.0,0.0,0.0,0.0,0.0,0.0,0.0,0.0,0.0,0.0,0.0,0.0,0.0,0.0,0.0,0.0,0.0,0.0,0.0,0.0,-3.0405,0.0,0.0,0.0,0.0,0.0,0.0,0.0,0.0,0.0,0.0,0.0,0.0,0.0,0.0,0.0,0.0,0.0,0.0,0.0,0.0,0.0,0.0,0.0,0.0,0.0,0.0,0.0,0.0,0.0,0.0,0.0,0.0,0.0,0.0,0.0,0.0,0.0,0.0,0.0,0.0,-3.0986,-3.0986,-3.0986,-3.0986,-3.0986,-3.0986,-3.0986,-3.0986,-3.0986,-3.0986,-3.0712,0.0,0.0,0.0,0.0,0.0,0.0,0.0,0.0,0.0,0.0,0.0,0.0,0.0,0.0,0.0,0.0,0.0,0.0,0.0,0.0,0.0,0.0,0.0,0.0,0.0,0.0,0.0,0.0,0.0,0.0,0.0,0.0,0.0,0.0,0.0,0.0,0.0,0.0,0.0,0.0,0.0,0.0,0.0,0.0,0.0,0.0,0.0,0.0,0.0,0.0,0.0,0.0,0.0,-3.1531,-3.1762,-3.1775,-3.2264,-3.2494,-3.244,-3.145,-3.0907,-3.0717,0.0,0.0,0.0,0.0,0.0,0.0,0.0,0.0,0.0,0.0,0.0,0.0,0.0,0.0,0.0,0.0,0.0,0.0,0.0,0.0,0.0,0.0,0.0,0.0,0.0,-3.0745,-3.0725,0.0,0.0,0.0,0.0,0.0,0.0,0.0,0.0,0.0,0.0,0.0,0.0,-3.0986,-3.0986,-3.0986,-3.0986,-3.0986,-3.0986,-3.0986,-3.0986,-3.0986,-3.0986,-3.0986,-3.0777,0.0,0.0,0.0,0.0,0.0,0.0,0.0,0.0,0.0,0.0,0.0,0.0,0.0,0.0,0.0,0.0,0.0,0.0,0.0,0.0,0.0,0.0,0.0,0.0,0.0,0.0,0.0,0.0,0.0,0.0,0.0,0.0,-2.878,-2.8651,0.0,0.0,0.0,0.0,0.0,0.0,0.0,0.0,0.0,0.0,0.0,0.0,0.0,0.0,-3.1938,-3.249,-3.2969,-3.3447,-3.3528,-3.3555,-3.3555,-3.3637,-3.3677,-3.3664,-3.3515,0.0,-3.1938,-3.1938,0.0,0.0,0.0,0.0,0.0,0.0,0.0,0.0,0.0,0.0,0.0,0.0,0.0,0.0,0.0,0.0,0.0,0.0,0.0,0.0,0.0,0.0,-3.0906,-3.0906,-3.0972,-3.0947,0.0,-3.0817,-3.0869,-3.0869,0.0,0.0,0.0,0.0,0.0,0.0,0.0,0.0,-3.0986,-3.0986,-3.0986,-3.0986,-3.0986,-3.0986,-3.0986,-3.0986,-3.0986,-3.0986,-3.0986,-3.0947,-3.0869,-3.0869,0.0,0.0,0.0,0.0,0.0,0.0,0.0,0.0,0.0,0.0,0.0,0.0,0.0,0.0,0.0,0.0,0.0,0.0,0.0,0.0,0.0,0.0,0.0,0.0,0.0,0.0,0.0,0.0,0.0,-2.8812,-2.8774,-2.9081,-2.9122,-2.9224,0.0,0.0,0.0,0.0,0.0,0.0,0.0,0.0,0.0,-3.2349,-3.262,-3.3064,-3.3661,-3.3932,-3.4353,-3.4897,-3.4897,-3.4897,-3.4897,-3.4897,-3.4897,-3.4897,-3.4897,-3.4461,-3.3647,-3.3308,-3.2983,-3.2721,0.0,0.0,0.0,0.0,-3.2218,-3.2205,-3.23,-3.2322,0.0,0.0,0.0,0.0,0.0,0.0,0.0,0.0,0.0,0.0,0.0,0.0,0.0,-3.1862,-3.1954,-3.1954,-3.1954,-3.1954,-3.1757,0.0,-3.0986,-3.1091,-3.1418,0.0,0.0,0.0,0.0,0.0,-3.1418,-3.147,-3.1588,-3.1914,-3.1653,-3.147,-3.147,-3.1169,-3.0986,-3.0986,-3.0986,-3.0986,-3.0986,-3.0986,-3.0869,0.0,0.0,0.0,0.0,0.0,0.0,0.0,0.0,0.0,0.0,0.0,0.0,0.0,0.0,0.0,0.0,0.0,0.0,0.0,0.0,0.0,0.0,0.0,0.0,0.0,0.0,0.0,0.0,-2.8817,-2.9034,-2.9678,-2.9713,-2.9903,0.0,0.0,0.0,0.0,0.0,0.0,-3.2589,-3.2779,-3.3254,-3.4111,-3.4287,-3.4639,-3.5236,-3.5249,-3.5547,-3.6144,-3.6144,-3.6144,-3.6144,-3.6144,-3.6144,-3.6144,-3.6144,-3.5886,-3.5412,-3.4504,-3.3786,-3.3295,-3.3295,-3.3023,-3.263,-3.263,-3.263,-3.2667,-3.275,-3.2773,-3.2786,-3.274,0.0,-3.2482,-3.2073,0.0,0.0,0.0,0.0,-3.1522,-3.1954,-3.2019,-3.2124,-3.2594,-3.2685,-3.2685,-3.2685,-3.2685,-3.2437,0.0,-3.1418,-3.1548,-3.1941,0.0,0.0,0.0,0.0,-3.1575,-3.1967,-3.2019,-3.2215,-3.2646,-3.2319,-3.2019,-3.2019,-3.1535,-3.1209,-3.1209,-3.1065,-3.0986,-3.0986,-3.0986,-3.0986,-3.0986,0.0,0.0,0.0,0.0,0.0,0.0,0.0,0.0,0.0,0.0,0.0,0.0,0.0,0.0,0.0,0.0,0.0,0.0,0.0,0.0,0.0,0.0,0.0,0.0,0.0,0.0,0.0,0.0,0.0,-3.0283,-3.0364,0.0,0.0,0.0,0.0,-3.2123,-3.3094,-3.3758,-3.3813,-3.4355,-3.4694,-3.4748,-3.529,-3.5913,-3.6497,-3.651,-3.6822,-3.7404,-3.7404,-3.7404,-3.7404,-3.7404,-3.7404,-3.7404,-3.7404,-3.7377,-3.7228,-3.5466,-3.4395,-3.3867,-3.3867,-3.384,-3.3813,-3.3813,-3.3813,-3.3826,-3.3813,-3.3813,-3.3851,-3.4042,-3.3865,-3.3428,-3.3065,-3.2791,0.0,0.0,-3.2607,-3.2607,-3.2646,-3.2646,-3.2659,-3.2685,-3.2685,-3.2685,-3.2685,-3.2685,-3.2672,0.0,-3.2607,-3.262,-3.2646,0.0,-3.262,-3.2646,-3.262,-3.262,-3.2646,-3.2646,-3.2659,-3.2685,-3.2659,-3.2646,-3.2646,-3.2084,-3.1758,-3.1758,-3.1287,-3.0986,-3.0986,-3.0986,-3.0986,-3.0986,-3.096,0.0,0.0,0.0,0.0,0.0,0.0,0.0,0.0,0.0,0.0,0.0,0.0,0.0,0.0,0.0,0.0,0.0,0.0,0.0,0.0,0.0,0.0,0.0,0.0,0.0,0.0,0.0,0.0,-3.1436,-3.1544,0.0,0.0,-3.3027,-3.3471,-3.3851,-3.4233,-3.4816,-3.5615,-3.5859,-3.6157,-3.6523,-3.674,-3.7175,-3.7758,-3.7772,-3.807,-3.8667,-3.8667,-3.8667,-3.8667,-3.8667,-3.8667,-3.8667,-3.8667,-3.845,-3.8014,-3.7363,-3.651,-3.5655,-3.5655,-3.5385,-3.5046,-3.5046,-3.5046,-3.5046,-3.4887,-3.4847,-3.4807,-3.462,-3.4325,-3.4082,-3.3947,-3.3865,-3.3783,-3.3783,-3.3783,-3.3875,-3.4267,-3.4371,-3.445,-3.4803,-3.4894,-3.4894,-3.4894,-3.4894,-3.4894,-3.4894,-3.3692,-3.2816,-3.3208,-3.2947,-3.2829,-3.3208,-3.2947,-3.2829,-3.3221,-3.3273,-3.3404,-3.3757,-3.3483,-3.3273,-3.3273,-3.2725,-3.2385,-3.2385,-3.1849,-3.1497,-3.1497,-3.1182,-3.0986,-3.0986,-3.0986,-3.0882,0.0,0.0,0.0,0.0,0.0,0.0,0.0,0.0,0.0,0.0,0.0,0.0,0.0,0.0,0.0,0.0,0.0,0.0,0.0,0.0,0.0,0.0,0.0,0.0,0.0,0.0,-3.145,-3.263,-3.2955,-3.3376,-3.4124,-3.4572,-3.4965,-3.5358,-3.5588,-3.6049,-3.6877,-3.7107,-3.7406,-3.777,-3.7987,-3.8315,-3.8708,-3.8708,-3.8912,-3.9305,-3.9305,-3.9305,-3.9305,-3.9305,-3.9305,-3.9305,-3.9305,-3.9074,-3.8708,-3.8708,-3.8247,-3.7473,-3.7066,-3.6673,-3.6334,-3.6334,-3.6334,-3.6293,-3.6087,-3.6004,-3.5921,-3.5462,-3.521,-3.5112,-3.5015,-3.4972,-3.4972,-3.4972,-3.4972,-3.5064,-3.5469,-3.5574,-3.5652,-3.6018,-3.6109,-3.6109,-3.6109,-3.6109,-3.6109,-3.6109,-3.4724,-3.3692,-3.4097,-3.3666,-3.3404,-3.3809,-3.3522,-3.3417,-3.3809,-3.3862,-3.4005,-3.4358,-3.4071,-3.3862,-3.3862,-3.3326,-3.2999,-3.2999,-3.245,-3.2006,-3.181,-3.147,-3.1182,-3.0986,-3.0986,-3.0986,-3.0986,0.0,0.0,0.0,0.0,0.0,0.0,0.0,0.0,0.0,0.0,0.0,0.0,0.0,0.0,0.0,0.0,0.0,0.0,0.0,0.0,0.0,0.0,0.0,-3.23,-3.2259,-3.2698,-3.3826,-3.449,-3.4856,-3.487,-3.5954,-3.6632,-3.6659,-3.7216,-3.7526,-3.7553,-3.8095,-3.845,-3.845,-3.902,-3.9332,-3.9332,-3.9346,-3.9359,-3.9359,-3.9359,-3.9346,-3.9332,-3.9332,-3.9319,-3.9305,-3.9305,-3.9305,-3.9305,-3.9305,-3.9305,-3.9183,-3.7987,-3.7553,-3.7553,-3.7553,-3.754,-3.7497,-3.7297,-3.7254,-3.7169,-3.6667,-3.6537,-3.6494,-3.6249,-3.6162,-3.6162,-3.6162,-3.6162,-3.6162,-3.6162,-3.6162,-3.6162,-3.6162,-3.6162,-3.6162,-3.6162,-3.6162,-3.6162,-3.6162,-3.5717,-3.5338,-3.5325,-3.4842,-3.445,-3.445,-3.445,0.0,-3.445,-3.4437,-3.4424,-3.4424,-3.441,-3.4397,-3.4397,-3.3914,-3.3613,-3.3613,-3.3051,-3.2476,-3.1876,-3.1836,-3.1549,-3.1026,-3.0999,-3.0986,-3.0986,0.0,0.0,0.0,0.0,0.0,0.0,0.0,0.0,0.0,0.0,0.0,0.0,0.0,0.0,0.0,0.0,0.0,0.0,0.0,0.0,0.0,0.0,-3.3349,-3.2354,-3.3295,-3.4341,-3.51,-3.575,-3.6293,-3.6699,-3.7038,-3.7418,-3.7881,-3.8084,-3.8355,-3.879,-3.8966,-3.9061,-3.9061,-3.9631,-3.9943,-3.9943,-4.039,-4.0621,-4.0621,-4.0621,-4.0377,-3.9943,-3.9943,-3.9699,-3.9305,-3.9305,-3.9305,-3.9305,-3.9305,-3.9305,-3.9278,-3.8939,-3.8817,-3.8817,-3.8817,-3.8671,-3.8482,-3.8287,-3.8109,-3.7873,-3.7584,-3.7507,-3.7507,-3.7416,-3.7416,-3.7416,-3.7416,-3.7416,-3.7416,-3.7416,-3.7416,-3.7416,-3.7416,-3.7416,-3.7416,-3.7416,-3.7416,-3.7416,-3.7416,-3.6933,-3.6397,-3.5966,-3.5744,-3.5639,-3.5639,-3.5639,0.0,-3.5639,-3.5299,-3.5051,-3.5051,-3.4659,-3.4397,-3.4397,-3.4254,-3.4175,-3.4175,-3.3652,-3.3273,-3.3117,-3.2698,-3.2189,-3.1575,-3.1196,-3.0986,0.0,0.0,0.0,0.0,0.0,0.0,0.0,0.0,0.0,0.0,0.0,0.0,0.0,0.0,0.0,0.0,0.0,0.0,0.0,0.0,0.0,0.0,-3.4043,-3.449,-3.4095,-3.4923,-3.5805,-3.6361,-3.6999,-3.7501,-3.7824,-3.8095,-3.8423,-3.8762,-3.879,-3.8939,-3.9278,-3.9536,-3.9671,-3.9671,-4.0255,-4.058,-4.058,-4.0933,-4.1123,-4.1123,-4.1123,-4.0933,-4.058,-4.058,-4.039,0.0,-3.9794,-3.9671,-3.9658,-3.94,-3.9305,0.0,0.0,0.0,0.0,0.0,-3.9056,-3.8863,-3.853,-3.8349,-3.8167,-3.7979,-3.79,-3.79,-3.79,-3.79,-3.79,-3.79,-3.79,-3.79,-3.79,-3.79,-3.79,-3.79,-3.79,-3.79,-3.79,-3.79,-3.79,-3.79,-3.7625,0.0,-3.692,-3.6436,-3.6109,-3.6109,-3.6109,-3.6109,-3.6109,-3.5822,-3.5639,-3.5639,-3.5325,-3.5012,-3.4789,-3.4776,0.0,0.0,0.0,-3.3822,-3.36,-3.3012,0.0,0.0,0.0,-3.1352,-3.1339,0.0,0.0,0.0,-3.083,-3.0671,0.0,0.0,0.0,0.0,0.0,0.0,0.0,0.0,0.0,0.0,0.0,0.0,0.0,0.0,0.0,0.0,-3.5439,-3.6117,-3.6727,-3.6863,-3.708,-3.754,-3.8109,-3.8518,-3.8518,-3.8993,-3.9305,-3.9305,-3.9305,-3.9332,-3.94,0.0,0.0,0.0,0.0,-4.1218,-4.1218,-4.1286,-4.1313,-4.1313,-4.1313,-4.1286,-4.1218,-4.1218,-4.1177,-4.1096,-4.0526,-4.0255,-4.0146,-3.9617,-3.9359,-3.9305,-3.9305,-3.9305,-3.9247,-3.9011,-3.8908,-3.8819,-3.8381,0.0,0.0,-3.7979,-3.79,-3.79,-3.79,-3.79,-3.79,-3.79,-3.79,-3.79,-3.79,-3.79,-3.79,-3.79,-3.79,-3.79,-3.79,-3.79,-3.79,-3.79,-3.79,-3.79,-3.79,-3.7011,-3.6305,-3.6305,-3.6305,-3.6305,-3.6305,-3.624,-3.6201,-3.6201,0.0,0.0,-3.543,-3.5391,-3.5142,-3.4541,-3.4437,-3.4188,-3.3705,-3.3104,-3.279,-3.279,-3.2228,-3.1902,-3.1902,-3.1418,-3.1169,-3.1169,-3.1052,-3.0986,0.0,0.0,0.0,0.0,0.0,0.0,0.0,0.0,0.0,0.0,0.0,0.0,0.0,0.0,0.0,-3.5412,-3.6428,-3.735,-3.7989,-3.8477,-3.8654,-3.8288,-3.8776,-3.9129,-3.9129,-3.9237,-3.9305,-3.9305,-3.9305,-3.9509,-3.9983,-4.0133,0.0,-4.092,-4.1517,-4.1842,-4.1842,-4.2304,-4.2548,-4.2548,0.0,0.0,-4.1842,-4.1842,-4.1571,-4.111,-4.0987,-4.0648,-4.0173,-4.0051,-3.9739,-3.9305,-3.9305,-3.9305,-3.9247,-3.9011,-3.8908,-3.8819,-3.8381,-3.82,-3.8167,-3.7979,-3.79,-3.79,-3.79,-3.79,0.0,-3.79,-3.79,-3.79,-3.79,-3.79,-3.79,-3.79,-3.79,-3.79,-3.79,-3.79,-3.79,-3.79,-3.79,-3.79,-3.79,-3.7704,-3.7547,-3.7547,-3.7547,-3.7547,-3.7547,-3.7129,-3.6828,-3.6828,-3.6397,-3.6057,-3.5953,-3.5953,-3.5704,-3.5155,-3.4672,-3.4345,-3.4241,-3.3705,-3.3417,-3.3417,-3.2829,-3.2529,-3.2529,-3.2411,-3.2359,-3.2346,-3.1418,-3.0986,0.0,0.0,0.0,0.0,0.0,0.0,0.0,0.0,0.0,0.0,0.0,-3.4475,0.0,0.0,-3.6333,-3.6971,-3.754,-3.8136,-3.8776,-3.9115,-3.9197,-3.8898,-3.9129,-3.9305,-3.9305,-3.9305,-3.9305,-3.9305,-3.9576,-3.9875,-4.016,-4.0757,-4.1232,-4.1557,-4.2141,-4.2439,-4.2439,-4.2738,-4.2887,-4.2887,-4.2887,-4.2724,-4.2439,-4.2439,-4.229,-4.1978,-4.1693,-4.1381,-4.1042,-4.0431,-3.992,-3.9532,-3.9222,-3.91,-3.9056,-3.8845,-3.8652,-3.8517,-3.8181,-3.8057,-3.8011,-3.7946,-3.79,-3.79,-3.79,-3.79,-3.79,-3.79,-3.79,-3.79,-3.79,-3.79,-3.79,-3.79,-3.79,-3.79,-3.79,-3.79,-3.79,-3.79,-3.79,-3.79,-3.79,-3.79,-3.79,-3.79,-3.79,-3.79,-3.79,-3.7639,-3.7456,-3.7456,-3.7181,-3.6881,-3.658,-3.6279,-3.5992,-3.5717,-3.5168,-3.4842,-3.4842,-3.4293,-3.3992,-3.3992,-3.343,-3.3143,-3.3143,-3.2842,-3.2685,-3.2672,-3.211,-3.1836,0.0,0.0,0.0,0.0,0.0,0.0,0.0,0.0,-3.4111,-3.4233,-3.51,-3.5927,-3.6049,-3.6916,-3.7811,-3.8342,-3.8518,-3.8749,-3.9237,-3.9305,-3.9305,-3.9305,-3.9305,-3.9305,-3.9305,-3.9305,-3.9305,-3.9305,-3.9848,-4.0241,-4.0363,-4.1408,-4.2059,-4.2168,-4.2643,-4.2887,-4.2887,-4.2887,-4.2887,-4.2887,-4.2887,-4.2887,-4.2887,-4.2887,-4.2887,-4.286,-4.2263,-4.2005,-4.191,-4.0689,-4.0051,-3.9814,-3.915,-3.8863,-3.8832,-3.8589,-3.8408,-3.8167,-3.7979,-3.79,-3.79,-3.79,-3.79,-3.79,-3.79,-3.79,-3.79,-3.79,-3.79,-3.79,-3.79,-3.79,-3.79,-3.79,-3.79,-3.79,-3.79,-3.79,-3.79,-3.79,-3.79,-3.79,-3.79,-3.79,-3.79,-3.79,-3.79,-3.79,-3.79,-3.79,-3.79,-3.79,-3.79,-3.7704,-3.722,-3.6619,-3.6279,-3.6279,-3.5757,-3.5404,-3.5299,-3.4829,-3.4515,-3.4397,-3.3966,-3.3744,-3.3744,-3.326,-3.3025,-3.3025,-3.3025,-3.2908,-3.2055,-3.2164,-3.2246,-3.2762,-3.3006,-3.3237,0.0,0.0,-3.4843,-3.5371,-3.6035,-3.6673,-3.7187,-3.7824,-3.8342,-3.841,-3.8857,-3.9224,-3.9292,-3.9305,-3.9305,-3.9305,-3.9305,-3.9305,-3.9305,-3.9305,-3.9305,-3.9305,-3.9848,-4.0431,-4.0987,-4.1639,-4.2249,-4.2765,-4.2846,-4.2887,-4.2887,-4.2887,-4.2887,-4.2887,-4.2887,-4.2887,-4.2887,-4.2887,-4.2887,-4.286,-4.2263,-4.2005,-4.191,-4.0689,-4.0187,-4.0074,-3.924,-3.8787,-3.8589,-3.8349,-3.8213,-3.8167,-3.7979,-3.79,-3.79,-3.79,-3.79,-3.79,-3.79,-3.79,-3.79,-3.79,-3.79,-3.79,-3.79,-3.79,-3.79,-3.79,-3.79,-3.79,-3.79,-3.79,-3.79,-3.79,-3.79,-3.79,-3.79,-3.79,-3.79,-3.79,-3.79,-3.79,-3.79,-3.79,-3.79,-3.79,-3.79,-3.7874,-3.7808,-3.7246,-3.6907,-3.6907,-3.6345,-3.5796,-3.5312,-3.5234,-3.4946,-3.441,-3.4332,-3.4306,-3.4306,-3.4241,-3.4201,-3.4201,-3.4201,-3.3666,-3.2477,-3.2942,0.0,0.0,-3.4095,-3.4665,-3.4883,-3.5683,-3.6428,-3.6686,-3.7243,-3.7731,-3.8003,-3.8532,-3.8925,0.0,-3.9142,-3.9305,-3.9305,-3.9305,-3.9305,-3.9305,-3.9305,-3.9305,-3.9305,-3.9305,-3.9305,-3.9305,-4.0187,-4.0838,-4.111,-4.2019,-4.2629,-4.2873,-4.2887,-4.2887,-4.2887,-4.2887,-4.2887,-4.2887,-4.2887,-4.2887,-4.2887,-4.2887,-4.2887,-4.2873,-4.2629,-4.2521,-4.2453,-4.1598,-4.0935,-4.0418,-3.9583,-3.8882,-3.8349,-3.8258,-3.8135,-3.8011,-3.7946,-3.79,-3.79,-3.79,-3.79,-3.79,-3.79,-3.79,-3.79,-3.79,-3.79,-3.79,-3.79,-3.79,-3.79,-3.79,-3.79,-3.79,-3.79,-3.79,-3.79,-3.79,-3.79,-3.79,-3.79,-3.79,-3.79,-3.79,-3.79,-3.79,-3.79,-3.79,-3.79,-3.79,-3.79,-3.79,-3.79,-3.7678,-3.7521,-3.7521,-3.6959,-3.6528,-3.6305,-3.5953,-3.5495,-3.4933,-3.492,-3.475,-3.4397,-3.4397,-3.4397,-3.4397,-3.4397,-3.4136,-3.3078,0.0,0.0,-3.4355,-3.5168,-3.6008,-3.6171,-3.6984,-3.7743,-3.7743,-3.8247,-3.8667,-3.8667,-3.902,0.0,-3.9305,-3.9305,-3.9305,-3.9305,-3.9305,-3.9305,-3.9305,-3.9305,-3.9305,-3.9305,-3.9305,-3.9305,-3.9305,-4.0431,-4.1123,-4.1123,-4.2236,-4.2887,-4.2887,-4.2887,-4.2887,-4.2887,-4.2887,-4.2887,-4.2887,-4.2887,-4.2887,-4.2887,-4.2887,-4.2887,-4.2887,-4.2887,-4.2887,-4.2833,-4.2249,-4.1639,-4.0978,-3.9993,-3.9156,-3.8529,-3.8311,-3.8044,-3.79,-3.79,-3.79,-3.79,-3.79,-3.79,-3.79,-3.79,-3.79,-3.79,-3.79,-3.79,-3.79,-3.79,-3.79,-3.79,-3.79,-3.79,-3.79,-3.79,-3.79,-3.79,-3.79,-3.79,-3.79,-3.79,-3.79,-3.79,-3.79,-3.79,-3.79,-3.79,-3.79,-3.79,-3.79,-3.79,-3.79,-3.79,-3.79,-3.79,-3.79,-3.7495,-3.7168,-3.7011,-3.658,-3.6083,-3.5534,-3.5521,-3.5234,-3.4646,-3.4646,-3.4554,-3.4397,-3.4397,-3.4397,0.0,0.0,-3.4897,-3.552,-3.6117,-3.6727,-3.7296,-3.7948,-3.8383,-3.8383,-3.8857,-3.9278,-3.9278,-3.9292,-3.9305,-3.9305,-3.9305,-3.9305,-3.9305,-3.9305,-3.9305,-3.9305,-3.9305,-3.9305,0.0,-3.9305,-3.9305,-3.9305,-4.0431,-4.1123,-4.1123,-4.2236,-4.2887,-4.2887,-4.2887,-4.2887,-4.2887,-4.2887,-4.2887,-4.2887,-4.2887,-4.2887,-4.2887,-4.2887,-4.2887,-4.2887,-4.2887,-4.2887,-4.2833,-4.2249,-4.1991,-4.1808,-4.0385,-3.9639,-3.9375,-3.8502,-3.8044,-3.79,-3.79,-3.79,-3.79,-3.79,-3.79,-3.79,-3.79,-3.79,-3.79,-3.79,-3.79,-3.79,-3.79,-3.79,-3.79,-3.79,-3.79,-3.79,-3.79,-3.79,-3.79,-3.79,-3.79,-3.79,-3.79,-3.79,-3.79,-3.79,-3.79,-3.79,-3.79,-3.79,-3.79,-3.79,-3.79,-3.79,-3.79,-3.79,-3.79,-3.79,-3.7887,-3.7612,-3.7024,-3.6985,-3.6698,-3.6096,-3.6083,-3.5809,-3.5273,-3.5273,-3.4972,-3.4397,-3.4397,-3.4397,0.0,0.0,-3.6157,-3.6726,-3.7365,-3.7867,-3.8027,-3.8572,-3.9007,-3.9007,-3.9169,-3.9305,-3.9305,-3.9305,-3.9305,-3.9305,-3.9305,-3.9305,-3.9305,-3.9305,-3.9305,-3.9305,-3.9305,0.0,0.0,0.0,0.0,-3.9861,-4.0648,-4.1286,-4.1693,-4.2453,-4.2887,-4.2887,-4.2887,-4.2887,-4.2887,-4.2887,-4.2887,-4.2887,-4.2887,-4.2887,-4.2887,-4.2887,-4.2887,-4.2887,-4.2887,-4.2887,-4.2873,-4.267,-4.2358,-4.1917,-4.1072,-4.0241,-3.9395,-3.8767,-3.8247,-3.79,-3.79,-3.79,-3.79,-3.79,-3.79,-3.79,-3.79,-3.79,-3.79,-3.79,-3.79,-3.79,-3.79,-3.79,-3.79,-3.79,-3.79,-3.79,-3.79,-3.79,-3.79,-3.79,-3.79,-3.79,-3.79,-3.79,-3.79,-3.79,-3.79,-3.79,-3.79,-3.79,-3.79,-3.79,-3.79,-3.79,-3.79,-3.79,-3.79,-3.79,-3.79,-3.7808,-3.7612,-3.7599,-3.7312,-3.6711,-3.6698,-3.641,-3.5835,-3.5835,-3.5547,-3.4999,-3.4999,-3.4776,-3.5818,-3.6632,-3.7351,-3.7702,-3.8301,-3.8735,-3.8735,-3.902,-3.9305,-3.9305,-3.9305,-3.9305,-3.9305,-3.9305,-3.9305,-3.9305,-3.9305,-3.9305,-3.9305,-3.9305,-3.9305,-3.9305,-3.9305,0.0,0.0,0.0,0.0,-4.0133,-4.077,-4.1381,-4.1978,-4.2561,-4.2887,-4.2887,-4.2887,-4.2887,-4.2887,-4.2887,-4.2887,-4.2887,-4.2887,-4.2887,-4.2887,-4.2887,-4.2887,-4.2887,-4.2887,-4.2887,-4.2887,-4.279,-4.2525,-4.2112,-4.1451,-4.0699,-3.9879,-3.9325,-3.8705,-3.8161,-3.7965,-3.79,-3.79,-3.79,-3.79,-3.79,-3.79,-3.79,-3.79,-3.79,-3.79,-3.79,-3.79,-3.79,-3.79,-3.79,-3.8148,-3.8349,-3.8349,-3.8349,-3.8349,-3.8349,-3.8103,-3.79,-3.79,-3.79,-3.79,-3.79,-3.79,-3.79,-3.79,-3.79,-3.79,-3.79,-3.79,-3.79,-3.79,-3.79,-3.79,-3.79,-3.79,-3.79,-3.79,-3.79,-3.773,-3.7338,-3.7325,-3.7024,-3.6423,-3.6423,-3.6136,-3.5587,-3.5587,-3.5273,-3.6632,-3.7514,-3.8423,-3.845,-3.8884,-3.9305,-3.9305,-3.9278,-3.9251,-3.9251,-3.9237,-3.9224,0.0,0.0,-3.9264,-3.9292,-3.9305,-3.9305,-3.9305,-3.9305,-3.9305,0.0,0.0,0.0,0.0,0.0,0.0,-4.0187,0.0,-4.1394,-4.2019,-4.2588,-4.2887,-4.2887,-4.2887,-4.2887,-4.2887,-4.2887,-4.2887,-4.2887,-4.2887,-4.2887,-4.2887,-4.2887,-4.2887,-4.2887,-4.2887,-4.2887,-4.2887,-4.2595,-4.2511,-4.2395,-4.1576,-4.1046,-4.0711,-4.0144,-3.9436,-3.8684,-3.8174,-3.7952,-3.79,-3.79,-3.79,-3.79,-3.79,-3.79,-3.79,-3.79,-3.79,-3.79,-3.7946,-3.7992,-3.7992,-3.8024,-3.8684,-3.9285,-3.9285,-3.9285,-3.9241,-3.921,-3.8517,-3.79,-3.79,-3.79,-3.79,-3.79,-3.79,-3.79,-3.79,-3.79,-3.79,-3.79,-3.79,-3.79,-3.79,-3.79,-3.79,-3.79,-3.7946,-3.7946,-3.79,-3.7946,-3.7946,-3.79,-3.79,-3.7625,-3.705,-3.705,-3.6737,-3.6149,-3.6149,-3.5861,-3.7011,-3.7797,-3.8532,-3.8966,-3.9197,-3.9305,-3.9305,-3.8952,-3.864,-3.864,-3.8288,-3.8082,0.0,0.0,0.0,-3.9237,-3.9305,0.0,-3.9305,-3.9305,0.0,0.0,0.0,-3.9305,-3.9305,-3.9699,0.0,0.0,-4.1028,-4.1571,-4.2602,-4.2806,-4.2887,-4.2887,-4.2887,-4.2887,-4.2887,-4.2887,-4.2887,-4.2887,-4.2887,-4.2887,-4.2887,-4.2887,-4.2887,-4.2887,-4.2887,-4.2887,-4.2887,-4.2595,-4.2511,-4.2435,-4.1834,-4.1271,-4.0764,-4.0398,-3.9895,-3.9364,-3.922,-3.8619,-3.79,-3.79,-3.79,-3.79,-3.79,-3.79,-3.79,-3.79,-3.79,-3.807,-3.8715,-3.8881,-3.906,-3.9752,-4.0087,-4.0246,-4.0246,-4.0246,-4.0029,-3.9329,-3.8517,-3.79,-3.79,-3.79,-3.79,-3.79,-3.79,-3.79,-3.79,-3.79,-3.79,-3.79,-3.79,-3.79,-3.79,-3.79,-3.79,-3.79,-3.8517,-3.8594,-3.7946,-3.8517,-3.8549,-3.79,-3.79,-3.7835,-3.7678,-3.7678,-3.7364,-3.6776,-3.6776,-3.6462,-3.7621,-3.8355,-3.8884,-3.9224,-3.9305,-3.9305,-3.9305,-3.8844,-3.8423,-3.8423,-3.7905,0.0,0.0,0.0,0.0,0.0,0.0,0.0,-3.9264,-3.9305,-3.9305,0.0,-3.9305,0.0,-3.9305,-3.9848,-4.0445,0.0,-4.1367,-4.191,-4.2833,-4.2887,-4.2887,-4.2887,-4.2887,-4.2887,-4.2887,-4.2887,-4.2887,-4.2887,-4.2887,-4.2887,-4.2887,-4.2887,-4.2887,-4.2887,0.0,-4.2887,-4.2887,-4.2484,-4.2338,-4.2289,-4.1746,-4.1314,-4.1025,-4.0864,-4.0448,-3.9965,-3.9965,-3.9207,-3.8253,-3.8253,-3.8096,-3.79,-3.79,-3.79,-3.79,-3.79,-3.79,-3.8103,-3.8957,-3.921,-3.9417,-4.0375,-4.0901,-4.1212,-4.1212,-4.1212,-4.0944,-3.9986,-3.9401,-3.9087,-3.9087,-3.8729,-3.8472,-3.8472,-3.8148,-3.79,-3.79,-3.79,-3.79,-3.79,-3.79,-3.79,-3.79,-3.79,-3.79,-3.79,-3.8349,-3.8395,-3.79,-3.8349,-3.8395,-3.79,-3.79,-3.79,-3.79,-3.79,-3.773,-3.7403,-3.7403,-3.7077,-3.826,-3.8844,-3.9305,-3.9305,-3.9237,-3.9183,-3.9183,-3.8654,-3.8179,-3.8179,0.0,-3.7268,-3.735,0.0,-3.7567,-3.8163,0.0,-3.86,-3.9115,-3.9251,-3.9305,-3.9305,-3.9305,-3.9332,-3.9414,-3.9956,-4.0567,-4.1191,-4.1788,-4.2344,-4.286,-4.2887,-4.2887,-4.2887,-4.2887,-4.2887,-4.2887,-4.2887,-4.2887,-4.2887,-4.2887,-4.2887,-4.2887,-4.2887,-4.2887,-4.2887,0.0,0.0,-4.2887,-4.2387,-4.2128,-4.2029,-4.1547,-4.1311,-4.1311,-4.1311,-4.0984,-4.054,-4.054,-3.9782,-3.8815,-3.8736,-3.8344,-3.79,-3.79,-3.79,-3.79,-3.79,-3.79,-3.8148,-3.9135,-3.9373,-3.9637,-4.0717,-4.1589,-4.2155,-4.2155,-4.2073,-4.1769,-4.0944,-4.0689,-4.0546,-4.0418,-3.9855,-3.9329,-3.9197,-3.8639,-3.8239,-3.8239,-3.8024,-3.79,-3.79,-3.79,-3.7946,-3.807,-3.7992,-3.7992,-3.8239,-3.8148,-3.807,-3.807,-3.807,-3.8024,-3.79,-3.79,-3.79,-3.79,-3.79,-3.79,-3.79,-3.79,-3.7625,-3.826,-3.8844,-3.9305,-3.9305,-3.8939,-3.8572,-3.8572,-3.7704,0.0,0.0,0.0,-3.6171,-3.6673,-3.6768,0.0,-3.754,0.0,0.0,0.0,0.0,-3.9305,0.0,0.0,0.0,0.0,0.0,0.0,0.0,0.0,0.0,-4.2873,-4.2887,-4.2887,-4.2887,-4.2887,-4.2887,-4.2887,-4.2887,-4.2887,-4.2887,-4.2887,-4.2887,-4.2887,-4.2887,-4.2887,-4.2887,0.0,0.0,-4.2887,-4.2547,-4.2289,-4.2079,-4.1746,-4.1511,-4.1311,-4.1311,-4.1246,-4.1154,-4.1154,-4.0409,-3.9377,-3.8867,-3.8344,-3.79,-3.79,-3.79,-3.79,-3.79,-3.79,-3.8285,-3.9927,-4.0375,-4.076,-4.2441,-4.2955,-4.3076,-4.3076,-4.2496,-4.1949,-4.1769,-4.1113,-4.0332,-3.9593,-3.9942,-4.0073,-3.9329,-3.9738,-4.013,-4.013,-3.8832,-3.79,-3.79,-3.79,-3.8181,-3.8912,-3.8304,-3.853,-4.0057,-3.9387,-3.8957,-3.8957,-3.8957,-3.8639,-3.79,-3.79,-3.79,-3.79,-3.79,-3.79,-3.79,-3.79,-3.7848,-3.826,-3.8844,-3.9305,-3.9305,-3.8857,-3.8423,-3.8423,0.0,0.0,0.0,0.0,-3.5805,-3.609,0.0,0.0,0.0,0.0,0.0,0.0,0.0,0.0,0.0,0.0,0.0,0.0,0.0,0.0,0.0,0.0,0.0,-4.2887,-4.2887,-4.2887,-4.2887,-4.2887,-4.2887,-4.2887,-4.2887,-4.2887,-4.2887,-4.2887,-4.2887,-4.2887,-4.2887,-4.2887,-4.2887,-4.2887,0.0,-4.2887,-4.2435,-4.2239,-4.2079,-4.1647,-4.1411,-4.1311,-4.1311,-4.1311,-4.1311,-4.1311,-4.0566,-3.956,-3.9272,-3.8606,-3.79,-3.79,-3.79,-3.7979,-3.8427,-3.8594,-3.8984,-4.0873,-4.1338,-4.1672,-4.2996,-4.329,-4.329,-4.329,-4.2955,-4.2659,-4.2659,-4.2304,-4.1879,-4.1393,-4.1323,-4.1169,-4.0731,-4.0646,-4.0603,-4.0603,-3.9839,-3.9295,-3.9295,-3.9295,-3.9458,-3.9899,-3.9533,-3.9678,-4.056,-4.0159,-3.9724,-3.9197,-3.9681,-3.9475,-3.8594,-3.9073,-3.9073,-3.8594,-3.8594,-3.8349,-3.79,-3.8349,-3.8594,-3.803,-3.8559,-3.8925,-3.8925,-3.8477,-3.803,-3.803,-3.7189,0.0,0.0,-3.6035,-3.571,-3.571,0.0,0.0,0.0,0.0,0.0,0.0,0.0,0.0,0.0,0.0,0.0,0.0,0.0,0.0,0.0,0.0,0.0,-4.2887,-4.2887,-4.2887,-4.2887,-4.2887,-4.2887,-4.2887,-4.2887,-4.2887,-4.2887,-4.2887,-4.2887,-4.2887,-4.2887,-4.2887,-4.2887,-4.2887,0.0,0.0,-4.2387,-4.2128,-4.198,-4.1547,-4.1361,-4.1311,-4.1311,-4.1311,-4.1298,-4.1167,-4.0461,-3.9634,-3.968,-3.8911,-3.79,-3.79,-3.8024,-3.8304,-3.9002,-3.9329,-3.9899,-4.1561,-4.199,-4.2196,-4.3076,-4.329,-4.329,-4.329,-4.329,-4.329,-4.329,-4.329,-4.325,-4.3036,-4.2618,-4.2211,-4.2032,-4.1547,-4.1197,-4.1197,-4.1197,-4.1197,-4.1197,-4.0802,-4.0689,-4.0901,-4.0731,-4.0774,-4.1155,-4.0802,-4.0375,-3.9812,-4.0289,-4.0246,-3.9505,-4.0202,-4.0246,-3.9505,-3.9285,-3.8836,-3.8194,-3.8881,-3.921,-3.7255,-3.7607,-3.7662,-3.7662,-3.7229,-3.6768,-3.6768,0.0,0.0,-3.5791,-3.575,-3.571,-3.571,-3.571,0.0,0.0,0.0,0.0,0.0,0.0,0.0,0.0,0.0,0.0,0.0,0.0,0.0,0.0,0.0,0.0,0.0,-4.2887,-4.2887,-4.2887,-4.2887,-4.2887,-4.2887,-4.2887,-4.2887,-4.2887,-4.2887,-4.2887,-4.2887,-4.2887,-4.2887,-4.2887,0.0,0.0,0.0,-4.2498,-4.2204,-4.1746,-4.1696,-4.1511,-4.1311,-4.1311,-4.1311,-4.1232,-4.0684,-4.0109,-3.9651,-3.9959,-3.9095,-3.79,-3.79,-3.8427,-3.9077,-3.9166,-3.9812,-4.0731,-4.1728,-4.199,-4.2196,-4.3076,-4.329,-4.329,-4.329,-4.329,-4.329,-4.329,-4.329,-4.3036,-4.2237,-4.2714,-4.2915,-4.2114,-4.2618,-4.3036,-4.3036,-4.3036,-4.3036,-4.3036,-4.1574,-4.0944,-4.1811,-4.1071,-4.1323,-4.2955,-4.1491,-4.0944,-4.1728,-4.0986,-4.0546,-4.0461,-4.0546,-4.0546,-4.0461,-3.9637,-3.9166,-3.9077,-3.9166,-3.921,-3.6348,-3.6943,-3.7485,-3.7485,-3.7066,-3.6605,-3.6605,0.0,0.0,-3.571,-3.571,-3.571,-3.571,-3.571,-3.571,0.0,0.0,0.0,0.0,0.0,0.0,0.0,0.0,0.0,0.0,0.0,0.0,0.0,0.0,0.0,0.0,-4.2887,-4.2887,-4.2887,-4.2887,-4.2887,-4.2887,-4.2887,-4.2887,-4.2887,-4.2887,-4.2887,-4.2887,-4.2887,-4.279,-4.2644,0.0,0.0,0.0,-4.2092,-4.1895,-4.1696,-4.1511,-4.1411,-4.1311,-4.1311,-4.1423,-4.159,-4.1336,-4.1019,-4.0791,-4.089,-4.0305,-3.9546,-3.9546,-3.9796,-4.0159,-4.0731,-4.1155,-4.1645,-4.2537,-4.2795,-4.2875,-4.321,-4.329,-4.329,-4.329,-4.329,-4.329,-4.329,-4.329,-4.321,-4.2835,-4.309,-4.317,-4.2835,-4.309,-4.329,-4.329,-4.329,-4.329,-4.329,-4.2659,-4.24,-4.2739,-4.2441,-4.2522,-4.325,-4.2603,-4.214,-4.199,-4.214,-4.1976,-4.1463,-4.1976,-4.1976,-4.1421,-4.1071,-4.0603,-4.0073,-4.0646,-4.0901,-3.5377,-3.5899,-3.6442,-3.6442,-3.6225,-3.6076,0.0,0.0,0.0,-3.571,-3.571,-3.571,-3.571,-3.571,-3.571,-3.571,0.0,-3.724,0.0,0.0,0.0,0.0,0.0,0.0,0.0,0.0,0.0,0.0,0.0,0.0,0.0,-4.2887,-4.2887,-4.2887,-4.2887,-4.2887,-4.2887,-4.2887,-4.2887,-4.2887,-4.2887,-4.2887,-4.2887,-4.2887,-4.2741,-4.2511,0.0,0.0,0.0,-4.2541,-4.2541,-4.2444,-4.2248,-4.2213,-4.2186,-4.1963,-4.205,-4.2186,-4.183,-4.1602,-4.1531,-4.1608,-4.1369,-4.1071,-4.1323,-4.1197,-4.1155,-4.1811,-4.2196,-4.2537,-4.313,-4.329,-4.329,-4.329,-4.329,-4.329,-4.329,-4.329,-4.329,-4.329,-4.329,-4.329,-4.329,-4.329,-4.329,-4.329,-4.329,-4.329,-4.329,-4.329,-4.329,-4.329,-4.329,-4.329,-4.329,-4.329,-4.329,-4.329,-4.329,-4.3036,-4.2415,-4.2955,-4.2996,-4.2415,-4.2996,-4.2996,-4.2374,-4.2114,-4.1645,-4.1029,-4.1686,-4.2155,-3.4351,-3.4241,-3.3948,-3.3948,-3.4382,-3.4816,0.0,0.0,0.0,-3.571,-3.571,-3.571,-3.571,-3.571,-3.571,-3.571,-3.6212,0.0,0.0,0.0,0.0,0.0,0.0,0.0,0.0,0.0,0.0,0.0,0.0,0.0,0.0,-4.2887,-4.2887,-4.2887,-4.2887,-4.2887,-4.2887,-4.2887,-4.2887,-4.2887,-4.2887,-4.2887,-4.2887,-4.2887,-4.2741,0.0,0.0,0.0,0.0,-4.428,-4.4499,-4.4266,-4.4266,-4.4266,-4.4195,-4.3532,-4.3262,-4.3125,-4.192,-4.1485,-4.1548,-4.1902,-4.199,-4.2155,-4.2996,-4.2659,-4.199,-4.199,-4.2618,-4.329,-4.329,-4.329,-4.329,-4.329,-4.329,-4.329,-4.329,-4.329,-4.329,-4.329,-4.329,-4.329,-4.329,-4.329,-4.329,-4.329,-4.329,-4.329,-4.329,-4.329,-4.329,-4.329,-4.329,-4.329,-4.329,-4.329,-4.329,-4.329,-4.329,-4.329,-4.329,-4.3305,-4.329,-4.329,-4.329,-4.329,-4.329,-4.2415,-4.199,-4.199,-4.199,-4.2456,-3.3543,-3.4009,-3.4517,-3.4517,-3.4965,-3.5398,-3.5398,0.0,0.0,-3.571,-3.571,-3.571,-3.571,-3.571,-3.5764,-3.5938,-3.6429,0.0,0.0,0.0,0.0,0.0,0.0,0.0,0.0,0.0,0.0,0.0,0.0,0.0,0.0,0.0,-4.3553,-4.2935,-4.2887,-4.2887,-4.2887,-4.3553,-4.3553,-4.2887,-4.3553,-4.3871,-4.3871,-4.3871,0.0,0.0,0.0,0.0,0.0,-4.4766,-4.4858,-4.4766,-4.4766,-4.4418,-4.3853,-4.3669,-4.3316,-4.2912,-4.2525,-4.2545,-4.2761,-4.2854,-4.2875,-4.2955,-4.321,-4.313,-4.2875,-4.2875,-4.309,-4.329,-4.329,-4.329,-4.329,-4.329,-4.329,-4.329,-4.329,-4.329,-4.329,-4.329,-4.329,-4.329,-4.329,-4.329,-4.329,-4.329,-4.329,-4.329,-4.329,-4.329,-4.329,-4.329,-4.329,-4.329,-4.329,-4.329,-4.329,-4.329,-4.329,-4.329,-4.329,-4.329,-4.329,-4.329,-4.329,-4.329,-4.329,-4.3036,-4.2875,-4.2875,-4.2875,-4.3036,0.0,-3.3577,-3.4207,-3.4186,-3.4728,0.0,0.0,0.0,0.0,-3.571,-3.571,-3.571,-3.571,-3.571,-3.5804,-3.6072,-3.6373,0.0,0.0,0.0,0.0,0.0,0.0,0.0,0.0,0.0,0.0,0.0,0.0,0.0,0.0,0.0,-4.4045,-4.3471,-4.379,-4.3965,-4.3965,-4.4545,-4.4545,-4.4012,-4.4606,-4.4869,-4.4869,-4.4869,0.0,0.0,0.0,0.0,0.0,-4.6004,-4.6006,-4.5742,-4.5639,-4.5113,-4.4371,-4.4037,-4.3673,-4.3336,-4.3101,-4.3146,-4.329,-4.329,-4.329,-4.329,-4.329,-4.329,-4.329,-4.329,-4.329,-4.329,-4.329,-4.329,-4.329,-4.329,-4.329,-4.329,-4.329,-4.329,-4.329,-4.329,-4.329,-4.329,-4.329,-4.329,-4.329,-4.329,-4.329,-4.329,-4.329,-4.329,-4.329,-4.329,-4.329,-4.329,-4.329,-4.329,-4.329,-4.329,-4.329,-4.329,-4.329,-4.329,-4.329,-4.329,-4.329,-4.329,-4.329,-4.329,-4.329,-4.329,-4.329,-4.329,0.0,0.0,0.0,0.0,0.0,0.0,0.0,0.0,0.0,0.0,0.0,0.0,-3.571,-3.571,-3.5804,-3.6072,0.0,0.0,0.0,0.0,0.0,0.0,0.0,0.0,0.0,0.0,0.0,0.0,0.0,0.0,0.0,0.0,-4.4368,-4.4358,-4.5362,-4.587,-4.5779,-4.5869,-4.5869,-4.5779,-4.5869,-4.5913,-4.5913,-4.5913,0.0,0.0,0.0,0.0,0.0,-4.7561,-4.7566,-4.6891,-4.6664,-4.6117,-4.5428,-4.4623,-4.4287,-4.4152,-4.3499,-4.329,-4.329,-4.329,-4.329,-4.329,-4.329,-4.329,-4.329,-4.329,-4.329,-4.329,-4.329,-4.329,-4.329,-4.329,-4.329,-4.329,-4.329,-4.329,-4.329,-4.329,-4.329,-4.329,-4.329,-4.329,-4.329,-4.329,-4.329,-4.329,-4.329,-4.329,-4.329,-4.329,-4.329,-4.329,-4.329,-4.329,-4.329,-4.329,-4.329,-4.329,-4.329,-4.329,-4.329,-4.329,-4.329,-4.329,-4.329,-4.329,-4.329,-4.329,-4.329,-4.329,-3.3129,0.0,-3.3133,-3.3098,-3.3927,0.0,0.0,0.0,0.0,0.0,0.0,0.0,0.0,0.0,0.0,0.0,0.0,0.0,0.0,0.0,0.0,0.0,0.0,0.0,0.0,0.0,0.0,0.0,0.0,0.0,0.0,0.0,-4.5084,-4.4775,-4.6202,-4.6567,-4.5824,-4.6491,-4.6491,-4.5824,-4.6535,-4.6886,-4.6886,-4.6886,0.0,0.0,0.0,0.0,-4.7118,-4.7357,-4.6976,-4.6219,-4.6163,-4.5632,-4.4881,-4.469,-4.4123,-4.3499,-4.3349,-4.329,-4.329,-4.329,-4.329,-4.329,-4.329,-4.329,-4.329,-4.329,-4.329,-4.329,-4.329,-4.329,-4.329,-4.329,-4.329,-4.329,-4.329,-4.329,-4.329,-4.329,-4.329,-4.329,-4.329,-4.329,-4.329,-4.329,-4.329,-4.329,-4.329,-4.329,-4.329,-4.329,-4.329,-4.329,-4.329,-4.329,-4.329,-4.329,-4.329,-4.329,-4.329,-4.329,-4.329,-4.329,-4.329,-4.329,-4.329,-4.329,-4.329,-4.329,-4.329,-4.329,-3.3479,-3.3487,-3.3465,-3.3574,-3.4122,-3.476,-3.5112,0.0,0.0,0.0,0.0,0.0,0.0,0.0,0.0,0.0,0.0,0.0,0.0,0.0,0.0,0.0,0.0,0.0,0.0,0.0,0.0,0.0,0.0,0.0,0.0,0.0,-4.5029,-4.4899,-4.6172,-4.6603,-4.6164,-4.6686,-4.6686,-4.6164,-4.6686,-4.691,-4.691,-4.691,0.0,0.0,0.0,0.0,-4.6819,-4.6819,-4.6316,-4.5561,-4.5561,-4.5006,-4.4218,-4.4083,-4.3723,-4.329,-4.329,-4.329,-4.329,-4.329,-4.329,-4.329,-4.329,-4.329,-4.329,-4.329,-4.329,-4.329,-4.329,-4.329,-4.329,-4.329,-4.329,-4.329,-4.329,-4.329,-4.329,-4.329,-4.329,-4.329,-4.329,-4.329,-4.329,-4.329,-4.329,-4.329,-4.329,-4.329,-4.329,-4.329,-4.329,-4.329,-4.329,-4.329,-4.329,-4.329,-4.329,-4.329,-4.329,-4.329,-4.329,-4.329,-4.329,-4.329,-4.329,-4.329,-4.329,-4.329,-4.329,-4.329,-3.3805,-3.3805,-3.3795,-3.4029,-3.4288,-3.4679,-3.5381,0.0,0.0,0.0,0.0,0.0,0.0,0.0,0.0,0.0,0.0,0.0,0.0,0.0,0.0,0.0,0.0,0.0,0.0,0.0,0.0,0.0,0.0,0.0,0.0,0.0,0.0,-4.4795,-4.5667,-4.6205,-4.628,-4.6496,-4.6603,-4.6603,-4.6603,-4.6603,-4.6603,-4.6603,-4.6603,0.0,0.0,0.0,-4.6131,-4.6091,-4.563,-4.4822,-4.4822,-4.4331,-4.369,-4.3384,-4.329,-4.329,-4.329,-4.329,-4.329,-4.329,-4.329,-4.329,-4.329,-4.329,-4.329,-4.329,-4.329,-4.329,-4.329,-4.329,-4.329,-4.329,-4.329,-4.329,-4.329,-4.329,-4.329,-4.329,-4.329,-4.329,-4.329,-4.329,-4.329,-4.329,-4.329,-4.329,-4.329,-4.329,-4.329,-4.329,-4.329,-4.329,-4.329,-4.329,-4.329,-4.329,-4.329,-4.329,-4.329,-4.329,-4.329,-4.329,-4.329,-4.329,-4.329,-4.329,-4.329,-4.329,-4.329,-4.329,-3.4196,-3.3839,-3.3403,-3.3431,-3.3968,-3.4568,-3.4853,0.0,0.0,0.0,0.0,0.0,0.0,0.0,0.0,0.0,0.0,0.0,0.0,0.0,0.0,0.0,0.0,0.0,0.0,0.0,0.0,0.0,0.0,0.0,0.0,0.0,0.0,-4.4408,-4.509,-4.5262,-4.4895,-4.6018,-4.6603,-4.6603,-4.6603,-4.6603,-4.6603,-4.6603,-4.6603,0.0,0.0,-4.5963,-4.5443,-4.5285,-4.4786,-4.4139,-4.3959,-4.382,-4.369,-4.3384,-4.329,-4.329,-4.329,-4.329,-4.329,-4.329,-4.329,-4.329,-4.329,-4.329,-4.329,-4.329,-4.329,-4.329,-4.329,-4.329,-4.329,-4.329,-4.329,-4.329,-4.329,-4.329,-4.329,-4.329,-4.329,-4.329,-4.329,-4.329,-4.329,-4.329,-4.329,-4.329,-4.329,-4.329,-4.329,-4.329,-4.329,-4.329,-4.329,-4.329,-4.329,-4.329,-4.329,-4.329,-4.329,-4.329,-4.329,-4.329,-4.329,-4.329,-4.329,-4.329,-4.329,-4.329,-4.329,-4.329,-3.4481,-3.423,-3.3908,-3.4025,-3.4158,-3.4542,-3.553,0.0,0.0,0.0,0.0,0.0,0.0,0.0,0.0,0.0,0.0,0.0,0.0,0.0,0.0,0.0,0.0,0.0,0.0,0.0,0.0,0.0,0.0,0.0,0.0,0.0,0.0,0.0,-4.4602,-4.4718,-4.4587,-4.511,-4.5394,-4.5511,-4.5511,-4.5511,-4.5511,-4.5511,-4.5511,-4.5511,0.0,-4.503,-4.474,-4.456,-4.4222,-4.3847,-4.3729,-4.3596,-4.3463,-4.3344,-4.329,-4.329,-4.329,-4.329,-4.329,-4.329,-4.329,-4.329,-4.329,-4.329,-4.329,-4.329,-4.329,-4.329,-4.329,-4.329,-4.329,-4.329,-4.329,-4.329,-4.329,-4.329,-4.329,-4.329,-4.329,-4.329,-4.329,-4.329,-4.329,-4.329,-4.329,-4.329,-4.329,-4.329,-4.329,-4.329,-4.329,-4.329,-4.329,-4.329,-4.329,-4.329,-4.329,-4.329,-4.329,-4.329,-4.329,-4.329,-4.329,-4.329,-4.329,-4.329,-4.329,-4.329,-4.329,-4.329,-3.4683,-3.4549,-3.4414,-3.4683,0.0,-3.4767,-3.6081,-3.6174,0.0,0.0,0.0,0.0,0.0,0.0,0.0,0.0,0.0,0.0,0.0,0.0,0.0,0.0,0.0,0.0,0.0,0.0,0.0,0.0,0.0,0.0,0.0,0.0,0.0,0.0,-4.4281,-4.4358,-4.4473,-4.4358,-4.4396,-4.461,-4.4534,-4.4534,-4.461,-4.461,-4.4572,-4.4511,-4.432,-4.4243,-4.4205,-4.4026,-4.3871,-4.3769,-4.3729,-4.3557,-4.329,-4.329,-4.329,-4.329,-4.329,-4.329,-4.329,-4.329,-4.329,-4.329,-4.329,-4.329,-4.329,-4.329,-4.329,-4.329,-4.329,-4.329,-4.329,-4.329,-4.329,-4.329,-4.329,-4.329,-4.329,-4.329,-4.329,-4.329,-4.329,-4.329,-4.329,-4.329,-4.329,-4.329,-4.329,-4.329,-4.329,-4.329,-4.329,-4.329,-4.329,-4.329,-4.329,-4.329,-4.329,-4.329,-4.329,-4.329,-4.329,-4.329,-4.329,-4.329,-4.329,-4.329,-4.329,-4.329,-4.329,-4.329,-3.4835,-3.4501,-3.423,-3.4769,-3.5119,0.0,-3.563,-3.6437,0.0,-3.7711,0.0,0.0,0.0,0.0,0.0,0.0,0.0,0.0,0.0,0.0,0.0,0.0,0.0,0.0,0.0,0.0,0.0,0.0,0.0,0.0,0.0,0.0,0.0,0.0,0.0,-4.4205,-4.405,-4.4205,-4.4396,-4.461,-4.4396,-4.4435,-4.461,-4.461,-4.4511,-4.432,-4.4089,-4.4026,-4.4026,-4.3793,-4.3832,-4.3949,-4.3754,-4.3557,-4.329,-4.329,-4.329,-4.329,-4.329,-4.329,-4.329,-4.329,-4.329,-4.329,-4.329,-4.329,-4.329,-4.329,-4.329,-4.329,-4.329,-4.329,-4.329,-4.329,-4.329,-4.329,-4.329,-4.329,-4.329,-4.329,-4.329,-4.329,-4.329,-4.329,-4.329,-4.329,-4.329,-4.329,-4.329,-4.329,-4.329,-4.329,-4.329,-4.329,-4.329,-4.329,-4.329,-4.329,-4.329,-4.329,-4.329,-4.329,-4.329,-4.329,-4.329,-4.329,-4.329,-4.329,-4.329,-4.329,-4.329,-4.329,-3.4983,-3.4783,-3.4549,-3.4835,-3.5427,0.0,0.0,-3.6996,-3.757,-3.8275,-3.82,0.0,0.0,0.0,0.0,0.0,0.0,0.0,0.0,0.0,0.0,0.0,0.0,0.0,0.0,0.0,0.0,0.0,0.0,0.0,0.0,0.0,0.0,0.0,0.0,-4.432,-4.4358,-4.432,-4.4396,-4.461,-4.4534,-4.4549,-4.461,-4.461,-4.4511,-4.4281,-4.4205,-4.4104,-4.3988,-4.3754,-4.3729,-4.3808,-4.3557,-4.3384,-4.329,-4.329,-4.329,-4.329,-4.329,-4.329,-4.329,-4.329,-4.329,-4.329,-4.329,-4.329,-4.329,-4.329,-4.329,-4.329,-4.329,-4.329,-4.329,-4.329,-4.329,-4.329,-4.329,-4.329,-4.329,-4.329,-4.329,-4.329,-4.329,-4.329,-4.329,-4.329,-4.329,-4.329,-4.329,-4.329,-4.329,-4.329,-4.329,-4.329,-4.329,-4.329,-4.329,-4.329,-4.329,-4.329,-4.329,-4.329,-4.329,-4.329,-4.329,-4.329,-4.329,-4.329,-4.329,-4.329,-4.329,-4.329,-3.5082,-3.4964,-3.4731,-3.4868,0.0,0.0,-3.7089,-3.7464,-3.7908,-3.8537,0.0,0.0,0.0,0.0,0.0,0.0,0.0,0.0,0.0,0.0,0.0,0.0,0.0,0.0,0.0,0.0,0.0,0.0,0.0,0.0,0.0,0.0,0.0,0.0,0.0,-4.4358,-4.4396,-4.4281,-4.4281,-4.4396,-4.4396,-4.4435,-4.4511,-4.4511,-4.4358,-4.4089,-4.4089,-4.4026,-4.391,-4.3769,-4.3729,-4.3754,-4.3581,-4.3542,-4.3542,-4.3542,-4.3542,-4.3503,-4.3463,-4.3423,-4.3423,-4.3329,-4.329,-4.329,-4.329,-4.329,-4.329,-4.329,-4.329,-4.329,-4.329,-4.329,-4.329,-4.329,-4.329,-4.329,-4.329,-4.329,-4.329,-4.329,-4.329,-4.329,-4.329,-4.329,-4.329,-4.329,-4.329,-4.329,-4.329,-4.329,-4.329,-4.329,-4.329,-4.329,-4.329,-4.329,-4.329,-4.329,-4.329,-4.329,-4.329,-4.329,-4.329,-4.329,-4.329,-4.329,-4.329,-4.329,-4.329,-4.329,-4.329,-4.329,-3.5115,-3.4949,-3.4731,0.0,0.0,0.0,-3.7159,-3.7883,-3.8473,-3.8435,0.0,0.0,0.0,0.0,0.0,0.0,0.0,0.0,0.0,0.0,0.0,0.0,0.0,0.0,0.0,0.0,0.0,0.0,0.0,0.0,0.0,0.0,0.0,0.0,0.0,0.0,-4.3988,-4.3988,-4.3988,-4.3988,-4.3988,-4.4104,-4.4281,-4.4281,-4.4089,-4.369,-4.369,-4.369,-4.369,-4.369,-4.3832,-4.3988,-4.3988,-4.3988,-4.3988,-4.3988,-4.3988,-4.3949,-4.3769,-4.369,-4.3651,-4.3384,-4.329,-4.329,-4.329,-4.329,-4.329,-4.329,-4.329,-4.329,-4.329,-4.329,-4.329,-4.329,-4.329,-4.329,-4.329,-4.329,-4.329,-4.329,-4.329,-4.329,-4.329,-4.329,-4.329,-4.329,-4.329,-4.329,-4.329,-4.329,-4.329,-4.329,-4.329,-4.329,-4.329,-4.329,-4.329,-4.329,-4.329,-4.329,-4.329,-4.329,-4.329,-4.329,-4.329,-4.329,-4.329,-4.329,-4.329,-4.329,-4.329,-4.329,-3.4902,-3.4902,0.0,0.0,0.0,0.0,0.0,-3.8219,0.0,0.0,0.0,0.0,0.0,0.0,0.0,0.0,0.0,0.0,0.0,0.0,0.0,0.0,0.0,0.0,0.0,0.0,0.0,0.0,0.0,0.0,0.0,0.0,0.0,0.0,0.0,0.0,-4.3988,-4.3988,-4.4065,-4.4205,-4.4205,-4.4181,-4.4089,-4.4243,-4.4166,-4.391,-4.4065,-4.405,-4.391,-4.391,-4.3949,-4.3988,-4.3988,-4.391,-4.3808,-4.3808,-4.3675,-4.3503,-4.3423,-4.3423,-4.3423,-4.3329,-4.329,-4.329,-4.329,-4.329,-4.329,-4.329,-4.329,-4.329,-4.329,-4.329,-4.329,-4.329,-4.329,-4.329,-4.329,-4.329,-4.329,-4.329,-4.329,-4.329,-4.329,-4.329,-4.329,-4.329,-4.329,-4.329,-4.329,-4.329,-4.329,-4.329,-4.329,-4.329,-4.329,-4.329,-4.329,-4.329,-4.329,-4.329,-4.329,-4.329,-4.329,-4.329,-4.329,-4.329,-4.329,-4.329,-4.329,-4.329,-4.329,-4.329,-3.4835,0.0,0.0,0.0,0.0,0.0,0.0,0.0,0.0,0.0,0.0,0.0,0.0,0.0,0.0,0.0,0.0,0.0,0.0,0.0,0.0,0.0,0.0,0.0,0.0,0.0,0.0,0.0,0.0,0.0,0.0,0.0,0.0,0.0,0.0,0.0,-4.4243,-4.4166,-4.4166,-4.4281,-4.4205,-4.4127,-4.4026,-4.4205,-4.4166,-4.4026,-4.4205,-4.4243,-4.4143,-4.422,-4.4243,-4.4243,-4.4127,-4.4065,-4.391,-4.3832,-4.3714,-4.3581,-4.3503,-4.3463,-4.3423,-4.3329,-4.329,-4.329,-4.329,-4.329,-4.329,-4.329,-4.329,-4.329,-4.329,-4.329,-4.329,-4.329,-4.329,-4.329,-4.329,-4.329,-4.329,-4.329,-4.329,-4.329,-4.329,-4.329,-4.329,-4.329,-4.329,-4.329,-4.329,-4.329,-4.329,-4.329,-4.329,-4.329,-4.329,-4.329,-4.329,-4.329,-4.329,-4.329,-4.329,-4.329,-4.329,-4.329,-4.329,-4.329,-4.329,-4.329,-4.329,-4.329,-4.329,-4.3155,0.0,0.0,0.0,0.0,0.0,0.0,0.0,0.0,0.0,0.0,0.0,0.0,0.0,0.0,0.0,0.0,0.0,0.0,0.0,0.0,0.0,0.0,0.0,0.0,0.0,0.0,0.0,0.0,0.0,0.0,0.0,0.0,0.0,0.0,0.0,0.0,-4.4549,-4.4358,-4.4281,0.0,-4.4089,-4.4026,-4.4065,-4.4205,-4.4205,-4.405,-4.4243,-4.432,-4.4358,-4.4496,-4.4572,-4.4534,-4.4358,-4.4243,-4.4205,-4.4026,-4.3949,-4.391,-4.3714,-4.3651,-4.3596,-4.3384,-4.329,-4.329,-4.329,-4.329,-4.329,-4.329,-4.329,-4.329,-4.329,-4.329,-4.329,-4.329,-4.329,-4.329,-4.329,-4.329,-4.329,-4.329,-4.329,-4.329,-4.329,-4.329,-4.329,-4.329,-4.329,-4.329,-4.329,-4.329,-4.329,-4.329,-4.329,-4.329,-4.329,-4.329,-4.329,-4.329,-4.329,-4.329,-4.329,-4.329,-4.329,-4.329,-4.329,-4.329,-4.329,-4.329,-4.326,-4.32,-4.32,-4.2895,0.0,0.0,0.0,0.0,0.0,0.0,0.0,0.0,0.0,0.0,0.0,0.0,0.0,0.0,0.0,0.0,0.0,0.0,0.0,0.0,0.0,0.0,0.0,0.0,0.0,0.0,0.0,0.0,0.0,0.0,0.0,0.0,0.0,0.0,0.0,-4.4143,-4.4143,-4.4104,-4.4127,0.0,-4.4243,-4.432,-4.4473,-4.4358,-4.4358,-4.4473,-4.4511,-4.4549,-4.4549,-4.4396,-4.4358,-4.4358,-4.4127,-4.3988,-4.3832,-4.3754,-4.3636,-4.3448,-4.3423,-4.3384,-4.3384,-4.3329,-4.329,-4.329,-4.329,-4.329,-4.329,-4.329,-4.329,-4.329,-4.329,-4.329,-4.329,-4.329,-4.329,-4.329,-4.329,-4.329,-4.329,-4.329,-4.329,-4.329,-4.329,-4.329,-4.329,-4.329,-4.329,-4.329,-4.329,-4.329,-4.329,-4.329,-4.329,-4.329,-4.329,-4.329,-4.329,-4.329,-4.329,-4.329,-4.329,-4.329,-4.329,-4.329,-4.329,-4.329,-4.329,-4.329,-4.3075,-4.2605,-4.2605,-4.2261,0.0,0.0,0.0,0.0,0.0,0.0,0.0,0.0,0.0,0.0,0.0,0.0,0.0,0.0,0.0,0.0,0.0,0.0,0.0,0.0,0.0,0.0,0.0,0.0,0.0,0.0,0.0,0.0,0.0,0.0,0.0,0.0,0.0,0.0,-4.4243,-4.4281,-4.4281,-4.4281,-4.4358,-4.4435,-4.4435,-4.4511,-4.461,-4.4496,-4.4496,-4.461,-4.461,-4.461,-4.4572,-4.4511,-4.4435,-4.4435,-4.4205,-4.4089,-4.3988,-4.3871,-4.3675,-4.3503,-4.3503,-4.3423,-4.329,-4.329,-4.329,-4.329,-4.329,-4.329,-4.329,-4.329,-4.329,-4.329,-4.329,-4.329,-4.329,-4.329,-4.329,-4.329,-4.329,-4.329,-4.329,-4.329,-4.329,-4.329,-4.329,-4.329,-4.329,-4.329,-4.329,-4.329,-4.329,-4.329,-4.329,-4.329,-4.329,-4.329,-4.329,-4.329,-4.329,-4.329,-4.329,-4.329,-4.329,-4.329,-4.329,-4.329,-4.329,-4.314,-4.2865,-4.2865,-4.2536,-4.1931,-4.1931,-4.1572,0.0,0.0,0.0,0.0,0.0,0.0,0.0,0.0,0.0,0.0,0.0,0.0,0.0,0.0,0.0,0.0,0.0,0.0,0.0,0.0,0.0,0.0,0.0,0.0,0.0,0.0,0.0,0.0,0.0,0.0,0.0,0.0,-4.4534,-4.4358,-4.4511,-4.461,-4.461,-4.461,-4.461,-4.461,-4.461,-4.461,-4.461,-4.461,-4.461,-4.461,-4.461,-4.461,-4.461,-4.4572,-4.4549,-4.4549,-4.432,-4.4243,-4.4166,-4.4026,-4.3793,-4.3636,-4.3636,-4.3503,-4.329,-4.329,-4.329,-4.329,-4.329,-4.329,-4.329,-4.329,-4.329,-4.329,-4.329,-4.329,-4.329,-4.329,-4.329,-4.329,-4.329,-4.329,-4.329,-4.329,-4.329,-4.329,-4.329,-4.329,-4.329,-4.329,-4.329,-4.329,-4.329,-4.329,-4.329,-4.329,-4.329,-4.329,-4.329,-4.329,-4.329,-4.329,-4.329,-4.329,-4.329,-4.3185,-4.3125,-4.3125,-4.3125,-4.2836,-4.2231,-4.2231,-4.1886,-4.1205,-4.1205,-4.0861,0.0,0.0,0.0,0.0,0.0,0.0,0.0,0.0,0.0,0.0,0.0,0.0,0.0,0.0,0.0,0.0,0.0,0.0,0.0,0.0,0.0,0.0,0.0,0.0,0.0,0.0,0.0,0.0,0.0,0.0,0.0,-4.4587,-4.4587,-4.4572,-4.4587,-4.461,-4.461,-4.461,-4.461,-4.461,-4.461,-4.461,-4.461,-4.461,-4.461,-4.461,-4.461,-4.461,-4.4587,-4.4396,-4.4358,-4.432,-4.4127,-4.3949,-4.3769,-4.3769,-4.3596,-4.3344,-4.3344,-4.3329,-4.329,-4.329,-4.329,-4.329,-4.329,-4.329,-4.329,-4.329,-4.329,-4.329,-4.329,-4.329,-4.329,-4.329,-4.329,-4.329,-4.329,-4.329,-4.329,-4.329,-4.329,-4.329,-4.329,-4.329,-4.329,-4.329,-4.329,-4.329,-4.329,-4.329,-4.329,-4.329,-4.329,-4.329,-4.329,-4.329,-4.329,-4.329,-4.329,-4.329,-4.329,-4.2791,-4.253,-4.253,-4.253,-4.2201,-4.1504,-4.1504,-4.1175,-4.0531,-4.0531,-4.0172,0.0,0.0,0.0,0.0,0.0,0.0,0.0,0.0,0.0,0.0,0.0,0.0,0.0,0.0,0.0,0.0,0.0,0.0,0.0,0.0,0.0,0.0,0.0,0.0,0.0,0.0,0.0,0.0,0.0,0.0,-4.461,-4.461,-4.461,-4.461,-4.461,-4.461,-4.461,-4.461,-4.461,-4.461,-4.461,-4.461,-4.461,-4.461,-4.461,-4.461,-4.461,-4.461,-4.4572,-4.4396,-4.4281,-4.4281,-4.4065,-4.3949,-4.3871,-4.3871,-4.3714,-4.3518,-4.3518,-4.3423,-4.329,-4.329,-4.329,-4.329,-4.329,-4.329,-4.329,-4.329,-4.329,-4.329,-4.329,-4.329,-4.329,-4.329,-4.329,-4.329,-4.329,-4.329,-4.329,-4.329,-4.329,-4.329,-4.329,-4.329,-4.329,-4.329,-4.329,-4.329,-4.329,-4.329,-4.329,-4.329,-4.329,-4.329,-4.329,-4.329,-4.329,-4.329,-4.2985,-4.2791,-4.2791,-4.2201,-4.1677,-4.1265,-4.1662,-4.1527,-4.0831,-4.0831,-4.0502,-3.9843,-3.9843,-3.9694,0.0,0.0,0.0,0.0,0.0,0.0,0.0,0.0,0.0,0.0,0.0,0.0,0.0,0.0,0.0,0.0,0.0,0.0,0.0,0.0,0.0,0.0,0.0,0.0,0.0,0.0,0.0,0.0,0.0,0.0,-4.461,-4.461,-4.461,-4.461,-4.461,-4.461,-4.461,-4.461,-4.461,-4.461,-4.461,-4.461,-4.461,-4.461,-4.461,-4.461,-4.4549,-4.4534,-4.4587,-4.432,-4.4243,-4.4281,-4.4127,-4.4065,-4.4026,-4.4065,-4.3949,-4.3769,-4.3769,-4.3636,-4.3503,-4.3503,-4.3503,-4.3463,-4.3423,-4.3384,-4.3384,-4.3329,-4.329,-4.329,-4.329,-4.329,-4.329,-4.329,-4.329,-4.329,-4.329,-4.329,-4.329,-4.329,-4.329,-4.329,-4.329,-4.329,-4.329,-4.329,-4.329,-4.329,-4.329,-4.329,-4.329,-4.329,-4.329,-4.329,-4.329,-4.329,-4.3215,-4.309,-4.2626,-4.2321,-4.2156,-4.1512,-4.0905,-4.0412,-4.0711,-4.0651,-4.0157,-4.0157,-3.9903,-3.9388,-3.9388,-3.9388,0.0,0.0,0.0,0.0,0.0,0.0,0.0,0.0,0.0,0.0,0.0,0.0,0.0,0.0,0.0,0.0,0.0,0.0,0.0,0.0,0.0,0.0,0.0,0.0,0.0,0.0,0.0,0.0,0.0,0.0,-4.461,-4.461,-4.461,-4.461,-4.461,-4.461,-4.461,-4.461,-4.461,-4.461,-4.461,-4.461,-4.461,-4.461,-4.461,-4.4572,-4.4396,-4.4419,-4.4572,-4.4166,-4.4143,-4.4281,-4.4281,-4.4181,-4.4026,-4.4205,-4.4166,-4.3988,-4.3988,-4.3988,-4.3949,-4.3949,-4.3949,-4.3949,-4.3729,-4.369,-4.3636,-4.3384,-4.329,-4.329,-4.329,-4.329,-4.329,-4.329,-4.329,-4.329,-4.329,-4.329,-4.329,-4.329,-4.329,-4.329,-4.329,-4.329,-4.329,-4.329,-4.329,-4.329,-4.329,-4.329,-4.329,-4.329,-4.329,-4.329,-4.329,-4.329,-4.3075,-4.2485,-4.2425,-4.2111,-4.1497,-4.0801,-4.0442,-4.0397,-3.9828,-3.9514,-3.9433,-3.9433,-3.9418,-3.9388,-3.9388,-3.9388,0.0,0.0,0.0,0.0,0.0,0.0,0.0,0.0,0.0,0.0,0.0,0.0,0.0,0.0,0.0,0.0,0.0,0.0,0.0,0.0,0.0,0.0,0.0,0.0,0.0,0.0,0.0,0.0,0.0,0.0,-4.461,-4.461,-4.461,-4.461,-4.461,-4.461,-4.461,-4.461,-4.461,-4.461,-4.461,-4.461,-4.461,-4.461,-4.461,-4.4572,-4.4396,-4.4396,-4.4587,-4.432,-4.4243,-4.4281,-4.4166,-4.4065,-4.4026,-4.4089,-4.4065,-4.3988,-4.3988,-4.3988,-4.3988,-4.3832,-4.3808,-4.3754,-4.3518,-4.3423,-4.3423,-4.3329,-4.329,-4.329,-4.329,-4.329,-4.329,-4.329,-4.329,-4.329,-4.329,-4.329,-4.329,-4.329,-4.329,-4.329,-4.329,-4.329,-4.329,-4.329,-4.329,-4.329,-4.329,-4.329,-4.329,-4.329,-4.329,-4.3125,-4.2746,-4.2701,-4.247,-4.1811,-4.1324,-4.0995,-4.0756,-4.0113,-3.9768,-3.9768,-3.9508,-3.9388,-3.9388,-3.9388,-3.9388,-3.9388,-3.9388,-3.9388,0.0,0.0,0.0,0.0,0.0,0.0,0.0,0.0,0.0,0.0,0.0,0.0,0.0,0.0,0.0,0.0,0.0,0.0,0.0,0.0,0.0,0.0,0.0,0.0,0.0,0.0,0.0,0.0,0.0,0.0,-4.461,-4.461,-4.461,-4.461,-4.461,-4.461,-4.461,-4.461,-4.461,-4.461,-4.461,-4.461,-4.461,-4.461,-4.461,-4.4572,-4.4473,-4.4473,-4.4587,-4.432,-4.4243,-4.4281,-4.4127,-4.4104,-4.4089,-4.4166,-4.4205,-4.4205,-4.4127,-4.4104,-4.4065,-4.3871,-4.3808,-4.3754,-4.3503,-4.3423,-4.3423,-4.3329,-4.329,-4.329,-4.329,-4.329,-4.329,-4.329,-4.329,-4.329,-4.329,-4.329,-4.329,-4.329,-4.329,-4.329,-4.329,-4.329,-4.329,-4.329,-4.329,-4.329,-4.329,-4.329,-4.32,-4.303,-4.3015,-4.2746,-4.2126,-4.2066,-4.1796,-4.11,-4.0651,-4.0307,-4.0083,-3.9649,-3.9388,-3.9388,-3.9388,-3.9388,-3.9388,-3.9388,-3.9388,-3.9388,-3.9388,-3.9388,0.0,0.0,0.0,0.0,0.0,0.0,0.0,0.0,0.0,0.0,0.0,0.0,0.0,0.0,0.0,0.0,0.0,0.0,0.0,0.0,0.0,0.0,0.0,0.0,0.0,0.0,0.0,0.0,0.0,-4.387,-4.4548,-4.461,-4.461,-4.461,-4.461,-4.461,-4.461,-4.461,-4.461,-4.461,-4.461,-4.461,-4.461,-4.461,-4.461,-4.461,-4.461,-4.461,-4.4572,-4.4166,-4.4127,-4.432,-4.432,-4.432,-4.432,-4.4549,-4.461,-4.4572,-4.4396,-4.432,-4.4281,-4.405,-4.4026,-4.3988,-4.3769,-4.369,-4.3636,-4.3384,-4.329,-4.329,-4.329,-4.329,-4.329,-4.329,-4.329,-4.329,-4.329,-4.329,-4.329,-4.329,-4.329,-4.329,-4.329,-4.329,-4.329,-4.329,-4.3275,-4.326,-4.326,-4.3245,-4.303,-4.244,-4.2366,-4.2111,-4.1452,-4.1354,-4.107,-4.0412,-4.0367,-4.0083,-3.9454,-3.9388,-3.9388,-3.9388,-3.9388,-3.9388,-3.9388,-3.9388,-3.9388,-3.9388,-3.9388,-3.9388,-3.4481,0.0,0.0,0.0,0.0,0.0,0.0,0.0,0.0,0.0,0.0,0.0,0.0,0.0,0.0,0.0,0.0,0.0,0.0,0.0,0.0,0.0,0.0,0.0,0.0,0.0,0.0,0.0,-4.2879,-4.3156,-4.3855,-4.4348,-4.461,-4.461,-4.461,-4.461,-4.461,-4.461,-4.461,-4.461,-4.461,-4.461,-4.461,-4.461,-4.461,-4.461,-4.461,-4.461,-4.4572,-4.4473,-4.4473,-4.4511,-4.4511,-4.4511,-4.4534,-4.4587,-4.461,-4.4572,-4.4549,-4.4511,-4.4458,-4.4281,-4.4205,-4.4127,-4.3808,-4.369,-4.3636,-4.3384,-4.329,-4.329,-4.329,-4.329,-4.329,-4.329,-4.329,-4.329,-4.329,-4.329,-4.329,-4.329,-4.329,-4.329,-4.329,-4.329,-4.329,-4.329,-4.294,-4.2626,-4.2626,-4.2222,-4.1848,-4.1707,-4.1692,-4.1422,-4.0726,-4.0666,-4.0382,-3.9738,-3.9694,-3.9604,-3.9388,-3.9388,-3.9388,-3.9388,-3.9388,-3.9388,-3.9388,-3.9388,-3.9388,-3.9388,-3.9388,-3.9388,0.0,0.0,0.0,0.0,0.0,0.0,0.0,0.0,0.0,0.0,0.0,0.0,0.0,0.0,0.0,0.0,0.0,0.0,0.0,0.0,0.0,0.0,0.0,0.0,0.0,0.0,0.0,0.0,-4.2186,-4.2479,-4.314,-4.384,-4.4194,-4.4194,-4.4471,-4.461,-4.461,-4.461,-4.461,-4.461,-4.461,-4.461,-4.461,-4.461,-4.461,-4.461,-4.461,-4.461,-4.461,-4.461,-4.461,-4.461,-4.461,-4.461,-4.461,-4.461,-4.461,-4.4587,-4.4496,-4.4435,-4.432,-4.4104,-4.3972,-4.3856,-4.3581,-4.3518,-4.3518,-4.3329,-4.329,-4.329,-4.329,-4.329,-4.329,-4.329,-4.329,-4.329,-4.329,-4.329,-4.329,-4.329,-4.329,-4.32,-4.297,-4.2925,-4.2836,-4.2551,-4.2192,-4.1991,-4.1991,-4.1647,-4.1265,-4.0995,-4.0965,-4.0711,-4.0053,-3.9993,-3.9828,-3.9403,-3.9388,-3.9388,-3.9388,-3.9388,-3.9388,-3.9388,-3.9388,-3.9388,-3.9388,-3.9388,-3.9388,-3.9388,-3.9388,-3.9388,0.0,0.0,0.0,0.0,0.0,0.0,-3.5537,-3.5589,-3.5901,0.0,0.0,0.0,0.0,0.0,0.0,0.0,0.0,0.0,0.0,0.0,0.0,0.0,0.0,0.0,0.0,0.0,-4.0751,-4.1432,-4.1555,-4.1863,-4.2463,-4.311,-4.3501,-4.3501,-4.4148,-4.4502,-4.4502,-4.4579,-4.461,-4.461,-4.461,-4.461,-4.461,-4.461,-4.461,-4.461,-4.461,-4.461,-4.461,-4.4587,-4.4587,-4.461,-4.461,-4.461,-4.461,-4.4572,-4.4572,-4.4549,-4.4358,-4.4127,-4.3988,-4.3808,-4.3557,-4.3369,-4.3344,-4.3329,-4.3329,-4.329,-4.329,-4.329,-4.329,-4.329,-4.329,-4.329,-4.3245,-4.3185,-4.3185,-4.3125,-4.308,-4.308,-4.314,-4.3015,-4.2396,-4.2291,-4.2096,-4.1512,-4.1324,-4.1265,-4.1265,-4.1205,-4.0935,-4.0352,-4.0292,-4.0053,-3.9433,-3.9388,-3.9388,-3.9388,-3.9388,-3.9388,-3.9388,-3.9388,-3.9388,-3.9388,-3.9388,-3.9388,-3.9388,-3.9388,-3.9388,-3.9388,-3.9388,-3.9388,0.0,0.0,0.0,0.0,0.0,0.0,-3.5653,-3.5589,-3.5649,0.0,0.0,0.0,0.0,0.0,0.0,0.0,0.0,0.0,0.0,0.0,0.0,0.0,0.0,0.0,0.0,0.0,-4.0551,-4.0689,-4.1278,-4.1663,-4.1786,-4.2432,-4.2802,-4.2802,-4.347,-4.3809,-4.3809,-4.4348,-4.461,-4.461,-4.461,-4.461,-4.461,-4.461,-4.461,-4.461,-4.461,-4.461,-4.4587,-4.4435,-4.4458,-4.461,-4.461,-4.461,-4.4587,-4.4435,-4.4358,-4.432,-4.4143,-4.4026,-4.3988,-4.3949,-4.391,-4.3832,-4.3675,-4.3596,-4.3596,-4.3384,-4.329,-4.329,-4.329,-4.329,-4.329,-4.329,-4.294,-4.259,-4.259,-4.2132,-4.1758,-4.1758,-4.2192,-4.2381,-4.1722,-4.1617,-4.1572,-4.1399,-4.0935,-4.0591,-4.0591,-4.0127,-3.9753,-3.9634,-3.9619,-3.9559,-3.9388,-3.9388,-3.9388,-3.9388,-3.9388,-3.9388,-3.9388,-3.9388,-3.9388,-3.9388,-3.9388,-3.9388,-3.9388,-3.9388,-3.9388,-3.9388,-3.9388,-3.9388,0.0,0.0,0.0,-3.5701,0.0,0.0,0.0,-3.5846,-3.5878,0.0,0.0,0.0,0.0,0.0,0.0,0.0,0.0,0.0,0.0,0.0,0.0,0.0,0.0,0.0,0.0,0.0,-4.0489,-4.0489,-4.0828,-4.1063,-4.1063,-4.1724,-4.2109,-4.2109,-4.274,-4.3094,-4.3094,-4.3417,-4.3756,-4.4117,-4.4117,-4.4286,-4.461,-4.461,-4.461,-4.4572,-4.4496,-4.4473,-4.4435,-4.4358,-4.4358,-4.4435,-4.4358,-4.4281,-4.4281,-4.4166,-4.4127,-4.4127,-4.4127,-4.4026,-4.3871,-4.3988,-4.3817,-4.3621,-4.3542,-4.3518,-4.3463,-4.3329,-4.329,-4.3215,-4.294,-4.2851,-4.2761,-4.2432,-4.2102,-4.1916,-4.1916,-4.1647,-4.128,-4.095,-4.116,-4.128,-4.095,-4.0891,-4.0786,-4.0442,-4.0127,-3.9903,-3.9903,-3.9634,-3.9388,-3.9388,-3.9388,-3.9388,-3.9388,-3.9388,-3.9388,-3.9388,-3.9388,-3.9388,-3.9388,-3.9388,-3.9388,-3.9388,-3.9388,-3.9388,-3.9388,-3.9388,-3.9388,-3.9388,-3.9388,-3.9388,0.0,0.0,0.0,0.0,0.0,-3.6005,0.0,0.0,0.0,-3.6068,0.0,0.0,0.0,0.0,0.0,0.0,0.0,0.0,0.0,0.0,0.0,0.0,0.0,0.0,0.0,0.0,-4.0317,-4.0489,-4.047,-4.0455,-4.0489,-4.1078,-4.1401,-4.1401,-4.2063,-4.2417,-4.2417,-4.254,-4.2863,-4.3424,-4.3424,-4.3701,-4.4202,-4.4363,-4.4425,-4.4387,-4.4373,-4.4358,-4.4358,-4.4281,-4.4243,-4.4243,-4.4127,-4.4104,-4.4065,-4.4026,-4.3988,-4.3949,-4.405,-4.3895,-4.3636,-4.3817,-4.3621,-4.329,-4.329,-4.32,-4.315,-4.315,-4.3006,-4.2836,-4.2351,-4.2216,-4.2081,-4.1542,-4.128,-4.119,-4.119,-4.1085,-4.0846,-4.0307,-4.0217,-4.0217,-4.0217,-4.0217,-4.0023,-3.9463,-3.9388,-3.9388,-3.9388,-3.9388,-3.9388,-3.9388,-3.9388,-3.9388,-3.9388,-3.9388,-3.9388,-3.9388,-3.9388,-3.9388,-3.9388,-3.9388,-3.9388,-3.9388,-3.9388,-3.9388,-3.9388,-3.9388,-3.9388,-3.9388,-3.9388,-3.9448,0.0,0.0,0.0,0.0,-3.6085,0.0,0.0,0.0,-3.6053,-3.6148,0.0,0.0,0.0,0.0,0.0,0.0,0.0,0.0,0.0,0.0,0.0,0.0,0.0,0.0,0.0,0.0,0.0,-4.0443,-4.0401,-4.0366,-4.0489,-4.0566,-4.0612,-4.0612,-4.134,-4.1709,-4.1709,-4.2309,-4.2648,-4.2709,-4.2709,-4.2756,-4.2848,-4.3454,-4.3716,-4.3762,-4.4326,-4.4587,-4.4549,-4.4166,-4.4011,-4.4065,-4.4396,-4.4435,-4.4243,-4.4065,-4.3871,-4.3714,-4.3503,-4.3369,-4.3344,-4.3369,-4.3329,-4.329,-4.329,-4.294,-4.2515,-4.2515,-4.2081,-4.1594,-4.1504,-4.1527,-4.1474,-4.1437,-4.0935,-4.0502,-4.0502,-4.0053,-3.9619,-3.9544,-3.9493,-3.9493,-3.9493,-3.9493,-3.9514,-3.9388,-3.9388,-3.9388,-3.9388,-3.9388,-3.9388,-3.9388,-3.9388,-3.9388,-3.9388,-3.9388,-3.9388,-3.9388,-3.9388,-3.9388,-3.9388,-3.9388,-3.9388,-3.9388,-3.9388,-3.9388,-3.9388,-3.9388,-3.9388,-3.9388,-3.9388,-3.9723,0.0,0.0,0.0,0.0,0.0,0.0,0.0,0.0,-3.6258,0.0,0.0,0.0,0.0,0.0,0.0,0.0,0.0,0.0,0.0,0.0,0.0,0.0,0.0,0.0,0.0,0.0,0.0,0.0,0.0,-3.9952,-4.0474,-4.0489,-4.0489,-4.0489,-4.0782,-4.0951,-4.0951,-4.1228,-4.1617,-4.2032,-4.2032,-4.2232,-4.2617,-4.2879,-4.3017,-4.3017,-4.3072,-4.3082,-4.3082,-4.2766,-4.2667,-4.269,-4.297,-4.3366,-4.3723,-4.3606,-4.3542,-4.3463,-4.3518,-4.3423,-4.329,-4.329,-4.329,-4.329,-4.329,-4.3135,-4.2925,-4.2925,-4.2731,-4.2342,-4.1579,-4.1707,-4.1796,-4.0995,-4.0891,-4.0965,-4.0965,-4.0442,-3.9993,-3.9993,-3.9993,-3.9993,-3.9993,-3.9993,-3.9993,-3.9993,-3.9993,-3.9993,-3.9993,-3.9649,-3.9388,-3.9388,-3.9388,-3.9388,-3.9388,-3.9388,-3.9388,-3.9388,-3.9388,-3.9388,-3.9388,-3.9388,-3.9388,-3.9388,-3.9388,-3.9388,-3.9388,-3.9388,-3.9388,-3.9388,-3.9813,-4.0127,-3.6368,0.0,0.0,0.0,0.0,0.0,0.0,0.0,0.0,0.0,0.0,0.0,0.0,0.0,0.0,0.0,0.0,0.0,0.0,0.0,0.0,0.0,0.0,0.0,0.0,0.0,0.0,0.0,-3.9247,-3.9569,-4.0197,-4.0397,-4.0489,-4.0489,-4.0489,-4.0489,-4.0489,-4.0489,-4.0751,-4.1309,-4.1309,-4.1555,-4.2048,-4.216,-4.2237,-4.2216,-4.2071,-4.1999,-4.1999,-4.1783,-4.1708,-4.1708,-4.1798,-4.2235,-4.2821,-4.3054,-4.3219,-4.3329,-4.3518,-4.3463,-4.329,-4.329,-4.329,-4.329,-4.329,-4.317,-4.306,-4.306,-4.294,-4.2581,-4.1624,-4.1632,-4.1662,-4.0846,-4.0891,-4.116,-4.1339,-4.101,-4.0666,-4.0666,-4.0666,-4.0666,-4.0666,-4.0666,-4.0666,-4.0666,-4.0666,-4.0606,-4.0427,-4.0142,-3.9888,-3.9709,-3.9843,-3.9888,-3.9709,-3.9694,-3.9619,-3.9388,-3.9388,-3.9388,-3.9388,-3.9388,-3.9388,-3.9388,-3.9388,-3.9388,-3.9388,-3.9388,-3.9388,-3.9388,-3.9903,-4.0322,0.0,0.0,0.0,-3.6662,0.0,0.0,0.0,0.0,-3.6585,0.0,0.0,0.0,0.0,0.0,-3.6022,-3.6179,0.0,0.0,0.0,0.0,0.0,0.0,0.0,0.0,0.0,0.0,0.0,-3.846,-3.8956,-3.9305,-3.9521,-4.0136,-4.0489,-4.0489,-4.0489,-4.0489,-4.0489,-4.0489,-4.0505,-4.0536,-4.0536,-4.0536,-4.0582,-4.1102,-4.1352,-4.1383,-4.1821,-4.1999,-4.1999,-4.1783,-4.1708,-4.1671,-4.1483,-4.1452,-4.1557,-4.2408,-4.2962,-4.329,-4.329,-4.329,-4.329,-4.329,-4.329,-4.329,-4.329,-4.2895,-4.2425,-4.2425,-4.1976,-4.1429,-4.1384,-4.092,-4.0606,-4.1205,-4.0876,-4.0606,-4.125,-4.1369,-4.1392,-4.1392,-4.1392,-4.1392,-4.1392,-4.1392,-4.1392,-4.1392,-4.1392,-4.1115,-4.0487,-4.0935,-4.107,-4.0442,-4.0935,-4.1055,-4.0427,-4.0367,-4.0098,-3.9454,-3.9388,-3.9388,-3.9388,-3.9388,-3.9388,-3.9388,-3.9388,-3.9388,-3.9388,-3.9388,-3.9388,-3.9388,-3.9403,-4.0127,0.0,0.0,-3.902,-3.7748,0.0,0.0,0.0,0.0,0.0,0.0,0.0,0.0,0.0,0.0,-3.6507,-3.6708,-3.6538,-3.6492,0.0,0.0,0.0,0.0,0.0,0.0,0.0,0.0,0.0,-3.7768,-3.7868,-3.8157,0.0,-3.9459,-3.9828,-3.9828,-4.0259,-4.0489,-4.0489,-4.0489,-4.0489,-4.0489,-4.0489,-4.0489,-4.0505,-4.0701,-4.0773,-4.0789,-4.0715,-4.0679,-4.0643,-4.0302,-4.0192,-4.0177,-4.0119,-4.0352,-4.0816,-4.155,-4.194,-4.2043,-4.2043,-4.2043,-4.2043,-4.2043,-4.2342,-4.2686,-4.2686,-4.2836,-4.3015,-4.3015,-4.2836,-4.2581,-4.2186,-4.2177,-4.2297,-4.2111,-4.2192,-4.2402,-4.2626,-4.2327,-4.2066,-4.2066,-4.2066,-4.2066,-4.2066,-4.2387,-4.2521,-4.2126,-4.2066,-4.1991,-4.1767,-4.1504,-4.1294,-4.107,-4.125,-4.1115,-4.0457,-3.9993,-3.9649,-3.9388,-3.9388,-3.9388,-3.9388,-3.9388,-3.9388,-3.9388,-3.9388,-3.9388,-3.9388,-3.9388,-3.9388,-3.9388,-3.9873,-4.0531,-4.03,-4.0412,0.0,-3.9156,-3.9129,0.0,-3.8114,0.0,0.0,0.0,0.0,0.0,0.0,0.0,-3.6998,-3.7044,-3.6938,-3.6907,0.0,-3.7254,0.0,0.0,0.0,0.0,0.0,0.0,-3.6567,-3.7107,-3.7258,-3.7548,0.0,0.0,-3.9228,-3.9474,-3.9905,-4.0259,-4.0489,-4.0489,-4.0489,-4.0489,-4.0489,-4.0489,-4.0489,-4.0455,-4.0436,-4.0401,-4.0137,-4.0011,-3.996,-3.9711,-3.9553,-3.9517,-3.9517,-3.9715,-4.0127,-4.0786,-4.119,-4.1422,-4.1422,-4.1422,-4.1422,-4.1422,-4.1707,-4.2096,-4.2336,-4.2656,-4.2985,-4.2985,-4.2985,-4.2895,-4.2515,-4.2506,-4.2656,-4.2701,-4.2851,-4.3045,-4.3245,-4.3,-4.2701,-4.2701,-4.2701,-4.2701,-4.2701,-4.3045,-4.3155,-4.2776,-4.2701,-4.2626,-4.2425,-4.2192,-4.1983,-4.1796,-4.1938,-4.1713,-4.0831,-4.0142,-3.9664,-3.9439,-3.9388,-3.9517,-3.9788,-3.9553,-3.9517,-3.9788,-3.9517,-3.9388,-3.9388,-3.9388,-3.9508,-3.9783,-4.0442,-4.11]},{"header":{"parameterUnit":"m.s-1","parameterCategory":1,"la1":30.6,"la2":29.2853,"lo1":-89.7004,"lo2":-87.6739,"dy":0.0162,"dx":0.0183,"nx":112,"ny":82,"refTime":"2023-07-12T12:00:00:Z","depth":0,"parameterNumber":3,"parameterNumberName":"V-component_of_WINDS"},"data":[0.0,0.0,0.0,0.0,0.0,0.0,0.0,0.0,0.0,0.0,0.0,0.0,0.0,0.0,0.0,0.0,0.0,0.0,0.0,0.0,0.0,0.0,0.0,0.0,0.0,0.0,0.0,0.0,0.0,0.0,0.0,0.0,0.0,0.0,0.0,0.0,0.0,0.0,0.0,0.0,0.0,0.0,0.0,0.0,0.0,0.0,0.0,0.0,0.0,0.0,0.0,0.0,0.0,0.0,0.0,0.0,0.0,0.0,0.0,0.0,0.0,0.0,0.0,0.0,0.0,0.0,0.0,0.0,0.0,0.0,0.0,0.0,0.0,0.0,0.0,0.0,0.0,0.0,0.0,0.0,0.0,0.0,0.0,0.0,0.0,0.0,0.0,0.0,0.0,0.0,0.0,-2.9822,-2.9853,-2.9853,-2.9853,-2.9758,-2.9665,-2.9665,0.0,0.0,0.0,0.0,0.0,0.0,0.0,0.0,0.0,0.0,0.0,0.0,0.0,0.0,0.0,0.0,0.0,0.0,0.0,0.0,0.0,0.0,0.0,0.0,0.0,0.0,0.0,0.0,0.0,0.0,0.0,0.0,0.0,0.0,0.0,0.0,0.0,0.0,0.0,0.0,0.0,0.0,0.0,0.0,0.0,0.0,0.0,0.0,0.0,0.0,0.0,0.0,0.0,0.0,0.0,0.0,0.0,0.0,0.0,0.0,0.0,0.0,0.0,0.0,0.0,0.0,0.0,0.0,0.0,0.0,0.0,0.0,0.0,0.0,0.0,0.0,0.0,0.0,0.0,0.0,0.0,0.0,0.0,0.0,0.0,0.0,0.0,0.0,0.0,0.0,0.0,0.0,0.0,0.0,0.0,0.0,0.0,0.0,0.0,0.0,0.0,0.0,0.0,0.0,-2.9822,-3.0036,-3.0036,-3.0036,-3.0036,-3.005,-3.0019,-3.0019,0.0,0.0,0.0,0.0,0.0,0.0,0.0,0.0,0.0,0.0,0.0,0.0,0.0,0.0,0.0,0.0,0.0,0.0,0.0,0.0,0.0,0.0,0.0,0.0,0.0,0.0,0.0,0.0,0.0,0.0,0.0,0.0,0.0,0.0,0.0,0.0,0.0,0.0,0.0,0.0,0.0,0.0,0.0,0.0,0.0,0.0,0.0,0.0,0.0,0.0,0.0,0.0,0.0,0.0,0.0,0.0,0.0,0.0,0.0,0.0,0.0,0.0,0.0,0.0,0.0,0.0,0.0,0.0,0.0,0.0,0.0,0.0,0.0,0.0,0.0,0.0,0.0,0.0,0.0,0.0,0.0,0.0,0.0,0.0,0.0,0.0,0.0,0.0,0.0,0.0,0.0,0.0,0.0,0.0,0.0,0.0,0.0,0.0,0.0,0.0,0.0,0.0,0.0,-2.9991,-3.0113,-3.0205,-3.0219,-3.0219,-3.0219,-3.0142,-3.008,-3.008,-3.0083,0.0,0.0,0.0,0.0,0.0,0.0,0.0,0.0,0.0,0.0,0.0,0.0,0.0,0.0,0.0,0.0,0.0,0.0,0.0,0.0,0.0,0.0,0.0,0.0,0.0,0.0,0.0,0.0,0.0,0.0,0.0,0.0,0.0,0.0,0.0,0.0,0.0,0.0,0.0,0.0,0.0,0.0,0.0,0.0,0.0,0.0,0.0,0.0,0.0,0.0,0.0,0.0,0.0,0.0,0.0,0.0,0.0,0.0,0.0,0.0,0.0,0.0,0.0,0.0,0.0,0.0,0.0,0.0,0.0,0.0,0.0,0.0,0.0,0.0,0.0,0.0,0.0,0.0,0.0,0.0,0.0,0.0,0.0,0.0,0.0,0.0,0.0,0.0,0.0,0.0,0.0,0.0,0.0,0.0,0.0,0.0,0.0,0.0,0.0,0.0,0.0,0.0,-3.0249,-3.0312,-3.0387,-3.0387,-3.0387,-3.0387,-3.028,-3.0233,-3.0233,-3.0296,0.0,0.0,0.0,0.0,0.0,0.0,0.0,0.0,0.0,0.0,0.0,0.0,0.0,0.0,0.0,0.0,0.0,0.0,0.0,0.0,0.0,0.0,0.0,0.0,0.0,0.0,0.0,0.0,0.0,0.0,0.0,0.0,0.0,0.0,0.0,0.0,0.0,0.0,0.0,0.0,0.0,0.0,0.0,0.0,0.0,0.0,0.0,0.0,0.0,0.0,0.0,0.0,0.0,0.0,0.0,0.0,0.0,0.0,0.0,0.0,0.0,0.0,0.0,0.0,0.0,0.0,0.0,0.0,0.0,0.0,0.0,0.0,0.0,0.0,0.0,0.0,0.0,0.0,0.0,0.0,0.0,0.0,0.0,0.0,0.0,0.0,0.0,0.0,0.0,0.0,0.0,0.0,0.0,0.0,0.0,0.0,0.0,0.0,0.0,0.0,0.0,0.0,-3.0282,-3.0387,-3.0568,-3.0568,-3.0568,-3.0568,-3.0568,-3.0568,-3.0568,-3.0568,0.0,0.0,0.0,0.0,0.0,0.0,0.0,0.0,0.0,0.0,0.0,0.0,0.0,0.0,0.0,0.0,0.0,0.0,0.0,0.0,0.0,0.0,0.0,0.0,0.0,0.0,0.0,0.0,0.0,0.0,0.0,0.0,0.0,0.0,0.0,0.0,0.0,0.0,0.0,0.0,0.0,0.0,0.0,0.0,0.0,0.0,0.0,0.0,0.0,0.0,0.0,0.0,0.0,0.0,0.0,0.0,0.0,0.0,0.0,0.0,0.0,0.0,0.0,0.0,0.0,0.0,0.0,0.0,0.0,0.0,0.0,0.0,0.0,0.0,0.0,0.0,0.0,0.0,0.0,0.0,0.0,0.0,0.0,0.0,0.0,0.0,0.0,0.0,0.0,0.0,0.0,0.0,0.0,0.0,0.0,0.0,0.0,0.0,0.0,0.0,0.0,0.0,-3.0477,-3.0507,0.0,-3.0598,-3.0598,-3.0598,-3.0598,-3.0598,-3.0598,0.0,0.0,0.0,0.0,0.0,0.0,0.0,0.0,0.0,0.0,0.0,0.0,0.0,0.0,0.0,0.0,0.0,0.0,0.0,0.0,0.0,0.0,0.0,0.0,0.0,0.0,0.0,0.0,0.0,0.0,0.0,0.0,0.0,0.0,0.0,0.0,0.0,0.0,0.0,0.0,0.0,0.0,0.0,0.0,0.0,0.0,0.0,0.0,0.0,0.0,0.0,0.0,0.0,0.0,0.0,0.0,0.0,0.0,0.0,0.0,0.0,0.0,0.0,0.0,0.0,0.0,0.0,0.0,0.0,0.0,0.0,0.0,0.0,0.0,0.0,0.0,0.0,0.0,0.0,0.0,0.0,0.0,0.0,0.0,0.0,0.0,0.0,0.0,0.0,0.0,0.0,0.0,0.0,0.0,0.0,0.0,0.0,0.0,0.0,0.0,0.0,0.0,-3.1192,-3.1192,-3.1192,0.0,-3.1192,-3.1105,-3.0887,-3.0872,-3.0816,-3.0612,0.0,0.0,0.0,0.0,0.0,0.0,0.0,0.0,0.0,0.0,0.0,0.0,0.0,0.0,0.0,0.0,0.0,0.0,0.0,0.0,0.0,0.0,0.0,0.0,0.0,0.0,0.0,0.0,0.0,0.0,0.0,0.0,0.0,0.0,0.0,0.0,0.0,0.0,0.0,0.0,0.0,0.0,0.0,0.0,0.0,0.0,0.0,0.0,0.0,0.0,0.0,0.0,0.0,0.0,0.0,0.0,0.0,0.0,0.0,0.0,0.0,0.0,0.0,0.0,0.0,0.0,0.0,0.0,0.0,0.0,0.0,0.0,0.0,0.0,0.0,0.0,0.0,0.0,0.0,0.0,0.0,0.0,0.0,0.0,0.0,0.0,0.0,0.0,0.0,0.0,0.0,0.0,0.0,0.0,0.0,0.0,0.0,0.0,0.0,0.0,0.0,0.0,-3.2481,-3.2481,-3.2481,-3.2481,-3.2481,-3.222,-3.1553,-3.1495,-3.1264,0.0,0.0,0.0,0.0,0.0,0.0,0.0,0.0,0.0,0.0,0.0,0.0,0.0,0.0,0.0,0.0,0.0,0.0,0.0,0.0,0.0,0.0,0.0,0.0,0.0,0.0,0.0,0.0,0.0,0.0,0.0,0.0,0.0,0.0,0.0,0.0,0.0,0.0,0.0,0.0,0.0,0.0,0.0,0.0,0.0,0.0,0.0,0.0,0.0,0.0,0.0,0.0,0.0,0.0,0.0,0.0,0.0,0.0,0.0,0.0,0.0,0.0,0.0,0.0,0.0,0.0,0.0,0.0,0.0,0.0,0.0,0.0,0.0,0.0,0.0,0.0,0.0,0.0,0.0,0.0,0.0,0.0,0.0,0.0,0.0,0.0,0.0,0.0,0.0,0.0,0.0,0.0,0.0,0.0,0.0,0.0,0.0,0.0,0.0,0.0,0.0,0.0,0.0,-3.2481,-3.2481,-3.2481,-3.2481,-3.2481,-3.2408,-3.2205,-3.2222,-3.215,-3.1961,0.0,0.0,0.0,0.0,0.0,0.0,0.0,0.0,0.0,0.0,0.0,0.0,0.0,0.0,0.0,0.0,0.0,0.0,0.0,0.0,0.0,0.0,0.0,0.0,0.0,0.0,0.0,0.0,0.0,0.0,0.0,0.0,0.0,0.0,0.0,0.0,0.0,0.0,0.0,0.0,0.0,0.0,0.0,0.0,0.0,0.0,0.0,0.0,0.0,0.0,0.0,0.0,0.0,0.0,0.0,0.0,0.0,0.0,0.0,0.0,0.0,0.0,0.0,0.0,0.0,0.0,0.0,0.0,0.0,0.0,0.0,0.0,0.0,0.0,0.0,0.0,0.0,0.0,0.0,0.0,0.0,0.0,0.0,0.0,0.0,0.0,0.0,0.0,0.0,0.0,0.0,0.0,0.0,0.0,0.0,0.0,0.0,0.0,0.0,0.0,0.0,0.0,-3.3282,-3.3282,-3.3282,-3.3282,-3.3282,-3.3166,-3.2919,-3.2904,-3.2788,-3.2527,0.0,0.0,0.0,0.0,0.0,0.0,0.0,0.0,0.0,0.0,0.0,0.0,0.0,0.0,0.0,0.0,0.0,0.0,0.0,0.0,0.0,0.0,0.0,0.0,0.0,0.0,0.0,0.0,0.0,0.0,0.0,0.0,0.0,0.0,0.0,0.0,0.0,0.0,0.0,0.0,0.0,0.0,0.0,0.0,0.0,0.0,0.0,0.0,0.0,0.0,0.0,0.0,0.0,0.0,0.0,0.0,0.0,0.0,0.0,0.0,0.0,0.0,0.0,0.0,0.0,0.0,0.0,0.0,0.0,0.0,0.0,0.0,0.0,0.0,0.0,0.0,0.0,0.0,0.0,0.0,0.0,0.0,0.0,0.0,0.0,0.0,0.0,0.0,0.0,0.0,0.0,0.0,0.0,0.0,0.0,0.0,0.0,0.0,0.0,0.0,0.0,0.0,-3.4414,-3.4414,-3.4414,-3.4414,-3.4414,-3.4182,-3.3634,-3.359,-3.3311,-3.2698,0.0,0.0,0.0,0.0,0.0,0.0,0.0,0.0,0.0,0.0,0.0,0.0,0.0,0.0,0.0,0.0,0.0,0.0,0.0,0.0,0.0,0.0,0.0,0.0,0.0,0.0,0.0,0.0,0.0,0.0,0.0,0.0,0.0,0.0,0.0,0.0,0.0,0.0,0.0,0.0,0.0,0.0,0.0,0.0,0.0,0.0,0.0,0.0,0.0,0.0,0.0,0.0,0.0,0.0,0.0,0.0,0.0,0.0,0.0,0.0,-3.1092,0.0,0.0,0.0,0.0,0.0,0.0,0.0,0.0,0.0,0.0,0.0,0.0,0.0,0.0,0.0,0.0,0.0,0.0,0.0,0.0,0.0,0.0,0.0,0.0,0.0,0.0,0.0,0.0,0.0,0.0,0.0,0.0,0.0,0.0,0.0,0.0,0.0,0.0,0.0,0.0,0.0,-3.4414,-3.4414,-3.4414,-3.4414,-3.4414,-3.4356,-3.4225,-3.4211,-3.4153,-3.4008,0.0,0.0,0.0,0.0,0.0,0.0,0.0,0.0,0.0,0.0,0.0,0.0,0.0,0.0,0.0,0.0,0.0,0.0,0.0,0.0,0.0,0.0,0.0,0.0,0.0,0.0,0.0,0.0,0.0,0.0,0.0,0.0,0.0,0.0,0.0,0.0,0.0,0.0,0.0,0.0,0.0,0.0,0.0,0.0,0.0,0.0,0.0,0.0,0.0,0.0,0.0,0.0,0.0,0.0,0.0,0.0,0.0,0.0,0.0,0.0,0.0,-3.1485,0.0,0.0,0.0,0.0,0.0,0.0,0.0,0.0,0.0,0.0,0.0,0.0,0.0,0.0,0.0,0.0,0.0,0.0,0.0,0.0,0.0,0.0,0.0,0.0,0.0,0.0,0.0,0.0,0.0,0.0,0.0,0.0,0.0,0.0,0.0,0.0,0.0,0.0,0.0,0.0,-3.4414,-3.4414,-3.4414,-3.4414,-3.4414,-3.4414,-3.4414,-3.4414,-3.4414,-3.4414,-3.4109,0.0,0.0,0.0,0.0,0.0,0.0,0.0,0.0,0.0,0.0,0.0,0.0,0.0,0.0,0.0,0.0,0.0,0.0,0.0,0.0,0.0,0.0,0.0,0.0,0.0,0.0,0.0,0.0,0.0,0.0,0.0,0.0,0.0,0.0,0.0,0.0,0.0,0.0,0.0,0.0,0.0,0.0,0.0,0.0,0.0,0.0,0.0,0.0,0.0,0.0,0.0,0.0,0.0,-3.2651,-3.289,-3.2904,-3.341,-3.3649,-3.3593,-3.2567,-3.2005,-3.1808,0.0,0.0,0.0,0.0,0.0,0.0,0.0,0.0,0.0,0.0,0.0,0.0,0.0,0.0,0.0,0.0,0.0,0.0,0.0,0.0,0.0,0.0,0.0,0.0,0.0,-3.3922,-3.4124,0.0,0.0,0.0,0.0,0.0,0.0,0.0,0.0,0.0,0.0,0.0,0.0,-3.4414,-3.4414,-3.4414,-3.4414,-3.4414,-3.4414,-3.4414,-3.4414,-3.4414,-3.4414,-3.4414,-3.4182,0.0,0.0,0.0,0.0,0.0,0.0,0.0,0.0,0.0,0.0,0.0,0.0,0.0,0.0,0.0,0.0,0.0,0.0,0.0,0.0,0.0,0.0,0.0,0.0,0.0,0.0,0.0,0.0,0.0,0.0,0.0,0.0,-2.9415,-2.954,0.0,0.0,0.0,0.0,0.0,0.0,0.0,0.0,0.0,0.0,0.0,0.0,0.0,0.0,-3.3073,-3.3571,-3.414,-3.4711,-3.4795,-3.4823,-3.4823,-3.4908,-3.495,-3.4936,-3.4781,0.0,-3.3073,-3.3073,0.0,0.0,0.0,0.0,0.0,0.0,0.0,0.0,0.0,0.0,0.0,0.0,0.0,0.0,0.0,0.0,0.0,0.0,0.0,0.0,0.0,0.0,-3.425,-3.425,-3.4322,-3.437,0.0,-3.4225,-3.4283,-3.4283,0.0,0.0,0.0,0.0,0.0,0.0,0.0,0.0,-3.4414,-3.4414,-3.4414,-3.4414,-3.4414,-3.4414,-3.4414,-3.4414,-3.4414,-3.4414,-3.4414,-3.437,-3.4283,-3.4283,0.0,0.0,0.0,0.0,0.0,0.0,0.0,0.0,0.0,0.0,0.0,0.0,0.0,0.0,0.0,0.0,0.0,0.0,0.0,0.0,0.0,0.0,0.0,0.0,0.0,0.0,0.0,0.0,0.0,-2.9383,-2.9666,-3.0048,-3.0091,-3.0263,0.0,0.0,0.0,0.0,0.0,0.0,0.0,0.0,0.0,-3.3572,-3.3853,-3.4239,-3.4857,-3.5138,-3.5574,-3.6216,-3.6216,-3.6216,-3.6216,-3.6216,-3.6216,-3.6216,-3.6216,-3.5686,-3.4843,-3.4492,-3.4155,-3.381,0.0,0.0,0.0,0.0,-3.329,-3.3276,-3.3157,-3.3108,0.0,0.0,0.0,0.0,0.0,0.0,0.0,0.0,0.0,0.0,0.0,0.0,0.0,-3.5386,-3.5488,-3.5488,-3.5488,-3.5488,-3.527,0.0,-3.4414,-3.453,-3.4893,0.0,0.0,0.0,0.0,0.0,-3.4893,-3.4951,-3.5082,-3.5444,-3.5154,-3.4951,-3.4951,-3.4617,-3.4414,-3.4414,-3.4414,-3.4414,-3.4414,-3.4414,-3.4283,0.0,0.0,0.0,0.0,0.0,0.0,0.0,0.0,0.0,0.0,0.0,0.0,0.0,0.0,0.0,0.0,0.0,0.0,0.0,0.0,0.0,0.0,0.0,0.0,0.0,0.0,0.0,0.0,-2.9841,-3.0066,-3.0666,-3.0769,-3.0965,0.0,0.0,0.0,0.0,0.0,0.0,-3.3747,-3.3944,-3.4436,-3.54,-3.5583,-3.5949,-3.6567,-3.6581,-3.6891,-3.751,-3.751,-3.751,-3.751,-3.751,-3.751,-3.751,-3.751,-3.7242,-3.675,-3.5808,-3.5062,-3.4478,-3.4478,-3.4197,-3.3789,-3.3789,-3.3789,-3.3754,-3.3619,-3.3569,-3.3583,-3.3682,0.0,-3.3931,-3.4319,0.0,0.0,0.0,0.0,-3.5009,-3.5488,-3.5639,-3.5755,-3.6199,-3.6301,-3.6301,-3.6301,-3.6301,-3.6025,0.0,-3.4893,-3.5038,-3.5552,0.0,0.0,0.0,0.0,-3.5067,-3.5581,-3.5639,-3.5778,-3.6257,-3.5894,-3.5639,-3.5639,-3.5024,-3.4661,-3.4661,-3.4501,-3.4414,-3.4414,-3.4414,-3.4414,-3.4414,0.0,0.0,0.0,0.0,0.0,0.0,0.0,0.0,0.0,0.0,0.0,0.0,0.0,0.0,0.0,0.0,0.0,0.0,0.0,0.0,0.0,0.0,0.0,0.0,0.0,0.0,0.0,0.0,0.0,-3.1359,-3.1443,0.0,0.0,0.0,0.0,-3.3192,-3.4345,-3.5034,-3.5091,-3.5653,-3.6005,-3.6061,-3.6624,-3.7189,-3.7793,-3.7807,-3.8131,-3.8818,-3.8818,-3.8818,-3.8818,-3.8818,-3.8818,-3.8818,-3.8818,-3.879,-3.8635,-3.6806,-3.5695,-3.5147,-3.5147,-3.5119,-3.5091,-3.5091,-3.5091,-3.5105,-3.5091,-3.5091,-3.5054,-3.4869,-3.5068,-3.5457,-3.5769,-3.6021,0.0,0.0,-3.6214,-3.6214,-3.6257,-3.6257,-3.6272,-3.6301,-3.6301,-3.6301,-3.6301,-3.6301,-3.6286,0.0,-3.6214,-3.6228,-3.6257,0.0,-3.6228,-3.6257,-3.6228,-3.6228,-3.6257,-3.6257,-3.6272,-3.6301,-3.6272,-3.6257,-3.6257,-3.5712,-3.5348,-3.5348,-3.4748,-3.4414,-3.4414,-3.4414,-3.4414,-3.4414,-3.4385,0.0,0.0,0.0,0.0,0.0,0.0,0.0,0.0,0.0,0.0,0.0,0.0,0.0,0.0,0.0,0.0,0.0,0.0,0.0,0.0,0.0,0.0,0.0,0.0,0.0,0.0,0.0,0.0,-3.2553,-3.2665,0.0,0.0,-3.4275,-3.466,-3.5054,-3.5527,-3.6131,-3.688,-3.7133,-3.7442,-3.7903,-3.8128,-3.8496,-3.91,-3.9114,-3.9423,-4.0041,-4.0041,-4.0041,-4.0041,-4.0041,-4.0041,-4.0041,-4.0041,-3.9816,-3.9451,-3.8775,-3.7889,-3.6922,-3.6922,-3.6722,-3.637,-3.637,-3.637,-3.637,-3.6523,-3.6561,-3.6599,-3.6803,-3.7052,-3.7275,-3.7372,-3.7446,-3.752,-3.752,-3.752,-3.7622,-3.8057,-3.8173,-3.826,-3.8652,-3.8754,-3.8754,-3.8754,-3.8754,-3.8754,-3.8754,-3.7418,-3.6446,-3.6881,-3.6591,-3.646,-3.6881,-3.6591,-3.646,-3.6896,-3.6954,-3.7099,-3.7491,-3.7186,-3.6954,-3.6954,-3.6344,-3.5967,-3.5967,-3.5372,-3.5058,-3.5058,-3.4632,-3.4414,-3.4414,-3.4414,-3.4298,0.0,0.0,0.0,0.0,0.0,0.0,0.0,0.0,0.0,0.0,0.0,0.0,0.0,0.0,0.0,0.0,0.0,0.0,0.0,0.0,0.0,0.0,0.0,0.0,0.0,0.0,-3.2567,-3.3789,-3.4126,-3.4562,-3.5414,-3.5878,-3.6286,-3.6694,-3.6933,-3.7411,-3.8187,-3.8426,-3.8735,-3.9197,-3.9422,-3.9676,-4.0083,-4.0083,-4.0294,-4.0702,-4.0702,-4.0702,-4.0702,-4.0702,-4.0702,-4.0702,-4.0702,-4.0463,-4.0083,-4.0083,-3.9606,-3.8805,-3.8383,-3.7976,-3.7625,-3.7625,-3.7625,-3.7664,-3.7862,-3.794,-3.8019,-3.8447,-3.8678,-3.8741,-3.8803,-3.8841,-3.8841,-3.8841,-3.8841,-3.8942,-3.9392,-3.9509,-3.9596,-4.0002,-4.0104,-4.0104,-4.0104,-4.0104,-4.0104,-4.0104,-3.8565,-3.7418,-3.7868,-3.7389,-3.7099,-3.7549,-3.723,-3.7114,-3.7549,-3.7607,-3.7767,-3.8159,-3.7839,-3.7607,-3.7607,-3.7012,-3.6649,-3.6649,-3.604,-3.5625,-3.5407,-3.4951,-3.4632,-3.4414,-3.4414,-3.4414,-3.4414,0.0,0.0,0.0,0.0,0.0,0.0,0.0,0.0,0.0,0.0,0.0,0.0,0.0,0.0,0.0,0.0,0.0,0.0,0.0,0.0,0.0,0.0,0.0,-3.3375,-3.3333,-3.3859,-3.5105,-3.5794,-3.6174,-3.6188,-3.7231,-3.7934,-3.7962,-3.8538,-3.8944,-3.8972,-3.9535,-3.9816,-3.9816,-4.0407,-4.073,-4.073,-4.0744,-4.0758,-4.0758,-4.0758,-4.0744,-4.073,-4.073,-4.0716,-4.0702,-4.0702,-4.0702,-4.0702,-4.0702,-4.0702,-4.0575,-3.9422,-3.8972,-3.8972,-3.8972,-3.8958,-3.8999,-3.9217,-3.9258,-3.9339,-3.9754,-3.9873,-3.9913,-4.0083,-4.0162,-4.0162,-4.0162,-4.0162,-4.0162,-4.0162,-4.0162,-4.0162,-4.0162,-4.0162,-4.0162,-4.0162,-4.0162,-4.0162,-4.0162,-3.9668,-3.9247,-3.9233,-3.8696,-3.826,-3.826,-3.826,0.0,-3.826,-3.8246,-3.8231,-3.8231,-3.8217,-3.8202,-3.8202,-3.7665,-3.7331,-3.7331,-3.6707,-3.6069,-3.5479,-3.5436,-3.5116,-3.4457,-3.4428,-3.4414,-3.4414,0.0,0.0,0.0,0.0,0.0,0.0,0.0,0.0,0.0,0.0,0.0,0.0,0.0,0.0,0.0,0.0,0.0,0.0,0.0,0.0,0.0,0.0,-3.4534,-3.3431,-3.4478,-3.5639,-3.6427,-3.7021,-3.7583,-3.8086,-3.8438,-3.8832,-3.9226,-3.9437,-3.9718,-4.0168,-4.035,-4.0449,-4.0449,-4.1039,-4.1362,-4.1362,-4.1826,-4.2064,-4.2064,-4.2064,-4.1812,-4.1362,-4.1362,-4.1109,-4.0702,-4.0702,-4.0702,-4.0702,-4.0702,-4.0702,-4.0674,-4.0322,-4.0196,-4.0196,-4.0196,-4.0309,-4.0463,-4.07,-4.0867,-4.106,-4.1377,-4.1473,-4.1473,-4.1555,-4.1555,-4.1555,-4.1555,-4.1555,-4.1555,-4.1555,-4.1555,-4.1555,-4.1555,-4.1555,-4.1555,-4.1555,-4.1555,-4.1555,-4.1555,-4.1018,-4.0423,-3.9944,-3.9697,-3.9581,-3.9581,-3.9581,0.0,-3.9581,-3.9204,-3.8928,-3.8928,-3.8492,-3.8202,-3.8202,-3.8043,-3.7955,-3.7955,-3.7375,-3.6954,-3.678,-3.6315,-3.5749,-3.5145,-3.4646,-3.4414,0.0,0.0,0.0,0.0,0.0,0.0,0.0,0.0,0.0,0.0,0.0,0.0,0.0,0.0,0.0,0.0,0.0,0.0,0.0,0.0,0.0,0.0,-3.533,-3.5794,-3.5307,-3.6164,-3.7077,-3.7735,-3.8313,-3.8833,-3.9254,-3.9535,-3.9788,-4.014,-4.0168,-4.0322,-4.0674,-4.094,-4.1081,-4.1081,-4.1685,-4.2022,-4.2022,-4.2388,-4.2584,-4.2584,-4.2584,-4.2388,-4.2022,-4.2022,-4.1826,0.0,-4.1207,-4.1081,-4.1067,-4.08,-4.0702,0.0,0.0,0.0,0.0,0.0,-4.0887,-4.1043,-4.1409,-4.1577,-4.1744,-4.1995,-4.2092,-4.2092,-4.2092,-4.2092,-4.2092,-4.2092,-4.2092,-4.2092,-4.2092,-4.2092,-4.2092,-4.2092,-4.2092,-4.2092,-4.2092,-4.2092,-4.2092,-4.2092,-4.1787,0.0,-4.1004,-4.0466,-4.0104,-4.0104,-4.0104,-4.0104,-4.0104,-3.9784,-3.9581,-3.9581,-3.9233,-3.8884,-3.8638,-3.8623,0.0,0.0,0.0,-3.7564,-3.7317,-3.6664,0.0,0.0,0.0,-3.482,-3.4806,0.0,0.0,0.0,-3.424,-3.3989,0.0,0.0,0.0,0.0,0.0,0.0,0.0,0.0,0.0,0.0,0.0,0.0,0.0,0.0,0.0,0.0,-3.6778,-3.74,-3.8032,-3.8173,-3.8397,-3.8958,-3.9549,-3.9887,-3.9887,-4.0378,-4.0702,-4.0702,-4.0702,-4.073,-4.08,0.0,0.0,0.0,0.0,-4.2683,-4.2683,-4.2753,-4.2781,-4.2781,-4.2781,-4.2753,-4.2683,-4.2683,-4.264,-4.2556,-4.1966,-4.1685,-4.1573,-4.1025,-4.0758,-4.0702,-4.0702,-4.0702,-4.073,-4.093,-4.1001,-4.1085,-4.1521,0.0,0.0,-4.1995,-4.2092,-4.2092,-4.2092,-4.2092,-4.2092,-4.2092,-4.2092,-4.2092,-4.2092,-4.2092,-4.2092,-4.2092,-4.2092,-4.2092,-4.2092,-4.2092,-4.2092,-4.2092,-4.2092,-4.2092,-4.2092,-4.1105,-4.0321,-4.0321,-4.0321,-4.0321,-4.0321,-4.0249,-4.0205,-4.0205,0.0,0.0,-3.9349,-3.9305,-3.903,-3.8362,-3.8246,-3.797,-3.7433,-3.6765,-3.6417,-3.6417,-3.5793,-3.5508,-3.5508,-3.4893,-3.4617,-3.4617,-3.4486,-3.4414,0.0,0.0,0.0,0.0,0.0,0.0,0.0,0.0,0.0,0.0,0.0,0.0,0.0,0.0,0.0,-3.675,-3.7805,-3.8761,-3.9339,-3.9845,-4.0027,-3.9648,-4.0154,-4.0519,-4.0519,-4.0631,-4.0702,-4.0702,-4.0702,-4.0912,-4.1404,-4.1559,0.0,-4.2374,-4.2992,-4.3329,-4.3329,-4.3807,-4.4059,-4.4059,0.0,0.0,-4.3329,-4.3329,-4.3048,-4.257,-4.2444,-4.2093,-4.1601,-4.1474,-4.1151,-4.0702,-4.0702,-4.0702,-4.073,-4.093,-4.1001,-4.1085,-4.1521,-4.1688,-4.1744,-4.1995,-4.2092,-4.2092,-4.2092,-4.2092,0.0,-4.2092,-4.2092,-4.2092,-4.2092,-4.2092,-4.2092,-4.2092,-4.2092,-4.2092,-4.2092,-4.2092,-4.2092,-4.2092,-4.2092,-4.2092,-4.2092,-4.1874,-4.17,-4.17,-4.17,-4.17,-4.17,-4.1236,-4.0902,-4.0902,-4.0423,-4.0046,-3.9929,-3.9929,-3.9654,-3.9044,-3.8507,-3.8144,-3.8028,-3.7433,-3.7114,-3.7114,-3.646,-3.6127,-3.6127,-3.5996,-3.5938,-3.5923,-3.4893,-3.4414,0.0,0.0,0.0,0.0,0.0,0.0,0.0,0.0,0.0,0.0,0.0,-3.57,0.0,0.0,-3.7707,-3.8285,-3.8958,-3.9577,-4.0154,-4.0505,-4.0589,-4.028,-4.0519,-4.0702,-4.0702,-4.0702,-4.0702,-4.0702,-4.0983,-4.1292,-4.1587,-4.2205,-4.2697,-4.3034,-4.3638,-4.3947,-4.3947,-4.4256,-4.4411,-4.4411,-4.4411,-4.4242,-4.3947,-4.3947,-4.3793,-4.3469,-4.3174,-4.2851,-4.25,-4.1868,-4.1519,-4.1296,-4.0971,-4.0845,-4.0887,-4.1114,-4.1269,-4.1395,-4.1758,-4.1897,-4.1939,-4.2051,-4.2092,-4.2092,-4.2092,-4.2092,-4.2092,-4.2092,-4.2092,-4.2092,-4.2092,-4.2092,-4.2092,-4.2092,-4.2092,-4.2092,-4.2092,-4.2092,-4.2092,-4.2092,-4.2092,-4.2092,-4.2092,-4.2092,-4.2092,-4.2092,-4.2092,-4.2092,-4.2092,-4.1802,-4.1599,-4.1599,-4.1294,-4.096,-4.0626,-4.0292,-3.9973,-3.9668,-3.9059,-3.8696,-3.8696,-3.8086,-3.7752,-3.7752,-3.7128,-3.6809,-3.6809,-3.6475,-3.6301,-3.6286,-3.5662,-3.5357,0.0,0.0,0.0,0.0,0.0,0.0,0.0,0.0,-3.54,-3.5527,-3.6427,-3.7203,-3.733,-3.8311,-3.924,-3.9704,-3.9887,-4.0126,-4.0631,-4.0702,-4.0702,-4.0702,-4.0702,-4.0702,-4.0702,-4.0702,-4.0702,-4.0702,-4.1264,-4.1671,-4.1797,-4.2879,-4.3554,-4.3666,-4.4158,-4.4411,-4.4411,-4.4411,-4.4411,-4.4411,-4.4411,-4.4411,-4.4411,-4.4411,-4.4411,-4.4383,-4.3764,-4.3497,-4.3399,-4.2135,-4.1746,-4.1864,-4.1256,-4.1043,-4.11,-4.1381,-4.1549,-4.1744,-4.1995,-4.2092,-4.2092,-4.2092,-4.2092,-4.2092,-4.2092,-4.2092,-4.2092,-4.2092,-4.2092,-4.2092,-4.2092,-4.2092,-4.2092,-4.2092,-4.2092,-4.2092,-4.2092,-4.2092,-4.2092,-4.2092,-4.2092,-4.2092,-4.2092,-4.2092,-4.2092,-4.2092,-4.2092,-4.2092,-4.2092,-4.2092,-4.2092,-4.2092,-4.2092,-4.1874,-4.1337,-4.067,-4.0292,-4.0292,-3.9712,-3.932,-3.9204,-3.8681,-3.8333,-3.8202,-3.7723,-3.7476,-3.7476,-3.6939,-3.6678,-3.6678,-3.6678,-3.6548,-3.3122,-3.3234,-3.3319,-3.3852,-3.4104,-3.4343,0.0,0.0,-3.6159,-3.6708,-3.7316,-3.7976,-3.8593,-3.9254,-3.9704,-3.9774,-4.0238,-4.0617,-4.0688,-4.0702,-4.0702,-4.0702,-4.0702,-4.0702,-4.0702,-4.0702,-4.0702,-4.0702,-4.1264,-4.1868,-4.2444,-4.3118,-4.375,-4.4284,-4.4369,-4.4411,-4.4411,-4.4411,-4.4411,-4.4411,-4.4411,-4.4411,-4.4411,-4.4411,-4.4411,-4.4383,-4.3764,-4.3497,-4.3399,-4.2135,-4.1615,-4.1588,-4.117,-4.1142,-4.1381,-4.1577,-4.1702,-4.1744,-4.1995,-4.2092,-4.2092,-4.2092,-4.2092,-4.2092,-4.2092,-4.2092,-4.2092,-4.2092,-4.2092,-4.2092,-4.2092,-4.2092,-4.2092,-4.2092,-4.2092,-4.2092,-4.2092,-4.2092,-4.2092,-4.2092,-4.2092,-4.2092,-4.2092,-4.2092,-4.2092,-4.2092,-4.2092,-4.2092,-4.2092,-4.2092,-4.2092,-4.2092,-4.2092,-4.2063,-4.199,-4.1366,-4.0989,-4.0989,-4.0365,-3.9755,-3.9218,-3.9131,-3.8812,-3.8217,-3.813,-3.8101,-3.8101,-3.8028,-3.7984,-3.7984,-3.7984,-3.7389,-3.3557,-3.4112,0.0,0.0,-3.5307,-3.5897,-3.6202,-3.7031,-3.7805,-3.8072,-3.8566,-3.9072,-3.9353,-3.9901,-4.0308,0.0,-4.0533,-4.0702,-4.0702,-4.0702,-4.0702,-4.0702,-4.0702,-4.0702,-4.0702,-4.0702,-4.0702,-4.0702,-4.1615,-4.2289,-4.257,-4.3512,-4.4144,-4.4397,-4.4411,-4.4411,-4.4411,-4.4411,-4.4411,-4.4411,-4.4411,-4.4411,-4.4411,-4.4411,-4.4411,-4.4397,-4.4144,-4.4031,-4.3961,-4.3076,-4.2575,-4.2314,-4.1895,-4.1696,-4.1577,-4.166,-4.18,-4.1939,-4.2051,-4.2092,-4.2092,-4.2092,-4.2092,-4.2092,-4.2092,-4.2092,-4.2092,-4.2092,-4.2092,-4.2092,-4.2092,-4.2092,-4.2092,-4.2092,-4.2092,-4.2092,-4.2092,-4.2092,-4.2092,-4.2092,-4.2092,-4.2092,-4.2092,-4.2092,-4.2092,-4.2092,-4.2092,-4.2092,-4.2092,-4.2092,-4.2092,-4.2092,-4.2092,-4.2092,-4.2092,-4.1845,-4.1671,-4.1671,-4.1047,-4.0568,-4.0321,-3.9929,-3.9421,-3.8797,-3.8783,-3.8594,-3.8202,-3.8202,-3.8202,-3.8202,-3.8202,-3.7912,-3.4253,0.0,0.0,-3.5653,-3.6497,-3.7288,-3.7456,-3.8382,-3.9169,-3.9169,-3.9606,-4.0041,-4.0041,-4.0407,0.0,-4.0702,-4.0702,-4.0702,-4.0702,-4.0702,-4.0702,-4.0702,-4.0702,-4.0702,-4.0702,-4.0702,-4.0702,-4.0702,-4.1868,-4.2584,-4.2584,-4.3736,-4.4411,-4.4411,-4.4411,-4.4411,-4.4411,-4.4411,-4.4411,-4.4411,-4.4411,-4.4411,-4.4411,-4.4411,-4.4411,-4.4411,-4.4411,-4.4411,-4.4355,-4.375,-4.3307,-4.2994,-4.2421,-4.2081,-4.1863,-4.1718,-4.1883,-4.2092,-4.2092,-4.2092,-4.2092,-4.2092,-4.2092,-4.2092,-4.2092,-4.2092,-4.2092,-4.2092,-4.2092,-4.2092,-4.2092,-4.2092,-4.2092,-4.2092,-4.2092,-4.2092,-4.2092,-4.2092,-4.2092,-4.2092,-4.2092,-4.2092,-4.2092,-4.2092,-4.2092,-4.2092,-4.2092,-4.2092,-4.2092,-4.2092,-4.2092,-4.2092,-4.2092,-4.2092,-4.2092,-4.2092,-4.2092,-4.2092,-4.1642,-4.1279,-4.1105,-4.0626,-4.0075,-3.9465,-3.945,-3.9131,-3.8478,-3.8478,-3.8376,-3.8202,-3.8202,-3.8202,0.0,0.0,-3.6216,-3.6782,-3.74,-3.8032,-3.8705,-3.9297,-3.9746,-3.9746,-4.0238,-4.0674,-4.0674,-4.0688,-4.0702,-4.0702,-4.0702,-4.0702,-4.0702,-4.0702,-4.0702,-4.0702,-4.0702,-4.0702,0.0,-4.0702,-4.0702,-4.0702,-4.1868,-4.2584,-4.2584,-4.3736,-4.4411,-4.4411,-4.4411,-4.4411,-4.4411,-4.4411,-4.4411,-4.4411,-4.4411,-4.4411,-4.4411,-4.4411,-4.4411,-4.4411,-4.4411,-4.4411,-4.4355,-4.375,-4.3483,-4.3389,-4.2372,-4.2137,-4.2224,-4.1834,-4.1883,-4.2092,-4.2092,-4.2092,-4.2092,-4.2092,-4.2092,-4.2092,-4.2092,-4.2092,-4.2092,-4.2092,-4.2092,-4.2092,-4.2092,-4.2092,-4.2092,-4.2092,-4.2092,-4.2092,-4.2092,-4.2092,-4.2092,-4.2092,-4.2092,-4.2092,-4.2092,-4.2092,-4.2092,-4.2092,-4.2092,-4.2092,-4.2092,-4.2092,-4.2092,-4.2092,-4.2092,-4.2092,-4.2092,-4.2092,-4.2092,-4.2092,-4.2078,-4.1773,-4.112,-4.1076,-4.0757,-4.0089,-4.0075,-3.977,-3.9175,-3.9175,-3.8841,-3.8202,-3.8202,-3.8202,0.0,0.0,-3.7442,-3.8114,-3.8693,-3.9212,-3.9465,-3.9943,-4.0393,-4.0393,-4.0561,-4.0702,-4.0702,-4.0702,-4.0702,-4.0702,-4.0702,-4.0702,-4.0702,-4.0702,-4.0702,-4.0702,-4.0702,0.0,0.0,0.0,0.0,-4.1278,-4.2093,-4.2753,-4.3174,-4.3961,-4.4411,-4.4411,-4.4411,-4.4411,-4.4411,-4.4411,-4.4411,-4.4411,-4.4411,-4.4411,-4.4411,-4.4411,-4.4411,-4.4411,-4.4411,-4.4411,-4.4397,-4.4186,-4.3863,-4.3501,-4.347,-4.2965,-4.2339,-4.2492,-4.2384,-4.2092,-4.2092,-4.2092,-4.2092,-4.2092,-4.2092,-4.2092,-4.2092,-4.2092,-4.2092,-4.2092,-4.2092,-4.2092,-4.2092,-4.2092,-4.2092,-4.2092,-4.2092,-4.2092,-4.2092,-4.2092,-4.2092,-4.2092,-4.2092,-4.2092,-4.2092,-4.2092,-4.2092,-4.2092,-4.2092,-4.2092,-4.2092,-4.2092,-4.2092,-4.2092,-4.2092,-4.2092,-4.2092,-4.2092,-4.2092,-4.2092,-4.2092,-4.199,-4.1773,-4.1758,-4.1439,-4.0771,-4.0757,-4.0437,-3.9799,-3.9799,-3.9479,-3.887,-3.887,-3.8623,-3.7091,-3.7934,-3.8678,-3.9127,-3.9662,-4.0112,-4.0112,-4.0407,-4.0702,-4.0702,-4.0702,-4.0702,-4.0702,-4.0702,-4.0702,-4.0702,-4.0702,-4.0702,-4.0702,-4.0702,-4.0702,-4.0702,-4.0702,0.0,0.0,0.0,0.0,-4.1559,-4.2219,-4.2851,-4.3469,-4.4074,-4.4411,-4.4411,-4.4411,-4.4411,-4.4411,-4.4411,-4.4411,-4.4411,-4.4411,-4.4411,-4.4411,-4.4411,-4.4411,-4.4411,-4.4411,-4.4411,-4.4411,-4.4504,-4.4325,-4.3991,-4.416,-4.374,-4.3141,-4.3199,-4.2892,-4.2382,-4.2165,-4.2092,-4.2092,-4.2092,-4.2092,-4.2092,-4.2092,-4.2092,-4.2092,-4.2092,-4.2092,-4.2092,-4.2092,-4.2092,-4.2092,-4.2092,-4.1814,-4.1577,-4.1577,-4.1577,-4.1577,-4.1577,-4.1856,-4.2092,-4.2092,-4.2092,-4.2092,-4.2092,-4.2092,-4.2092,-4.2092,-4.2092,-4.2092,-4.2092,-4.2092,-4.2092,-4.2092,-4.2092,-4.2092,-4.2092,-4.2092,-4.2092,-4.2092,-4.2092,-4.1903,-4.1468,-4.1453,-4.112,-4.0452,-4.0452,-4.0133,-3.9523,-3.9523,-3.9175,-3.7934,-3.8847,-3.9788,-3.9816,-4.0266,-4.0702,-4.0702,-4.0674,-4.0645,-4.0645,-4.0631,-4.0617,0.0,0.0,-4.0659,-4.0688,-4.0702,-4.0702,-4.0702,-4.0702,-4.0702,0.0,0.0,0.0,0.0,0.0,0.0,-4.1615,0.0,-4.2865,-4.3512,-4.4102,-4.4411,-4.4411,-4.4411,-4.4411,-4.4411,-4.4411,-4.4411,-4.4411,-4.4411,-4.4411,-4.4411,-4.4411,-4.4411,-4.4411,-4.4411,-4.4411,-4.4411,-4.469,-4.4797,-4.4773,-4.439,-4.4403,-4.4526,-4.3906,-4.3415,-4.2963,-4.2397,-4.215,-4.2092,-4.2092,-4.2092,-4.2092,-4.2092,-4.2092,-4.2092,-4.2092,-4.2092,-4.2092,-4.2051,-4.2009,-4.2009,-4.1953,-4.1212,-4.0504,-4.0504,-4.0504,-4.0546,-4.0603,-4.1395,-4.2092,-4.2092,-4.2092,-4.2092,-4.2092,-4.2092,-4.2092,-4.2092,-4.2092,-4.2092,-4.2092,-4.2092,-4.2092,-4.2092,-4.2092,-4.2092,-4.2092,-4.2051,-4.2051,-4.2092,-4.2051,-4.2051,-4.2092,-4.2092,-4.1787,-4.1149,-4.1149,-4.08,-4.0147,-4.0147,-3.9828,-3.841,-3.9226,-3.9901,-4.035,-4.0589,-4.0702,-4.0702,-4.0336,-4.0013,-4.0013,-3.9648,-3.9521,0.0,0.0,0.0,-4.0631,-4.0702,0.0,-4.0702,-4.0702,0.0,0.0,0.0,-4.0702,-4.0702,-4.1109,0.0,0.0,-4.2486,-4.3048,-4.4116,-4.4326,-4.4411,-4.4411,-4.4411,-4.4411,-4.4411,-4.4411,-4.4411,-4.4411,-4.4411,-4.4411,-4.4411,-4.4411,-4.4411,-4.4411,-4.4411,-4.4411,-4.4411,-4.469,-4.4797,-4.4815,-4.5058,-4.494,-4.4583,-4.4573,-4.4211,-4.3718,-4.3558,-4.289,-4.2092,-4.2092,-4.2092,-4.2092,-4.2092,-4.2092,-4.2092,-4.2092,-4.2092,-4.1912,-4.1156,-4.0972,-4.0802,-4.01,-3.9738,-3.9549,-3.9549,-3.9549,-3.9768,-4.0461,-4.1395,-4.2092,-4.2092,-4.2092,-4.2092,-4.2092,-4.2092,-4.2092,-4.2092,-4.2092,-4.2092,-4.2092,-4.2092,-4.2092,-4.2092,-4.2092,-4.2092,-4.2092,-4.1395,-4.1296,-4.2051,-4.1395,-4.1339,-4.2092,-4.2092,-4.202,-4.1845,-4.1845,-4.1497,-4.0844,-4.0844,-4.0495,-3.9043,-3.9718,-4.0266,-4.0617,-4.0702,-4.0702,-4.0702,-4.0224,-3.9788,-3.9788,-3.9338,0.0,0.0,0.0,0.0,0.0,0.0,0.0,-4.0659,-4.0702,-4.0702,0.0,-4.0702,0.0,-4.0702,-4.1264,-4.1882,0.0,-4.2837,-4.3399,-4.4355,-4.4411,-4.4411,-4.4411,-4.4411,-4.4411,-4.4411,-4.4411,-4.4411,-4.4411,-4.4411,-4.4411,-4.4411,-4.4411,-4.4411,-4.4411,0.0,-4.4411,-4.4411,-4.4769,-4.4908,-4.4954,-4.5458,-4.5483,-4.5165,-4.5284,-4.4922,-4.4385,-4.4385,-4.3544,-4.2484,-4.2484,-4.231,-4.2092,-4.2092,-4.2092,-4.2092,-4.2092,-4.2092,-4.1856,-4.0873,-4.0603,-4.0375,-3.9417,-3.8899,-3.8599,-3.8599,-3.8599,-3.8854,-3.9812,-4.0446,-4.083,-4.083,-4.117,-4.1437,-4.1437,-4.1814,-4.2092,-4.2092,-4.2092,-4.2092,-4.2092,-4.2092,-4.2092,-4.2092,-4.2092,-4.2092,-4.2092,-4.1577,-4.1535,-4.2092,-4.1577,-4.1535,-4.2092,-4.2092,-4.2092,-4.2092,-4.2092,-4.1903,-4.1541,-4.1541,-4.1178,-3.962,-4.0224,-4.0702,-4.0702,-4.0631,-4.0575,-4.0575,-4.0027,-3.9535,-3.9535,0.0,-3.8677,-3.8761,0.0,-3.8986,-3.9605,0.0,-3.9971,-4.0505,-4.0645,-4.0702,-4.0702,-4.0702,-4.073,-4.0814,-4.1376,-4.2008,-4.2654,-4.3273,-4.3849,-4.4383,-4.4411,-4.4411,-4.4411,-4.4411,-4.4411,-4.4411,-4.4411,-4.4411,-4.4411,-4.4411,-4.4411,-4.4411,-4.4411,-4.4411,-4.4411,0.0,0.0,-4.4411,-4.4862,-4.5078,-4.517,-4.564,-4.588,-4.588,-4.588,-4.5518,-4.5024,-4.5024,-4.4182,-4.3108,-4.3021,-4.2586,-4.2092,-4.2092,-4.2092,-4.2092,-4.2092,-4.2092,-4.1814,-4.0703,-4.0418,-4.0159,-3.9064,-3.8192,-3.7625,-3.7625,-3.7717,-3.8024,-3.8854,-3.9121,-3.9241,-3.9373,-3.9942,-4.0461,-4.0589,-4.1254,-4.1731,-4.1731,-4.1953,-4.2092,-4.2092,-4.2092,-4.2051,-4.1912,-4.2009,-4.2009,-4.1731,-4.1814,-4.1912,-4.1912,-4.1912,-4.1953,-4.2092,-4.2092,-4.2092,-4.2092,-4.2092,-4.2092,-4.2092,-4.2092,-4.1787,-3.962,-4.0224,-4.0702,-4.0702,-4.0322,-3.9943,-3.9943,-3.9044,0.0,0.0,0.0,-3.7456,-3.7976,-3.8074,0.0,-3.8958,0.0,0.0,0.0,0.0,-4.0702,0.0,0.0,0.0,0.0,0.0,0.0,0.0,0.0,0.0,-4.4397,-4.4411,-4.4411,-4.4411,-4.4411,-4.4411,-4.4411,-4.4411,-4.4411,-4.4411,-4.4411,-4.4411,-4.4411,-4.4411,-4.4411,-4.4411,0.0,0.0,-4.4411,-4.4737,-4.4954,-4.5124,-4.5458,-4.57,-4.588,-4.588,-4.5808,-4.5706,-4.5706,-4.4879,-4.3732,-4.3166,-4.2586,-4.2092,-4.2092,-4.2092,-4.2092,-4.2092,-4.2092,-4.1689,-3.9927,-3.9417,-3.9019,-3.7302,-3.6769,-3.6628,-3.6628,-3.7268,-3.7854,-3.8024,-3.8675,-3.9461,-4.0202,-3.9855,-3.9724,-4.0461,-4.0087,-3.9694,-3.9694,-4.11,-4.2092,-4.2092,-4.2092,-4.1758,-4.0916,-4.1619,-4.1409,-3.9796,-4.0432,-4.0873,-4.0873,-4.0873,-4.1254,-4.2092,-4.2092,-4.2092,-4.2092,-4.2092,-4.2092,-4.2092,-4.2092,-4.2034,-3.962,-4.0224,-4.0702,-4.0702,-4.0238,-3.9788,-3.9788,0.0,0.0,0.0,0.0,-3.7077,-3.7372,0.0,0.0,0.0,0.0,0.0,0.0,0.0,0.0,0.0,0.0,0.0,0.0,0.0,0.0,0.0,0.0,0.0,-4.4411,-4.4411,-4.4411,-4.4411,-4.4411,-4.4411,-4.4411,-4.4411,-4.4411,-4.4411,-4.4411,-4.4411,-4.4411,-4.4411,-4.4411,-4.4411,-4.4411,0.0,-4.4411,-4.4815,-4.5,-4.5124,-4.5549,-4.579,-4.588,-4.588,-4.588,-4.588,-4.588,-4.5053,-4.3935,-4.3616,-4.2876,-4.2092,-4.2092,-4.2092,-4.1995,-4.1479,-4.1296,-4.0901,-3.8957,-3.8464,-3.8102,-3.6722,-3.6405,-3.6405,-3.6405,-3.6769,-3.7083,-3.7083,-3.7428,-3.7874,-3.8347,-3.845,-3.8644,-3.9077,-3.9166,-3.921,-3.921,-4.0014,-4.0603,-4.0603,-4.0603,-4.0417,-3.9899,-4.0317,-4.0201,-3.9254,-3.9637,-4.0073,-4.0589,-4.0116,-4.0346,-4.1296,-4.0816,-4.0816,-4.1296,-4.1296,-4.1577,-4.2092,-4.1577,-4.1296,-3.9381,-3.9929,-4.0308,-4.0308,-3.9845,-3.9381,-3.9381,-3.851,0.0,0.0,-3.7316,-3.6978,-3.6978,0.0,0.0,0.0,0.0,0.0,0.0,0.0,0.0,0.0,0.0,0.0,0.0,0.0,0.0,0.0,0.0,0.0,-4.4411,-4.4411,-4.4411,-4.4411,-4.4411,-4.4411,-4.4411,-4.4411,-4.4411,-4.4411,-4.4411,-4.4411,-4.4411,-4.4411,-4.4411,-4.4411,-4.4411,0.0,0.0,-4.4862,-4.5078,-4.5216,-4.564,-4.5835,-4.588,-4.588,-4.588,-4.5866,-4.5721,-4.4937,-4.3921,-4.3589,-4.2837,-4.2092,-4.2092,-4.1953,-4.1619,-4.0831,-4.0461,-3.9899,-3.8251,-3.7808,-3.7579,-3.6628,-3.6405,-3.6405,-3.6405,-3.6405,-3.6405,-3.6405,-3.6405,-3.6452,-3.6675,-3.7129,-3.7592,-3.7763,-3.8238,-3.8585,-3.8585,-3.8585,-3.8585,-3.8585,-3.8975,-3.9121,-3.8899,-3.9077,-3.9033,-3.863,-3.8975,-3.9417,-3.9986,-3.9505,-3.9549,-4.0289,-3.9593,-3.9549,-4.0289,-4.0504,-4.1015,-4.1773,-4.0972,-4.0603,-3.8663,-3.9029,-3.9085,-3.9085,-3.8552,-3.8074,-3.8074,0.0,0.0,-3.7063,-3.7021,-3.6978,-3.6978,-3.6978,0.0,0.0,0.0,0.0,0.0,0.0,0.0,0.0,0.0,0.0,0.0,0.0,0.0,0.0,0.0,0.0,0.0,-4.4411,-4.4411,-4.4411,-4.4411,-4.4411,-4.4411,-4.4411,-4.4411,-4.4411,-4.4411,-4.4411,-4.4411,-4.4411,-4.4411,-4.4411,0.0,0.0,0.0,-4.4783,-4.506,-4.5458,-4.5504,-4.57,-4.588,-4.588,-4.588,-4.5793,-4.5184,-4.4545,-4.3748,-4.2292,-4.1924,-4.2092,-4.2092,-4.1479,-4.0731,-4.0646,-3.9986,-3.9077,-3.8069,-3.7808,-3.7579,-3.6628,-3.6405,-3.6405,-3.6405,-3.6405,-3.6405,-3.6405,-3.6405,-3.6675,-3.7533,-3.7049,-3.6815,-3.7671,-3.7129,-3.6675,-3.6675,-3.6675,-3.6675,-3.6675,-3.8179,-3.8854,-3.7978,-3.872,-3.845,-3.6769,-3.827,-3.8854,-3.8069,-3.881,-3.9241,-3.9329,-3.9241,-3.9241,-3.9329,-4.0159,-4.0646,-4.0731,-4.0646,-4.0603,-3.7557,-3.8339,-3.8902,-3.8902,-3.8383,-3.7906,-3.7906,0.0,0.0,-3.6978,-3.6978,-3.6978,-3.6978,-3.6978,-3.6978,0.0,0.0,0.0,0.0,0.0,0.0,0.0,0.0,0.0,0.0,0.0,0.0,0.0,0.0,0.0,0.0,-4.4411,-4.4411,-4.4411,-4.4411,-4.4411,-4.4411,-4.4411,-4.4411,-4.4411,-4.4411,-4.4411,-4.4411,-4.4411,-4.4504,-4.4644,0.0,0.0,0.0,-4.5138,-4.5321,-4.5504,-4.57,-4.579,-4.588,-4.588,-4.5304,-4.4405,-4.4134,-4.3036,-4.16,-4.0979,-4.057,-4.0331,-4.0331,-4.0057,-3.9637,-3.9077,-3.863,-3.816,-3.7222,-3.6956,-3.6862,-3.6499,-3.6405,-3.6405,-3.6405,-3.6405,-3.6405,-3.6405,-3.6405,-3.6499,-3.6909,-3.664,-3.6546,-3.6909,-3.664,-3.6405,-3.6405,-3.6405,-3.6405,-3.6405,-3.7083,-3.7348,-3.6989,-3.7302,-3.7209,-3.6452,-3.7116,-3.7612,-3.7808,-3.7612,-3.7795,-3.8328,-3.7795,-3.7795,-3.8373,-3.872,-3.921,-3.9724,-3.9166,-3.8899,-3.6158,-3.7013,-3.7819,-3.7819,-3.7594,-3.7358,0.0,0.0,0.0,-3.6978,-3.6978,-3.6978,-3.6978,-3.6978,-3.6978,-3.6978,0.0,-3.8732,0.0,0.0,0.0,0.0,0.0,0.0,0.0,0.0,0.0,0.0,0.0,0.0,0.0,-4.4411,-4.4411,-4.4411,-4.4411,-4.4411,-4.4411,-4.4411,-4.4411,-4.4411,-4.4411,-4.4411,-4.4411,-4.4411,-4.4551,-4.4797,0.0,0.0,0.0,-4.4634,-4.4634,-4.4727,-4.4911,-4.4972,-4.4943,-4.4804,-4.4023,-4.3022,-4.2659,-4.1511,-4.0106,-3.9658,-3.9172,-3.872,-3.845,-3.8585,-3.863,-3.7978,-3.7579,-3.7222,-3.6593,-3.6405,-3.6405,-3.6405,-3.6405,-3.6405,-3.6405,-3.6405,-3.6405,-3.6405,-3.6405,-3.6405,-3.6405,-3.6405,-3.6405,-3.6405,-3.6405,-3.6405,-3.6405,-3.6405,-3.6405,-3.6405,-3.6405,-3.6405,-3.6405,-3.6405,-3.6405,-3.6405,-3.6405,-3.6675,-3.7361,-3.6769,-3.6722,-3.7361,-3.6722,-3.6722,-3.7407,-3.7671,-3.816,-3.8765,-3.8115,-3.7625,-3.4426,-3.492,-3.5231,-3.5231,-3.5681,-3.6131,0.0,0.0,0.0,-3.6978,-3.6978,-3.6978,-3.6978,-3.6978,-3.6978,-3.6978,-3.7498,0.0,0.0,0.0,0.0,0.0,0.0,0.0,0.0,0.0,0.0,0.0,0.0,0.0,0.0,-4.4411,-4.4411,-4.4411,-4.4411,-4.4411,-4.4411,-4.4411,-4.4411,-4.4411,-4.4411,-4.4411,-4.4411,-4.4411,-4.4551,0.0,0.0,0.0,0.0,-4.2854,-4.2598,-4.284,-4.284,-4.284,-4.2772,-4.2222,-4.2052,-4.1828,-4.0658,-4.0237,-3.9947,-3.8312,-3.7808,-3.7625,-3.6722,-3.7083,-3.7808,-3.7808,-3.7129,-3.6405,-3.6405,-3.6405,-3.6405,-3.6405,-3.6405,-3.6405,-3.6405,-3.6405,-3.6405,-3.6405,-3.6405,-3.6405,-3.6405,-3.6405,-3.6405,-3.6405,-3.6405,-3.6405,-3.6405,-3.6405,-3.6405,-3.6405,-3.6405,-3.6405,-3.6405,-3.6405,-3.6405,-3.6405,-3.6405,-3.6405,-3.6405,-3.6417,-3.6405,-3.6405,-3.6405,-3.6405,-3.6405,-3.7361,-3.7808,-3.7808,-3.7808,-3.7315,-3.4208,-3.5064,-3.5822,-3.5822,-3.6286,-3.6736,-3.6736,0.0,0.0,-3.6978,-3.6978,-3.6978,-3.6978,-3.6978,-3.6954,-3.6811,-3.7314,0.0,0.0,0.0,0.0,0.0,0.0,0.0,0.0,0.0,0.0,0.0,0.0,0.0,0.0,0.0,-4.3648,-4.4364,-4.4411,-4.4411,-4.4411,-4.3648,-4.3648,-4.4411,-4.3648,-4.33,-4.33,-4.33,0.0,0.0,0.0,0.0,0.0,-4.2204,-4.2106,-4.2204,-4.2204,-4.2059,-4.1889,-4.1713,-4.0837,-3.9667,-3.9309,-3.8476,-3.75,-3.7007,-3.6862,-3.6769,-3.6499,-3.6593,-3.6862,-3.6862,-3.664,-3.6405,-3.6405,-3.6405,-3.6405,-3.6405,-3.6405,-3.6405,-3.6405,-3.6405,-3.6405,-3.6405,-3.6405,-3.6405,-3.6405,-3.6405,-3.6405,-3.6405,-3.6405,-3.6405,-3.6405,-3.6405,-3.6405,-3.6405,-3.6405,-3.6405,-3.6405,-3.6405,-3.6405,-3.6405,-3.6405,-3.6405,-3.6405,-3.6405,-3.6405,-3.6405,-3.6405,-3.6405,-3.6405,-3.6675,-3.6862,-3.6862,-3.6862,-3.6675,0.0,-3.4093,-3.4734,-3.5246,-3.5727,0.0,0.0,0.0,0.0,-3.6978,-3.6978,-3.6978,-3.6978,-3.6978,-3.6915,-3.6707,-3.7014,0.0,0.0,0.0,0.0,0.0,0.0,0.0,0.0,0.0,0.0,0.0,0.0,0.0,0.0,0.0,-4.3095,-4.3757,-4.341,-4.3204,-4.3204,-4.255,-4.255,-4.3156,-4.2514,-4.2208,-4.2208,-4.2208,0.0,0.0,0.0,0.0,0.0,-4.088,-4.0613,-4.0469,-4.0556,-4.0353,-4.0039,-3.9913,-3.9151,-3.8088,-3.7882,-3.7177,-3.6405,-3.6405,-3.6405,-3.6405,-3.6405,-3.6405,-3.6405,-3.6405,-3.6405,-3.6405,-3.6405,-3.6405,-3.6405,-3.6405,-3.6405,-3.6405,-3.6405,-3.6405,-3.6405,-3.6405,-3.6405,-3.6405,-3.6405,-3.6405,-3.6405,-3.6405,-3.6405,-3.6405,-3.6405,-3.6405,-3.6405,-3.6405,-3.6405,-3.6405,-3.6405,-3.6405,-3.6405,-3.6405,-3.6405,-3.6405,-3.6405,-3.6405,-3.6405,-3.6405,-3.6405,-3.6405,-3.6405,-3.6405,-3.6405,-3.6405,-3.6405,-3.6405,0.0,0.0,0.0,0.0,0.0,0.0,0.0,0.0,0.0,0.0,0.0,0.0,-3.6978,-3.6978,-3.6915,-3.6707,0.0,0.0,0.0,0.0,0.0,0.0,0.0,0.0,0.0,0.0,0.0,0.0,0.0,0.0,0.0,0.0,-4.2566,-4.2463,-4.1475,-4.103,-4.1219,-4.1119,-4.1119,-4.1219,-4.1119,-4.1069,-4.1069,-4.1069,0.0,0.0,0.0,0.0,0.0,-3.9119,-3.8432,-3.8056,-3.8211,-3.8016,-3.7531,-3.7277,-3.7161,-3.7048,-3.6581,-3.6405,-3.6405,-3.6405,-3.6405,-3.6405,-3.6405,-3.6405,-3.6405,-3.6405,-3.6405,-3.6405,-3.6405,-3.6405,-3.6405,-3.6405,-3.6405,-3.6405,-3.6405,-3.6405,-3.6405,-3.6405,-3.6405,-3.6405,-3.6405,-3.6405,-3.6405,-3.6405,-3.6405,-3.6405,-3.6405,-3.6405,-3.6405,-3.6405,-3.6405,-3.6405,-3.6405,-3.6405,-3.6405,-3.6405,-3.6405,-3.6405,-3.6405,-3.6405,-3.6405,-3.6405,-3.6405,-3.6405,-3.6405,-3.6405,-3.6405,-3.6405,-3.6405,-3.6405,-3.2273,0.0,-3.379,-3.4125,-3.498,0.0,0.0,0.0,0.0,0.0,0.0,0.0,0.0,0.0,0.0,0.0,0.0,0.0,0.0,0.0,0.0,0.0,0.0,0.0,0.0,0.0,0.0,0.0,0.0,0.0,0.0,0.0,-4.0063,-3.944,-3.8768,-3.9335,-4.1169,-4.0414,-4.0414,-4.1169,-4.0363,-3.9956,-3.9956,-3.9956,0.0,0.0,0.0,0.0,-3.8241,-3.8008,-3.7702,-3.7427,-3.7465,-3.7283,-3.6997,-3.6921,-3.6778,-3.6581,-3.6455,-3.6405,-3.6405,-3.6405,-3.6405,-3.6405,-3.6405,-3.6405,-3.6405,-3.6405,-3.6405,-3.6405,-3.6405,-3.6405,-3.6405,-3.6405,-3.6405,-3.6405,-3.6405,-3.6405,-3.6405,-3.6405,-3.6405,-3.6405,-3.6405,-3.6405,-3.6405,-3.6405,-3.6405,-3.6405,-3.6405,-3.6405,-3.6405,-3.6405,-3.6405,-3.6405,-3.6405,-3.6405,-3.6405,-3.6405,-3.6405,-3.6405,-3.6405,-3.6405,-3.6405,-3.6405,-3.6405,-3.6405,-3.6405,-3.6405,-3.6405,-3.6405,-3.6405,-3.6405,-3.1909,-3.2409,-3.3102,-3.3574,-3.4571,-3.545,-3.5652,0.0,0.0,0.0,0.0,0.0,0.0,0.0,0.0,0.0,0.0,0.0,0.0,0.0,0.0,0.0,0.0,0.0,0.0,0.0,0.0,0.0,0.0,0.0,0.0,0.0,-3.8971,-3.8432,-3.764,-3.7822,-3.8995,-3.8399,-3.8399,-3.8995,-3.8399,-3.8157,-3.8157,-3.8157,0.0,0.0,0.0,0.0,-3.7241,-3.7241,-3.7089,-3.6812,-3.6812,-3.669,-3.645,-3.6582,-3.6526,-3.6405,-3.6405,-3.6405,-3.6405,-3.6405,-3.6405,-3.6405,-3.6405,-3.6405,-3.6405,-3.6405,-3.6405,-3.6405,-3.6405,-3.6405,-3.6405,-3.6405,-3.6405,-3.6405,-3.6405,-3.6405,-3.6405,-3.6405,-3.6405,-3.6405,-3.6405,-3.6405,-3.6405,-3.6405,-3.6405,-3.6405,-3.6405,-3.6405,-3.6405,-3.6405,-3.6405,-3.6405,-3.6405,-3.6405,-3.6405,-3.6405,-3.6405,-3.6405,-3.6405,-3.6405,-3.6405,-3.6405,-3.6405,-3.6405,-3.6405,-3.6405,-3.6405,-3.6405,-3.6405,-3.6405,-3.1593,-3.1593,-3.186,-3.2719,-3.3769,-3.4679,-3.4997,0.0,0.0,0.0,0.0,0.0,0.0,0.0,0.0,0.0,0.0,0.0,0.0,0.0,0.0,0.0,0.0,0.0,0.0,0.0,0.0,0.0,0.0,0.0,0.0,0.0,0.0,-3.7922,-3.7146,-3.6507,-3.6158,-3.6326,-3.6411,-3.6411,-3.6411,-3.6411,-3.6411,-3.6411,-3.6411,0.0,0.0,0.0,-3.6694,-3.6745,-3.654,-3.6296,-3.6296,-3.622,-3.6015,-3.6323,-3.6405,-3.6405,-3.6405,-3.6405,-3.6405,-3.6405,-3.6405,-3.6405,-3.6405,-3.6405,-3.6405,-3.6405,-3.6405,-3.6405,-3.6405,-3.6405,-3.6405,-3.6405,-3.6405,-3.6405,-3.6405,-3.6405,-3.6405,-3.6405,-3.6405,-3.6405,-3.6405,-3.6405,-3.6405,-3.6405,-3.6405,-3.6405,-3.6405,-3.6405,-3.6405,-3.6405,-3.6405,-3.6405,-3.6405,-3.6405,-3.6405,-3.6405,-3.6405,-3.6405,-3.6405,-3.6405,-3.6405,-3.6405,-3.6405,-3.6405,-3.6405,-3.6405,-3.6405,-3.6405,-3.6405,-3.6405,-3.1198,-3.1556,-3.2046,-3.2214,-3.3453,-3.4568,-3.4475,0.0,0.0,0.0,0.0,0.0,0.0,0.0,0.0,0.0,0.0,0.0,0.0,0.0,0.0,0.0,0.0,0.0,0.0,0.0,0.0,0.0,0.0,0.0,0.0,0.0,0.0,-3.5721,-3.6027,-3.5842,-3.5076,-3.5954,-3.6411,-3.6411,-3.6411,-3.6411,-3.6411,-3.6411,-3.6411,0.0,0.0,-3.656,-3.6147,-3.6345,-3.6186,-3.5743,-3.5996,-3.6042,-3.6015,-3.6323,-3.6405,-3.6405,-3.6405,-3.6405,-3.6405,-3.6405,-3.6405,-3.6405,-3.6405,-3.6405,-3.6405,-3.6405,-3.6405,-3.6405,-3.6405,-3.6405,-3.6405,-3.6405,-3.6405,-3.6405,-3.6405,-3.6405,-3.6405,-3.6405,-3.6405,-3.6405,-3.6405,-3.6405,-3.6405,-3.6405,-3.6405,-3.6405,-3.6405,-3.6405,-3.6405,-3.6405,-3.6405,-3.6405,-3.6405,-3.6405,-3.6405,-3.6405,-3.6405,-3.6405,-3.6405,-3.6405,-3.6405,-3.6405,-3.6405,-3.6405,-3.6405,-3.6405,-3.6405,-3.6405,-3.6405,-3.6405,-3.0911,-3.1161,-3.1482,-3.1384,-3.2556,-3.3649,-3.335,0.0,0.0,0.0,0.0,0.0,0.0,0.0,0.0,0.0,0.0,0.0,0.0,0.0,0.0,0.0,0.0,0.0,0.0,0.0,0.0,0.0,0.0,0.0,0.0,0.0,0.0,0.0,-3.5478,-3.5332,-3.4835,-3.5403,-3.5706,-3.5557,-3.5557,-3.5557,-3.5557,-3.5557,-3.5557,-3.5557,0.0,-3.5819,-3.5588,-3.5844,-3.589,-3.5824,-3.5968,-3.6098,-3.6228,-3.637,-3.6405,-3.6405,-3.6405,-3.6405,-3.6405,-3.6405,-3.6405,-3.6405,-3.6405,-3.6405,-3.6405,-3.6405,-3.6405,-3.6405,-3.6405,-3.6405,-3.6405,-3.6405,-3.6405,-3.6405,-3.6405,-3.6405,-3.6405,-3.6405,-3.6405,-3.6405,-3.6405,-3.6405,-3.6405,-3.6405,-3.6405,-3.6405,-3.6405,-3.6405,-3.6405,-3.6405,-3.6405,-3.6405,-3.6405,-3.6405,-3.6405,-3.6405,-3.6405,-3.6405,-3.6405,-3.6405,-3.6405,-3.6405,-3.6405,-3.6405,-3.6405,-3.6405,-3.6405,-3.6405,-3.6405,-3.6405,-3.0685,-3.0836,-3.0986,-3.0685,0.0,-3.2993,-3.2345,-3.3806,0.0,0.0,0.0,0.0,0.0,0.0,0.0,0.0,0.0,0.0,0.0,0.0,0.0,0.0,0.0,0.0,0.0,0.0,0.0,0.0,0.0,0.0,0.0,0.0,0.0,0.0,-3.5223,-3.5126,-3.4981,-3.5126,-3.5078,-3.4775,-3.4872,-3.4872,-3.4775,-3.4775,-3.4823,-3.4932,-3.5175,-3.5271,-3.532,-3.5572,-3.5764,-3.592,-3.5968,-3.6146,-3.6405,-3.6405,-3.6405,-3.6405,-3.6405,-3.6405,-3.6405,-3.6405,-3.6405,-3.6405,-3.6405,-3.6405,-3.6405,-3.6405,-3.6405,-3.6405,-3.6405,-3.6405,-3.6405,-3.6405,-3.6405,-3.6405,-3.6405,-3.6405,-3.6405,-3.6405,-3.6405,-3.6405,-3.6405,-3.6405,-3.6405,-3.6405,-3.6405,-3.6405,-3.6405,-3.6405,-3.6405,-3.6405,-3.6405,-3.6405,-3.6405,-3.6405,-3.6405,-3.6405,-3.6405,-3.6405,-3.6405,-3.6405,-3.6405,-3.6405,-3.6405,-3.6405,-3.6405,-3.6405,-3.6405,-3.6405,-3.6405,-3.6405,-3.0482,-3.0861,-3.1161,-3.0558,-3.204,0.0,-3.1941,-3.3609,0.0,-3.3364,0.0,0.0,0.0,0.0,0.0,0.0,0.0,0.0,0.0,0.0,0.0,0.0,0.0,0.0,0.0,0.0,0.0,0.0,0.0,0.0,0.0,0.0,0.0,0.0,0.0,-3.532,-3.5512,-3.532,-3.5078,-3.4775,-3.5078,-3.503,-3.4775,-3.4775,-3.4932,-3.5175,-3.5464,-3.5572,-3.5572,-3.586,-3.5812,-3.5668,-3.5908,-3.6146,-3.6405,-3.6405,-3.6405,-3.6405,-3.6405,-3.6405,-3.6405,-3.6405,-3.6405,-3.6405,-3.6405,-3.6405,-3.6405,-3.6405,-3.6405,-3.6405,-3.6405,-3.6405,-3.6405,-3.6405,-3.6405,-3.6405,-3.6405,-3.6405,-3.6405,-3.6405,-3.6405,-3.6405,-3.6405,-3.6405,-3.6405,-3.6405,-3.6405,-3.6405,-3.6405,-3.6405,-3.6405,-3.6405,-3.6405,-3.6405,-3.6405,-3.6405,-3.6405,-3.6405,-3.6405,-3.6405,-3.6405,-3.6405,-3.6405,-3.6405,-3.6405,-3.6405,-3.6405,-3.6405,-3.6405,-3.6405,-3.6405,-3.6405,-3.0343,-3.0571,-3.0836,-3.0482,-3.1759,0.0,0.0,-3.2875,-3.3903,-3.3492,-3.402,0.0,0.0,0.0,0.0,0.0,0.0,0.0,0.0,0.0,0.0,0.0,0.0,0.0,0.0,0.0,0.0,0.0,0.0,0.0,0.0,0.0,0.0,0.0,0.0,-3.5175,-3.5126,-3.5175,-3.5078,-3.4775,-3.4872,-3.4884,-3.4775,-3.4775,-3.4932,-3.5223,-3.532,-3.5476,-3.562,-3.5908,-3.5968,-3.5872,-3.6146,-3.6323,-3.6405,-3.6405,-3.6405,-3.6405,-3.6405,-3.6405,-3.6405,-3.6405,-3.6405,-3.6405,-3.6405,-3.6405,-3.6405,-3.6405,-3.6405,-3.6405,-3.6405,-3.6405,-3.6405,-3.6405,-3.6405,-3.6405,-3.6405,-3.6405,-3.6405,-3.6405,-3.6405,-3.6405,-3.6405,-3.6405,-3.6405,-3.6405,-3.6405,-3.6405,-3.6405,-3.6405,-3.6405,-3.6405,-3.6405,-3.6405,-3.6405,-3.6405,-3.6405,-3.6405,-3.6405,-3.6405,-3.6405,-3.6405,-3.6405,-3.6405,-3.6405,-3.6405,-3.6405,-3.6405,-3.6405,-3.6405,-3.6405,-3.6405,-3.0228,-3.0394,-3.066,-3.0444,0.0,0.0,-3.1818,-3.2639,-3.3465,-3.3279,0.0,0.0,0.0,0.0,0.0,0.0,0.0,0.0,0.0,0.0,0.0,0.0,0.0,0.0,0.0,0.0,0.0,0.0,0.0,0.0,0.0,0.0,0.0,0.0,0.0,-3.5126,-3.5078,-3.5223,-3.5223,-3.5078,-3.5078,-3.503,-3.4932,-3.4932,-3.5126,-3.5464,-3.5464,-3.5572,-3.5716,-3.592,-3.5968,-3.5908,-3.6086,-3.6133,-3.6133,-3.6133,-3.6133,-3.6181,-3.6228,-3.6275,-3.6275,-3.6358,-3.6405,-3.6405,-3.6405,-3.6405,-3.6405,-3.6405,-3.6405,-3.6405,-3.6405,-3.6405,-3.6405,-3.6405,-3.6405,-3.6405,-3.6405,-3.6405,-3.6405,-3.6405,-3.6405,-3.6405,-3.6405,-3.6405,-3.6405,-3.6405,-3.6405,-3.6405,-3.6405,-3.6405,-3.6405,-3.6405,-3.6405,-3.6405,-3.6405,-3.6405,-3.6405,-3.6405,-3.6405,-3.6405,-3.6405,-3.6405,-3.6405,-3.6405,-3.6405,-3.6405,-3.6405,-3.6405,-3.6405,-3.6405,-3.6405,-3.6405,-3.019,-3.0381,-3.066,0.0,0.0,0.0,-3.1737,-3.2931,-3.374,-3.2466,0.0,0.0,0.0,0.0,0.0,0.0,0.0,0.0,0.0,0.0,0.0,0.0,0.0,0.0,0.0,0.0,0.0,0.0,0.0,0.0,0.0,0.0,0.0,0.0,0.0,0.0,-3.562,-3.562,-3.562,-3.562,-3.562,-3.5476,-3.5223,-3.5223,-3.5464,-3.6015,-3.6015,-3.6015,-3.6015,-3.6015,-3.5812,-3.562,-3.562,-3.562,-3.562,-3.562,-3.562,-3.5668,-3.592,-3.6015,-3.6063,-3.6323,-3.6405,-3.6405,-3.6405,-3.6405,-3.6405,-3.6405,-3.6405,-3.6405,-3.6405,-3.6405,-3.6405,-3.6405,-3.6405,-3.6405,-3.6405,-3.6405,-3.6405,-3.6405,-3.6405,-3.6405,-3.6405,-3.6405,-3.6405,-3.6405,-3.6405,-3.6405,-3.6405,-3.6405,-3.6405,-3.6405,-3.6405,-3.6405,-3.6405,-3.6405,-3.6405,-3.6405,-3.6405,-3.6405,-3.6405,-3.6405,-3.6405,-3.6405,-3.6405,-3.6405,-3.6405,-3.6405,-3.6405,-3.6405,-3.6405,-3.6405,-3.0406,-3.0406,0.0,0.0,0.0,0.0,0.0,-3.257,0.0,0.0,0.0,0.0,0.0,0.0,0.0,0.0,0.0,0.0,0.0,0.0,0.0,0.0,0.0,0.0,0.0,0.0,0.0,0.0,0.0,0.0,0.0,0.0,0.0,0.0,0.0,0.0,-3.562,-3.562,-3.5524,-3.532,-3.532,-3.538,-3.5464,-3.5271,-3.5368,-3.5716,-3.5524,-3.5512,-3.5716,-3.5716,-3.5668,-3.562,-3.562,-3.5716,-3.5872,-3.5872,-3.6003,-3.6181,-3.6275,-3.6275,-3.6275,-3.6358,-3.6405,-3.6405,-3.6405,-3.6405,-3.6405,-3.6405,-3.6405,-3.6405,-3.6405,-3.6405,-3.6405,-3.6405,-3.6405,-3.6405,-3.6405,-3.6405,-3.6405,-3.6405,-3.6405,-3.6405,-3.6405,-3.6405,-3.6405,-3.6405,-3.6405,-3.6405,-3.6405,-3.6405,-3.6405,-3.6405,-3.6405,-3.6405,-3.6405,-3.6405,-3.6405,-3.6405,-3.6405,-3.6405,-3.6405,-3.6405,-3.6405,-3.6405,-3.6405,-3.6405,-3.6405,-3.6405,-3.6405,-3.6405,-3.6405,-3.6405,-3.0482,0.0,0.0,0.0,0.0,0.0,0.0,0.0,0.0,0.0,0.0,0.0,0.0,0.0,0.0,0.0,0.0,0.0,0.0,0.0,0.0,0.0,0.0,0.0,0.0,0.0,0.0,0.0,0.0,0.0,0.0,0.0,0.0,0.0,0.0,0.0,-3.5271,-3.5368,-3.5368,-3.5223,-3.532,-3.5416,-3.5572,-3.532,-3.5368,-3.5572,-3.532,-3.5271,-3.5428,-3.5332,-3.5271,-3.5271,-3.5416,-3.5524,-3.5716,-3.5812,-3.5955,-3.6086,-3.6181,-3.6228,-3.6275,-3.6358,-3.6405,-3.6405,-3.6405,-3.6405,-3.6405,-3.6405,-3.6405,-3.6405,-3.6405,-3.6405,-3.6405,-3.6405,-3.6405,-3.6405,-3.6405,-3.6405,-3.6405,-3.6405,-3.6405,-3.6405,-3.6405,-3.6405,-3.6405,-3.6405,-3.6405,-3.6405,-3.6405,-3.6405,-3.6405,-3.6405,-3.6405,-3.6405,-3.6405,-3.6405,-3.6405,-3.6405,-3.6405,-3.6405,-3.6405,-3.6405,-3.6405,-3.6405,-3.6405,-3.6405,-3.6405,-3.6405,-3.6405,-3.6405,-3.6405,-3.6292,0.0,0.0,0.0,0.0,0.0,0.0,0.0,0.0,0.0,0.0,0.0,0.0,0.0,0.0,0.0,0.0,0.0,0.0,0.0,0.0,0.0,0.0,0.0,0.0,0.0,0.0,0.0,0.0,0.0,0.0,0.0,0.0,0.0,0.0,0.0,0.0,-3.4884,-3.5126,-3.5223,0.0,-3.5464,-3.5572,-3.5524,-3.532,-3.532,-3.5512,-3.5271,-3.5175,-3.5126,-3.492,-3.4823,-3.4872,-3.5126,-3.5271,-3.532,-3.5572,-3.5668,-3.5716,-3.5955,-3.6063,-3.6098,-3.6323,-3.6405,-3.6405,-3.6405,-3.6405,-3.6405,-3.6405,-3.6405,-3.6405,-3.6405,-3.6405,-3.6405,-3.6405,-3.6405,-3.6405,-3.6405,-3.6405,-3.6405,-3.6405,-3.6405,-3.6405,-3.6405,-3.6405,-3.6405,-3.6405,-3.6405,-3.6405,-3.6405,-3.6405,-3.6405,-3.6405,-3.6405,-3.6405,-3.6405,-3.6405,-3.6405,-3.6405,-3.6405,-3.6405,-3.6405,-3.6405,-3.6405,-3.6405,-3.6405,-3.6405,-3.6405,-3.6405,-3.638,-3.6329,-3.6329,-3.5994,0.0,0.0,0.0,0.0,0.0,0.0,0.0,0.0,0.0,0.0,0.0,0.0,0.0,0.0,0.0,0.0,0.0,0.0,0.0,0.0,0.0,0.0,0.0,0.0,0.0,0.0,0.0,0.0,0.0,0.0,0.0,0.0,0.0,0.0,0.0,-3.5428,-3.5428,-3.5476,-3.5416,0.0,-3.5271,-3.5175,-3.4981,-3.5126,-3.5126,-3.4981,-3.4932,-3.4884,-3.4884,-3.5078,-3.5126,-3.5126,-3.5416,-3.562,-3.5812,-3.5908,-3.6051,-3.6216,-3.6275,-3.6323,-3.6323,-3.6358,-3.6405,-3.6405,-3.6405,-3.6405,-3.6405,-3.6405,-3.6405,-3.6405,-3.6405,-3.6405,-3.6405,-3.6405,-3.6405,-3.6405,-3.6405,-3.6405,-3.6405,-3.6405,-3.6405,-3.6405,-3.6405,-3.6405,-3.6405,-3.6405,-3.6405,-3.6405,-3.6405,-3.6405,-3.6405,-3.6405,-3.6405,-3.6405,-3.6405,-3.6405,-3.6405,-3.6405,-3.6405,-3.6405,-3.6405,-3.6405,-3.6405,-3.6405,-3.6405,-3.6405,-3.6405,-3.6405,-3.6144,-3.5671,-3.5671,-3.5382,0.0,0.0,0.0,0.0,0.0,0.0,0.0,0.0,0.0,0.0,0.0,0.0,0.0,0.0,0.0,0.0,0.0,0.0,0.0,0.0,0.0,0.0,0.0,0.0,0.0,0.0,0.0,0.0,0.0,0.0,0.0,0.0,0.0,0.0,-3.5271,-3.5223,-3.5223,-3.5223,-3.5126,-3.503,-3.503,-3.4932,-3.4775,-3.492,-3.492,-3.4775,-3.4775,-3.4775,-3.4823,-3.4932,-3.503,-3.503,-3.532,-3.5464,-3.562,-3.5764,-3.6003,-3.6181,-3.6181,-3.6275,-3.6405,-3.6405,-3.6405,-3.6405,-3.6405,-3.6405,-3.6405,-3.6405,-3.6405,-3.6405,-3.6405,-3.6405,-3.6405,-3.6405,-3.6405,-3.6405,-3.6405,-3.6405,-3.6405,-3.6405,-3.6405,-3.6405,-3.6405,-3.6405,-3.6405,-3.6405,-3.6405,-3.6405,-3.6405,-3.6405,-3.6405,-3.6405,-3.6405,-3.6405,-3.6405,-3.6405,-3.6405,-3.6405,-3.6405,-3.6405,-3.6405,-3.6405,-3.6405,-3.6405,-3.6405,-3.6279,-3.5968,-3.5968,-3.5692,-3.5107,-3.5107,-3.4806,0.0,0.0,0.0,0.0,0.0,0.0,0.0,0.0,0.0,0.0,0.0,0.0,0.0,0.0,0.0,0.0,0.0,0.0,0.0,0.0,0.0,0.0,0.0,0.0,0.0,0.0,0.0,0.0,0.0,0.0,0.0,0.0,-3.4872,-3.5126,-3.4932,-3.4775,-3.4775,-3.4775,-3.4775,-3.4775,-3.4775,-3.4775,-3.4775,-3.4775,-3.4775,-3.4775,-3.4775,-3.4775,-3.4775,-3.4823,-3.4884,-3.4884,-3.5175,-3.5271,-3.5368,-3.5572,-3.586,-3.6051,-3.6051,-3.6181,-3.6405,-3.6405,-3.6405,-3.6405,-3.6405,-3.6405,-3.6405,-3.6405,-3.6405,-3.6405,-3.6405,-3.6405,-3.6405,-3.6405,-3.6405,-3.6405,-3.6405,-3.6405,-3.6405,-3.6405,-3.6405,-3.6405,-3.6405,-3.6405,-3.6405,-3.6405,-3.6405,-3.6405,-3.6405,-3.6405,-3.6405,-3.6405,-3.6405,-3.6405,-3.6405,-3.6405,-3.6405,-3.6405,-3.6405,-3.6405,-3.6405,-3.6317,-3.6267,-3.6267,-3.6267,-3.5943,-3.5357,-3.5357,-3.5069,-3.4575,-3.4575,-3.4286,0.0,0.0,0.0,0.0,0.0,0.0,0.0,0.0,0.0,0.0,0.0,0.0,0.0,0.0,0.0,0.0,0.0,0.0,0.0,0.0,0.0,0.0,0.0,0.0,0.0,0.0,0.0,0.0,0.0,0.0,0.0,-3.4835,-3.4835,-3.4823,-3.4835,-3.4775,-3.4775,-3.4775,-3.4775,-3.4775,-3.4775,-3.4775,-3.4775,-3.4775,-3.4775,-3.4775,-3.4775,-3.4775,-3.4835,-3.5078,-3.5126,-3.5175,-3.5416,-3.5668,-3.592,-3.592,-3.6098,-3.637,-3.637,-3.6358,-3.6405,-3.6405,-3.6405,-3.6405,-3.6405,-3.6405,-3.6405,-3.6405,-3.6405,-3.6405,-3.6405,-3.6405,-3.6405,-3.6405,-3.6405,-3.6405,-3.6405,-3.6405,-3.6405,-3.6405,-3.6405,-3.6405,-3.6405,-3.6405,-3.6405,-3.6405,-3.6405,-3.6405,-3.6405,-3.6405,-3.6405,-3.6405,-3.6405,-3.6405,-3.6405,-3.6405,-3.6405,-3.6405,-3.6405,-3.6405,-3.6405,-3.5906,-3.5608,-3.5608,-3.5608,-3.5332,-3.4826,-3.4826,-3.455,-3.401,-3.401,-3.3709,0.0,0.0,0.0,0.0,0.0,0.0,0.0,0.0,0.0,0.0,0.0,0.0,0.0,0.0,0.0,0.0,0.0,0.0,0.0,0.0,0.0,0.0,0.0,0.0,0.0,0.0,0.0,0.0,0.0,0.0,-3.4775,-3.4775,-3.4775,-3.4775,-3.4775,-3.4775,-3.4775,-3.4775,-3.4775,-3.4775,-3.4775,-3.4775,-3.4775,-3.4775,-3.4775,-3.4775,-3.4775,-3.4775,-3.4823,-3.5078,-3.5223,-3.5223,-3.5524,-3.5668,-3.5764,-3.5764,-3.5955,-3.6193,-3.6193,-3.6275,-3.6405,-3.6405,-3.6405,-3.6405,-3.6405,-3.6405,-3.6405,-3.6405,-3.6405,-3.6405,-3.6405,-3.6405,-3.6405,-3.6405,-3.6405,-3.6405,-3.6405,-3.6405,-3.6405,-3.6405,-3.6405,-3.6405,-3.6405,-3.6405,-3.6405,-3.6405,-3.6405,-3.6405,-3.6405,-3.6405,-3.6405,-3.6405,-3.6405,-3.6405,-3.6405,-3.6405,-3.6405,-3.6405,-3.6069,-3.5906,-3.5906,-3.5332,-3.4893,-3.4625,-3.4881,-3.4768,-3.4261,-3.4261,-3.3985,-3.3432,-3.3432,-3.3307,0.0,0.0,0.0,0.0,0.0,0.0,0.0,0.0,0.0,0.0,0.0,0.0,0.0,0.0,0.0,0.0,0.0,0.0,0.0,0.0,0.0,0.0,0.0,0.0,0.0,0.0,0.0,0.0,0.0,0.0,-3.4775,-3.4775,-3.4775,-3.4775,-3.4775,-3.4775,-3.4775,-3.4775,-3.4775,-3.4775,-3.4775,-3.4775,-3.4775,-3.4775,-3.4775,-3.4775,-3.4884,-3.4872,-3.4835,-3.5175,-3.5271,-3.5223,-3.5416,-3.5524,-3.5572,-3.5524,-3.5668,-3.592,-3.592,-3.6051,-3.6181,-3.6181,-3.6181,-3.6228,-3.6275,-3.6323,-3.6323,-3.6358,-3.6405,-3.6405,-3.6405,-3.6405,-3.6405,-3.6405,-3.6405,-3.6405,-3.6405,-3.6405,-3.6405,-3.6405,-3.6405,-3.6405,-3.6405,-3.6405,-3.6405,-3.6405,-3.6405,-3.6405,-3.6405,-3.6405,-3.6405,-3.6405,-3.6405,-3.6405,-3.6405,-3.6405,-3.6342,-3.6157,-3.5768,-3.5433,-3.5295,-3.4756,-3.4324,-3.3909,-3.4161,-3.411,-3.3696,-3.3696,-3.3483,-3.3124,-3.3124,-3.3124,0.0,0.0,0.0,0.0,0.0,0.0,0.0,0.0,0.0,0.0,0.0,0.0,0.0,0.0,0.0,0.0,0.0,0.0,0.0,0.0,0.0,0.0,0.0,0.0,0.0,0.0,0.0,0.0,0.0,0.0,-3.4775,-3.4775,-3.4775,-3.4775,-3.4775,-3.4775,-3.4775,-3.4775,-3.4775,-3.4775,-3.4775,-3.4775,-3.4775,-3.4775,-3.4775,-3.4823,-3.5078,-3.5017,-3.4823,-3.5368,-3.5428,-3.5223,-3.5223,-3.538,-3.5572,-3.532,-3.5368,-3.562,-3.562,-3.562,-3.5668,-3.5668,-3.5668,-3.5668,-3.5968,-3.6015,-3.6051,-3.6323,-3.6405,-3.6405,-3.6405,-3.6405,-3.6405,-3.6405,-3.6405,-3.6405,-3.6405,-3.6405,-3.6405,-3.6405,-3.6405,-3.6405,-3.6405,-3.6405,-3.6405,-3.6405,-3.6405,-3.6405,-3.6405,-3.6405,-3.6405,-3.6405,-3.6405,-3.6405,-3.6405,-3.6405,-3.6144,-3.5571,-3.552,-3.5257,-3.4743,-3.4236,-3.3935,-3.3897,-3.342,-3.3156,-3.3162,-3.3162,-3.3149,-3.3124,-3.3124,-3.3124,0.0,0.0,0.0,0.0,0.0,0.0,0.0,0.0,0.0,0.0,0.0,0.0,0.0,0.0,0.0,0.0,0.0,0.0,0.0,0.0,0.0,0.0,0.0,0.0,0.0,0.0,0.0,0.0,0.0,0.0,-3.4775,-3.4775,-3.4775,-3.4775,-3.4775,-3.4775,-3.4775,-3.4775,-3.4775,-3.4775,-3.4775,-3.4775,-3.4775,-3.4775,-3.4775,-3.4823,-3.5078,-3.5078,-3.4835,-3.5175,-3.5271,-3.5223,-3.5368,-3.5524,-3.5572,-3.5464,-3.5524,-3.562,-3.562,-3.562,-3.562,-3.5812,-3.5872,-3.5908,-3.6193,-3.6275,-3.6275,-3.6358,-3.6405,-3.6405,-3.6405,-3.6405,-3.6405,-3.6405,-3.6405,-3.6405,-3.6405,-3.6405,-3.6405,-3.6405,-3.6405,-3.6405,-3.6405,-3.6405,-3.6405,-3.6405,-3.6405,-3.6405,-3.6405,-3.6405,-3.6405,-3.6405,-3.6405,-3.6267,-3.5868,-3.583,-3.5558,-3.5006,-3.4675,-3.4399,-3.4198,-3.3658,-3.337,-3.337,-3.3224,-3.3124,-3.3124,-3.3124,-3.3124,-3.3124,-3.3124,-3.3124,0.0,0.0,0.0,0.0,0.0,0.0,0.0,0.0,0.0,0.0,0.0,0.0,0.0,0.0,0.0,0.0,0.0,0.0,0.0,0.0,0.0,0.0,0.0,0.0,0.0,0.0,0.0,0.0,0.0,0.0,-3.4775,-3.4775,-3.4775,-3.4775,-3.4775,-3.4775,-3.4775,-3.4775,-3.4775,-3.4775,-3.4775,-3.4775,-3.4775,-3.4775,-3.4775,-3.4823,-3.4981,-3.4981,-3.4835,-3.5175,-3.5271,-3.5223,-3.5416,-3.5476,-3.5464,-3.5368,-3.532,-3.532,-3.5416,-3.5476,-3.5524,-3.5764,-3.5872,-3.5908,-3.6181,-3.6275,-3.6275,-3.6358,-3.6405,-3.6405,-3.6405,-3.6405,-3.6405,-3.6405,-3.6405,-3.6405,-3.6405,-3.6405,-3.6405,-3.6405,-3.6405,-3.6405,-3.6405,-3.6405,-3.6405,-3.6405,-3.6405,-3.6405,-3.6405,-3.6405,-3.6329,-3.6107,-3.6094,-3.5868,-3.527,-3.5219,-3.4994,-3.4487,-3.411,-3.3822,-3.3633,-3.3269,-3.3124,-3.3124,-3.3124,-3.3124,-3.3124,-3.3124,-3.3124,-3.3124,-3.3124,-3.3124,0.0,0.0,0.0,0.0,0.0,0.0,0.0,0.0,0.0,0.0,0.0,0.0,0.0,0.0,0.0,0.0,0.0,0.0,0.0,0.0,0.0,0.0,0.0,0.0,0.0,0.0,0.0,0.0,0.0,-3.4198,-3.4727,-3.4775,-3.4775,-3.4775,-3.4775,-3.4775,-3.4775,-3.4775,-3.4775,-3.4775,-3.4775,-3.4775,-3.4775,-3.4775,-3.4775,-3.4775,-3.4775,-3.4775,-3.4823,-3.5368,-3.5416,-3.5175,-3.5175,-3.5175,-3.5175,-3.4884,-3.4775,-3.4823,-3.5078,-3.5175,-3.5223,-3.5512,-3.5572,-3.562,-3.592,-3.6015,-3.6051,-3.6323,-3.6405,-3.6405,-3.6405,-3.6405,-3.6405,-3.6405,-3.6405,-3.6405,-3.6405,-3.6405,-3.6405,-3.6405,-3.6405,-3.6405,-3.6405,-3.6405,-3.6405,-3.6405,-3.6392,-3.638,-3.638,-3.6367,-3.6107,-3.5533,-3.547,-3.5257,-3.4705,-3.47,-3.4462,-3.3909,-3.3872,-3.3633,-3.3106,-3.3124,-3.3124,-3.3124,-3.3124,-3.3124,-3.3124,-3.3124,-3.3124,-3.3124,-3.3124,-3.3124,-3.0911,0.0,0.0,0.0,0.0,0.0,0.0,0.0,0.0,0.0,0.0,0.0,0.0,0.0,0.0,0.0,0.0,0.0,0.0,0.0,0.0,0.0,0.0,0.0,0.0,0.0,0.0,0.0,-3.3501,-3.3717,-3.4186,-3.457,-3.4775,-3.4775,-3.4775,-3.4775,-3.4775,-3.4775,-3.4775,-3.4775,-3.4775,-3.4775,-3.4775,-3.4775,-3.4775,-3.4775,-3.4775,-3.4775,-3.4823,-3.4981,-3.4981,-3.4932,-3.4932,-3.4932,-3.4872,-3.4835,-3.4775,-3.4823,-3.4884,-3.4932,-3.4969,-3.5223,-3.532,-3.5416,-3.5872,-3.6015,-3.6051,-3.6323,-3.6405,-3.6405,-3.6405,-3.6405,-3.6405,-3.6405,-3.6405,-3.6405,-3.6405,-3.6405,-3.6405,-3.6405,-3.6405,-3.6405,-3.6405,-3.6405,-3.6405,-3.6405,-3.6031,-3.5768,-3.5768,-3.5429,-3.5115,-3.4919,-3.4906,-3.468,-3.4173,-3.4123,-3.3884,-3.3345,-3.3307,-3.3232,-3.3124,-3.3124,-3.3124,-3.3124,-3.3124,-3.3124,-3.3124,-3.3124,-3.3124,-3.3124,-3.3124,-3.3124,0.0,0.0,0.0,0.0,0.0,0.0,0.0,0.0,0.0,0.0,0.0,0.0,0.0,0.0,0.0,0.0,0.0,0.0,0.0,0.0,0.0,0.0,0.0,0.0,0.0,0.0,0.0,0.0,-3.2959,-3.3188,-3.3705,-3.4174,-3.445,-3.445,-3.4667,-3.4775,-3.4775,-3.4775,-3.4775,-3.4775,-3.4775,-3.4775,-3.4775,-3.4775,-3.4775,-3.4775,-3.4775,-3.4775,-3.4775,-3.4775,-3.4775,-3.4775,-3.4775,-3.4775,-3.4775,-3.4775,-3.4775,-3.4835,-3.492,-3.503,-3.5175,-3.5476,-3.5608,-3.5752,-3.6086,-3.6193,-3.6193,-3.6358,-3.6405,-3.6405,-3.6405,-3.6405,-3.6405,-3.6405,-3.6405,-3.6405,-3.6405,-3.6405,-3.6405,-3.6405,-3.6405,-3.6329,-3.6056,-3.6019,-3.5943,-3.5705,-3.5403,-3.5157,-3.5157,-3.4868,-3.4625,-3.4399,-3.4374,-3.4161,-3.3608,-3.3558,-3.342,-3.3136,-3.3124,-3.3124,-3.3124,-3.3124,-3.3124,-3.3124,-3.3124,-3.3124,-3.3124,-3.3124,-3.3124,-3.3124,-3.3124,-3.3124,0.0,0.0,0.0,0.0,0.0,0.0,-2.9753,-2.9599,-2.9528,0.0,0.0,0.0,0.0,0.0,0.0,0.0,0.0,0.0,0.0,0.0,0.0,0.0,0.0,0.0,0.0,0.0,-3.191,-3.237,-3.2466,-3.2707,-3.3176,-3.3681,-3.391,-3.391,-3.4414,-3.4691,-3.4691,-3.4751,-3.4775,-3.4775,-3.4775,-3.4775,-3.4775,-3.4775,-3.4775,-3.4775,-3.4775,-3.4775,-3.4775,-3.4835,-3.4835,-3.4775,-3.4775,-3.4775,-3.4775,-3.4823,-3.4823,-3.4884,-3.5126,-3.5416,-3.562,-3.5872,-3.6146,-3.631,-3.637,-3.6358,-3.6358,-3.6405,-3.6405,-3.6405,-3.6405,-3.6405,-3.6405,-3.6405,-3.6367,-3.6317,-3.6317,-3.6267,-3.6229,-3.6229,-3.6279,-3.6094,-3.5495,-3.5408,-3.5245,-3.4756,-3.4675,-3.4625,-3.4625,-3.4575,-3.4349,-3.3859,-3.3809,-3.3608,-3.3162,-3.3124,-3.3124,-3.3124,-3.3124,-3.3124,-3.3124,-3.3124,-3.3124,-3.3124,-3.3124,-3.3124,-3.3124,-3.3124,-3.3124,-3.3124,-3.3124,-3.3124,0.0,0.0,0.0,0.0,0.0,0.0,-2.9521,-2.9599,-2.9649,0.0,0.0,0.0,0.0,0.0,0.0,0.0,0.0,0.0,0.0,0.0,0.0,0.0,0.0,0.0,0.0,0.0,-3.1753,-3.1862,-3.225,-3.2551,-3.2647,-3.3152,-3.344,-3.344,-3.3886,-3.415,-3.415,-3.457,-3.4775,-3.4775,-3.4775,-3.4775,-3.4775,-3.4775,-3.4775,-3.4775,-3.4775,-3.4775,-3.4835,-3.503,-3.4969,-3.4775,-3.4775,-3.4775,-3.4835,-3.503,-3.5126,-3.5175,-3.5428,-3.5572,-3.562,-3.5668,-3.5716,-3.5812,-3.6003,-3.6098,-3.6098,-3.6323,-3.6405,-3.6405,-3.6405,-3.6405,-3.6405,-3.6405,-3.6031,-3.5658,-3.5658,-3.5353,-3.5039,-3.5039,-3.5403,-3.5483,-3.4931,-3.4843,-3.4806,-3.4738,-3.4349,-3.406,-3.406,-3.3671,-3.3357,-3.3257,-3.3244,-3.3194,-3.3124,-3.3124,-3.3124,-3.3124,-3.3124,-3.3124,-3.3124,-3.3124,-3.3124,-3.3124,-3.3124,-3.3124,-3.3124,-3.3124,-3.3124,-3.3124,-3.3124,-3.3124,0.0,0.0,0.0,-2.9495,0.0,0.0,0.0,-2.9287,-2.9248,0.0,0.0,0.0,0.0,0.0,0.0,0.0,0.0,0.0,0.0,0.0,0.0,0.0,0.0,0.0,0.0,0.0,-3.1705,-3.1705,-3.197,-3.2082,-3.2082,-3.2599,-3.2899,-3.2899,-3.3392,-3.3669,-3.3669,-3.3921,-3.4186,-3.439,-3.439,-3.4522,-3.4775,-3.4775,-3.4775,-3.4823,-3.492,-3.4981,-3.503,-3.5126,-3.5126,-3.503,-3.5126,-3.5223,-3.5223,-3.5368,-3.5416,-3.5416,-3.5416,-3.5572,-3.5764,-3.562,-3.58,-3.6038,-3.6133,-3.6193,-3.6228,-3.6358,-3.6405,-3.6342,-3.6031,-3.5956,-3.5881,-3.5604,-3.5328,-3.5094,-3.5094,-3.4868,-3.4638,-3.4361,-3.4537,-3.4638,-3.4361,-3.4311,-3.4223,-3.3935,-3.3671,-3.3483,-3.3483,-3.3257,-3.3124,-3.3124,-3.3124,-3.3124,-3.3124,-3.3124,-3.3124,-3.3124,-3.3124,-3.3124,-3.3124,-3.3124,-3.3124,-3.3124,-3.3124,-3.3124,-3.3124,-3.3124,-3.3124,-3.3124,-3.3124,-3.3124,0.0,0.0,0.0,0.0,0.0,-2.9091,0.0,0.0,0.0,-2.9013,0.0,0.0,0.0,0.0,0.0,0.0,0.0,0.0,0.0,0.0,0.0,0.0,0.0,0.0,0.0,0.0,-3.1641,-3.1705,-3.1761,-3.1749,-3.1705,-3.2094,-3.2346,-3.2346,-3.2863,-3.314,-3.314,-3.3236,-3.3489,-3.385,-3.385,-3.4066,-3.4535,-3.4583,-3.4631,-3.4679,-3.4981,-3.5126,-3.5126,-3.5223,-3.5271,-3.5271,-3.5416,-3.5476,-3.5524,-3.5572,-3.562,-3.5668,-3.5512,-3.5704,-3.6051,-3.58,-3.6038,-3.6405,-3.6405,-3.6329,-3.6207,-3.6207,-3.6166,-3.5943,-3.5458,-3.5345,-3.5232,-3.4781,-3.4638,-3.4562,-3.4562,-3.4474,-3.4274,-3.3822,-3.3746,-3.3746,-3.3746,-3.3746,-3.3583,-3.3187,-3.3124,-3.3124,-3.3124,-3.3124,-3.3124,-3.3124,-3.3124,-3.3124,-3.3124,-3.3124,-3.3124,-3.3124,-3.3124,-3.3124,-3.3124,-3.3124,-3.3124,-3.3124,-3.3124,-3.3124,-3.3124,-3.3124,-3.3124,-3.3124,-3.3124,-3.3174,0.0,0.0,0.0,0.0,-2.8961,0.0,0.0,0.0,-2.9,-2.8882,0.0,0.0,0.0,0.0,0.0,0.0,0.0,0.0,0.0,0.0,0.0,0.0,0.0,0.0,0.0,0.0,0.0,-3.1669,-3.1849,-3.1893,-3.1705,-3.1765,-3.1801,-3.1801,-3.2298,-3.2587,-3.2587,-3.3056,-3.332,-3.3368,-3.3368,-3.3404,-3.3477,-3.3874,-3.4078,-3.4114,-3.4631,-3.4835,-3.4884,-3.5368,-3.556,-3.5524,-3.5078,-3.503,-3.5271,-3.5524,-3.5764,-3.5955,-3.6181,-3.631,-3.637,-3.631,-3.6358,-3.6405,-3.6405,-3.6031,-3.5596,-3.5596,-3.5232,-3.4901,-3.4826,-3.4768,-3.4801,-3.4693,-3.4349,-3.3985,-3.3985,-3.3608,-3.3244,-3.3181,-3.3212,-3.3212,-3.3212,-3.3212,-3.3156,-3.3124,-3.3124,-3.3124,-3.3124,-3.3124,-3.3124,-3.3124,-3.3124,-3.3124,-3.3124,-3.3124,-3.3124,-3.3124,-3.3124,-3.3124,-3.3124,-3.3124,-3.3124,-3.3124,-3.3124,-3.3124,-3.3124,-3.3124,-3.3124,-3.3124,-3.3124,-3.3332,0.0,0.0,0.0,0.0,0.0,0.0,0.0,0.0,-2.8776,0.0,0.0,0.0,0.0,0.0,0.0,0.0,0.0,0.0,0.0,0.0,0.0,0.0,0.0,0.0,0.0,0.0,0.0,0.0,0.0,-3.1567,-3.1693,-3.1705,-3.1705,-3.1705,-3.1934,-3.2066,-3.2066,-3.2283,-3.2515,-3.2839,-3.2839,-3.2996,-3.3296,-3.3501,-3.3609,-3.3609,-3.4108,-3.4346,-3.4346,-3.4708,-3.486,-3.4802,-3.4487,-3.4961,-3.5883,-3.6026,-3.6133,-3.6228,-3.6193,-3.6275,-3.6405,-3.6405,-3.6405,-3.6405,-3.6405,-3.6194,-3.6019,-3.6019,-3.5855,-3.5529,-3.4889,-3.4919,-3.4994,-3.4399,-3.4311,-3.4374,-3.4374,-3.3935,-3.3558,-3.3558,-3.3558,-3.3558,-3.3558,-3.3558,-3.3558,-3.3558,-3.3558,-3.3558,-3.3558,-3.3269,-3.3124,-3.3124,-3.3124,-3.3124,-3.3124,-3.3124,-3.3124,-3.3124,-3.3124,-3.3124,-3.3124,-3.3124,-3.3124,-3.3124,-3.3124,-3.3124,-3.3124,-3.3124,-3.3124,-3.3124,-3.3407,-3.3671,-2.8542,0.0,0.0,0.0,0.0,0.0,0.0,0.0,0.0,0.0,0.0,0.0,0.0,0.0,0.0,0.0,0.0,0.0,0.0,0.0,0.0,0.0,0.0,0.0,0.0,0.0,0.0,0.0,-3.101,-3.1264,-3.1476,-3.1633,-3.1705,-3.1705,-3.1705,-3.1705,-3.1705,-3.1705,-3.191,-3.2274,-3.2274,-3.2466,-3.2851,-3.3088,-3.3148,-3.3206,-3.3766,-3.401,-3.401,-3.4214,-3.4305,-3.4305,-3.4226,-3.4894,-3.5931,-3.6047,-3.6185,-3.6358,-3.6193,-3.6228,-3.6405,-3.6405,-3.6405,-3.6405,-3.6405,-3.6304,-3.6132,-3.6132,-3.6031,-3.573,-3.4926,-3.4856,-3.4881,-3.4274,-3.4311,-3.4537,-3.4688,-3.4412,-3.4123,-3.4123,-3.4123,-3.4123,-3.4123,-3.4123,-3.4123,-3.4123,-3.4123,-3.4073,-3.3922,-3.3684,-3.347,-3.3319,-3.3432,-3.347,-3.3319,-3.3307,-3.3244,-3.3124,-3.3124,-3.3124,-3.3124,-3.3124,-3.3124,-3.3124,-3.3124,-3.3124,-3.3124,-3.3124,-3.3124,-3.3124,-3.3483,-3.3834,0.0,0.0,0.0,-2.8259,0.0,0.0,0.0,0.0,-2.8391,0.0,0.0,0.0,0.0,0.0,-2.904,-2.8843,0.0,0.0,0.0,0.0,0.0,0.0,0.0,0.0,0.0,0.0,0.0,-3.0116,-3.0779,-3.1125,-3.0946,-3.1428,-3.1705,-3.1705,-3.1705,-3.1705,-3.1705,-3.1705,-3.1717,-3.1741,-3.1741,-3.1741,-3.1777,-3.2475,-3.2819,-3.2844,-3.364,-3.401,-3.401,-3.4214,-3.4305,-3.4351,-3.4577,-3.4705,-3.4793,-3.5114,-3.5731,-3.6405,-3.6405,-3.6405,-3.6405,-3.6405,-3.6405,-3.6405,-3.6405,-3.5994,-3.552,-3.552,-3.5144,-3.4763,-3.4726,-3.4336,-3.4073,-3.4575,-3.4299,-3.4073,-3.4613,-3.4713,-3.4655,-3.4655,-3.4655,-3.4655,-3.4655,-3.4655,-3.4655,-3.4655,-3.4655,-3.45,-3.3972,-3.4349,-3.4462,-3.3935,-3.4349,-3.4449,-3.3922,-3.3872,-3.3646,-3.3106,-3.3124,-3.3124,-3.3124,-3.3124,-3.3124,-3.3124,-3.3124,-3.3124,-3.3124,-3.3124,-3.3124,-3.3124,-3.3136,-3.3671,0.0,0.0,-2.6011,-2.6926,0.0,0.0,0.0,0.0,0.0,0.0,0.0,0.0,0.0,0.0,-2.8459,-2.8231,-2.8419,-2.851,0.0,0.0,0.0,0.0,0.0,0.0,0.0,0.0,0.0,-2.9574,-2.992,-3.0216,0.0,-3.0898,-3.1187,-3.1187,-3.1524,-3.1705,-3.1705,-3.1705,-3.1705,-3.1705,-3.1705,-3.1705,-3.1717,-3.1942,-3.2071,-3.2083,-3.2678,-3.2941,-3.2985,-3.337,-3.3502,-3.3489,-3.359,-3.3859,-3.4248,-3.471,-3.5036,-3.5278,-3.5278,-3.5278,-3.5278,-3.5278,-3.5529,-3.5818,-3.5818,-3.5943,-3.6094,-3.6094,-3.5943,-3.573,-3.532,-3.5391,-3.5491,-3.5257,-3.5403,-3.5579,-3.5768,-3.5516,-3.5219,-3.5219,-3.5219,-3.5219,-3.5219,-3.5567,-3.568,-3.527,-3.5219,-3.5157,-3.4969,-3.4826,-3.465,-3.4462,-3.4613,-3.45,-3.3947,-3.3558,-3.3269,-3.3124,-3.3124,-3.3124,-3.3124,-3.3124,-3.3124,-3.3124,-3.3124,-3.3124,-3.3124,-3.3124,-3.3124,-3.3124,-3.3458,-3.401,-2.6233,-2.5807,0.0,-2.6473,-2.6269,0.0,-2.7186,0.0,0.0,0.0,0.0,0.0,0.0,0.0,-2.7817,-2.7788,-2.7898,-2.7938,0.0,-2.7441,0.0,0.0,0.0,0.0,0.0,0.0,-2.8762,-2.8991,-2.9306,-2.96,0.0,0.0,-3.0718,-3.091,-3.1247,-3.1524,-3.1705,-3.1705,-3.1705,-3.1705,-3.1705,-3.1705,-3.1705,-3.1749,-3.1805,-3.1849,-3.2213,-3.24,-3.2431,-3.2736,-3.2896,-3.2939,-3.2939,-3.3251,-3.3671,-3.4223,-3.4562,-3.468,-3.468,-3.468,-3.468,-3.468,-3.4919,-3.5245,-3.5445,-3.5793,-3.6069,-3.6069,-3.6069,-3.5994,-3.5596,-3.5667,-3.5793,-3.583,-3.5956,-3.6119,-3.6367,-3.6081,-3.583,-3.583,-3.583,-3.583,-3.583,-3.6119,-3.6292,-3.5893,-3.583,-3.5768,-3.552,-3.5403,-3.5228,-3.4994,-3.519,-3.5002,-3.4261,-3.3684,-3.3282,-3.3093,-3.3124,-3.2939,-3.2581,-3.2896,-3.2939,-3.2581,-3.2939,-3.3124,-3.3124,-3.3124,-3.3224,-3.3382,-3.3935,-3.4487]}]]